[[{"header":{"parameterUnit":"m.s-1","parameterCategory":1,"la1":31.0,"la2":29.5877,"lo1":-88.7671,"lo2":-86.6584,"dy":0.0162,"dx":0.0185,"nx":115,"ny":88,"refTime":"2023-08-19T12:00:00:Z","depth":0,"parameterNumber":2,"parameterNumberName":"U-component_of_WINDS"},"data":[0.0,0.0,0.0,0.0,0.0,0.0,0.0,0.0,0.0,0.0,0.0,0.0,0.0,0.0,0.0,0.0,0.0,0.0,0.0,0.0,0.0,0.0,0.0,0.0,0.0,0.0,0.0,0.0,0.0,0.0,0.0,0.0,0.0,0.0,0.0,0.0,0.0,0.0,0.0,0.0,0.0,0.0,0.0,0.0,0.0,0.0,0.0,0.0,0.0,0.0,0.0,0.0,0.0,0.0,0.0,0.0,0.0,0.0,0.0,0.0,0.0,0.0,0.0,0.0,0.0,0.0,0.0,0.0,0.0,0.0,0.0,0.0,0.0,0.0,0.0,0.0,0.0,0.0,0.0,0.0,0.0,0.0,0.0,0.0,0.0,0.0,0.0,0.0,0.0,0.0,0.0,0.0,0.0,0.0,0.0,0.0,0.0,0.0,0.0,0.0,0.0,0.0,0.0,0.0,0.0,0.0,0.0,0.0,0.0,0.0,0.0,0.0,0.0,0.0,0.0,0.0,0.0,0.0,0.0,0.0,0.0,0.0,0.0,0.0,0.0,0.0,0.0,0.0,0.0,0.0,0.0,0.0,0.0,0.0,0.0,0.0,0.0,0.0,0.0,0.0,0.0,0.0,0.0,0.0,0.0,0.0,0.0,0.0,0.0,0.0,0.0,0.0,0.0,0.0,0.0,0.0,0.0,0.0,0.0,0.0,0.0,0.0,0.0,0.0,0.0,0.0,0.0,0.0,0.0,0.0,0.0,0.0,0.0,0.0,0.0,0.0,0.0,0.0,0.0,0.0,0.0,0.0,0.0,0.0,0.0,0.0,0.0,0.0,0.0,0.0,0.0,0.0,0.0,0.0,0.0,0.0,0.0,0.0,0.0,0.0,0.0,0.0,0.0,0.0,0.0,0.0,0.0,0.0,0.0,0.0,0.0,0.0,0.0,0.0,0.0,0.0,0.0,0.0,0.0,0.0,0.0,0.0,0.0,0.0,0.0,0.0,0.0,0.0,0.0,0.0,0.0,0.0,0.0,0.0,0.0,0.0,0.0,0.0,0.0,0.0,0.0,0.0,0.0,0.0,0.0,0.0,0.0,0.0,0.0,0.0,0.0,0.0,0.0,0.0,0.0,0.0,0.0,0.0,0.0,0.0,0.0,0.0,0.0,0.0,0.0,0.0,0.0,0.0,0.0,0.0,0.0,0.0,0.0,0.0,0.0,0.0,0.0,0.0,0.0,0.0,0.0,0.0,0.0,0.0,0.0,0.0,0.0,0.0,0.0,0.0,0.0,0.0,0.0,0.0,0.0,0.0,0.0,0.0,0.0,0.0,0.0,0.0,0.0,0.0,0.0,0.0,0.0,0.0,0.0,0.0,0.0,0.0,0.0,0.0,0.0,0.0,0.0,0.0,0.0,0.0,0.0,0.0,0.0,0.0,0.0,0.0,0.0,0.0,0.0,0.0,0.0,0.0,0.0,0.0,0.0,0.0,0.0,0.0,0.0,0.0,0.0,0.0,0.0,0.0,0.0,0.0,0.0,0.0,0.0,0.0,0.0,0.0,0.0,0.0,0.0,0.0,0.0,0.0,0.0,0.0,0.0,0.0,0.0,0.0,0.0,0.0,0.0,0.0,0.0,0.0,0.0,0.0,0.0,0.0,0.0,0.0,0.0,0.0,0.0,0.0,0.0,0.0,0.0,0.0,0.0,0.0,0.0,0.0,0.0,0.0,0.0,0.0,0.0,0.0,0.0,0.0,0.0,0.0,0.0,0.0,0.0,0.0,0.0,0.0,0.0,0.0,0.0,0.0,0.0,0.0,0.0,0.0,0.0,0.0,0.0,0.0,0.0,0.0,0.0,0.0,0.0,0.0,0.0,0.0,0.0,0.0,0.0,0.0,0.0,0.0,0.0,0.0,0.0,0.0,0.0,0.0,0.0,0.0,0.0,0.0,0.0,0.0,0.0,0.0,0.0,0.0,0.0,0.0,0.0,0.0,0.0,0.0,0.0,0.0,0.0,0.0,0.0,0.0,0.0,0.0,0.0,0.0,0.0,0.0,0.0,0.0,0.0,0.0,0.0,0.0,0.0,0.0,0.0,0.0,0.0,0.0,0.0,0.0,0.0,0.0,0.0,0.0,0.0,0.0,0.0,0.0,0.0,0.0,0.0,0.0,0.0,0.0,0.0,0.0,0.0,0.0,0.0,0.0,0.0,0.0,0.0,0.0,0.0,0.0,0.0,0.0,0.0,0.0,0.0,0.0,0.0,0.0,0.0,0.0,0.0,0.0,0.0,0.0,0.0,0.0,0.0,0.0,0.0,0.0,0.0,0.0,0.0,0.0,0.0,0.0,0.0,0.0,0.0,0.0,0.0,0.0,0.0,0.0,0.0,0.0,0.0,0.0,0.0,0.0,0.0,0.0,0.0,0.0,0.0,0.0,0.0,0.0,0.0,0.0,0.0,0.0,0.0,0.0,0.0,0.0,0.0,0.0,0.0,0.0,0.0,0.0,0.0,0.0,0.0,0.0,0.0,0.0,0.0,0.0,0.0,0.0,0.0,0.0,0.0,0.0,0.0,0.0,0.0,0.0,0.0,0.0,0.0,0.0,0.0,0.0,0.0,0.0,0.0,0.0,0.0,0.0,0.0,0.0,0.0,0.0,0.0,0.0,0.0,0.0,0.0,0.0,0.0,0.0,0.0,0.0,0.0,0.0,0.0,0.0,0.0,0.0,0.0,0.0,0.0,0.0,0.0,0.0,0.0,0.0,0.0,0.0,0.0,0.0,0.0,0.0,0.0,0.0,0.0,0.0,0.0,0.0,0.0,0.0,0.0,0.0,0.0,0.0,0.0,0.0,0.0,0.0,0.0,0.0,0.0,0.0,0.0,0.0,0.0,0.0,0.0,0.0,0.0,0.0,0.0,0.0,0.0,0.0,0.0,0.0,0.0,0.0,0.0,0.0,0.0,0.0,0.0,0.0,0.0,0.0,0.0,0.0,0.0,0.0,0.0,0.0,0.0,0.0,0.0,0.0,0.0,0.0,0.0,0.0,0.0,0.0,0.0,0.0,0.0,0.0,0.0,0.0,0.0,0.0,0.0,0.0,0.0,0.0,0.0,0.0,0.0,0.0,0.0,0.0,0.0,0.0,0.0,0.0,0.0,0.0,0.0,0.0,0.0,0.0,0.0,0.0,0.0,0.0,0.0,0.0,0.0,0.0,0.0,0.0,0.0,0.0,0.0,0.0,0.0,0.0,0.0,0.0,0.0,0.0,0.0,0.0,0.0,0.0,0.0,0.0,0.0,0.0,0.0,0.0,0.0,0.0,0.0,0.0,0.0,0.0,0.0,0.0,0.0,0.0,0.0,0.0,0.0,0.0,0.0,0.0,0.0,0.0,0.0,0.0,0.0,0.0,0.0,0.0,0.0,0.0,0.0,0.0,0.0,0.0,0.0,0.0,0.0,0.0,0.0,0.0,0.0,0.0,0.0,0.0,0.0,0.0,0.0,0.0,0.0,0.0,0.0,0.0,0.0,0.0,0.0,0.0,0.0,0.0,0.0,0.0,0.0,0.0,0.0,0.0,0.0,0.0,0.0,0.0,0.0,0.0,0.0,0.0,0.0,0.0,0.0,0.0,0.0,0.0,0.0,0.0,0.0,0.0,0.0,0.0,0.0,0.0,0.0,0.0,0.0,0.0,0.0,0.0,0.0,0.0,0.0,0.0,0.0,0.0,0.0,0.0,0.0,0.0,0.0,0.0,0.0,0.0,0.0,0.0,0.0,0.0,0.0,0.0,0.0,0.0,0.0,0.0,0.0,0.0,0.0,0.0,0.0,0.0,0.0,0.0,0.0,0.0,0.0,0.0,0.0,0.0,0.0,0.0,0.0,0.0,0.0,0.0,0.0,0.0,0.0,0.0,0.0,0.0,0.0,0.0,0.0,0.0,0.0,0.0,0.0,0.0,0.0,0.0,0.0,0.0,0.0,0.0,0.0,0.0,0.0,0.0,0.0,0.0,0.0,0.0,0.0,0.0,0.0,0.0,0.0,0.0,0.0,0.0,0.0,0.0,0.0,0.0,0.0,0.0,0.0,0.0,0.0,0.0,0.0,0.0,0.0,0.0,0.0,0.0,0.0,0.0,0.0,0.0,0.0,0.0,0.0,0.0,0.0,0.0,0.0,0.0,0.0,0.0,0.0,0.0,0.0,0.0,0.0,0.0,0.0,0.0,0.0,0.0,0.0,0.0,0.0,0.0,0.0,0.0,0.0,0.0,0.0,0.0,-2.7896,0.0,0.0,0.0,0.0,0.0,0.0,0.0,0.0,0.0,0.0,0.0,0.0,0.0,0.0,0.0,0.0,0.0,0.0,0.0,0.0,0.0,0.0,0.0,0.0,0.0,0.0,0.0,0.0,0.0,0.0,0.0,0.0,0.0,0.0,0.0,0.0,0.0,0.0,0.0,0.0,0.0,0.0,0.0,0.0,0.0,0.0,0.0,0.0,0.0,0.0,0.0,0.0,0.0,0.0,0.0,0.0,0.0,0.0,0.0,0.0,0.0,0.0,0.0,0.0,0.0,0.0,0.0,0.0,0.0,0.0,0.0,0.0,0.0,0.0,0.0,0.0,0.0,0.0,0.0,0.0,0.0,0.0,0.0,0.0,0.0,0.0,0.0,0.0,0.0,0.0,0.0,0.0,0.0,0.0,0.0,0.0,0.0,0.0,0.0,0.0,0.0,0.0,0.0,0.0,0.0,0.0,0.0,0.0,0.0,0.0,-3.1068,-3.144,-3.0167,-2.9059,-2.8102,0.0,0.0,0.0,0.0,0.0,0.0,0.0,0.0,0.0,0.0,0.0,0.0,0.0,0.0,0.0,0.0,0.0,0.0,0.0,0.0,0.0,0.0,0.0,0.0,0.0,0.0,0.0,0.0,0.0,0.0,0.0,0.0,0.0,0.0,0.0,0.0,0.0,0.0,0.0,0.0,0.0,0.0,0.0,0.0,0.0,0.0,0.0,0.0,0.0,0.0,0.0,0.0,0.0,0.0,0.0,0.0,0.0,0.0,0.0,0.0,0.0,0.0,0.0,0.0,0.0,0.0,0.0,0.0,0.0,0.0,0.0,0.0,0.0,0.0,0.0,0.0,0.0,0.0,0.0,0.0,0.0,0.0,0.0,0.0,0.0,0.0,0.0,0.0,0.0,0.0,0.0,0.0,0.0,0.0,0.0,0.0,0.0,0.0,0.0,0.0,0.0,0.0,0.0,0.0,0.0,0.0,0.0,0.0,0.0,0.0,0.0,0.0,-3.0649,-2.9395,-2.771,0.0,0.0,0.0,0.0,0.0,0.0,0.0,0.0,0.0,0.0,0.0,0.0,0.0,0.0,0.0,0.0,0.0,0.0,0.0,0.0,0.0,0.0,0.0,0.0,0.0,0.0,0.0,0.0,0.0,0.0,0.0,0.0,0.0,0.0,0.0,0.0,0.0,0.0,0.0,0.0,0.0,0.0,0.0,0.0,0.0,0.0,0.0,0.0,0.0,0.0,0.0,0.0,0.0,0.0,0.0,0.0,0.0,0.0,0.0,0.0,0.0,0.0,0.0,0.0,0.0,0.0,0.0,0.0,0.0,0.0,0.0,0.0,0.0,0.0,0.0,0.0,0.0,0.0,0.0,0.0,0.0,0.0,0.0,0.0,0.0,0.0,0.0,0.0,0.0,0.0,0.0,0.0,0.0,0.0,0.0,0.0,0.0,0.0,0.0,0.0,0.0,0.0,0.0,0.0,0.0,0.0,0.0,0.0,0.0,0.0,-3.195,-3.1228,-2.9785,0.0,-2.679,0.0,0.0,0.0,0.0,0.0,0.0,0.0,0.0,0.0,0.0,0.0,0.0,0.0,0.0,0.0,0.0,0.0,0.0,0.0,0.0,0.0,0.0,0.0,0.0,0.0,0.0,0.0,0.0,0.0,0.0,0.0,0.0,0.0,0.0,0.0,0.0,0.0,0.0,0.0,0.0,0.0,0.0,0.0,0.0,0.0,0.0,0.0,0.0,0.0,0.0,0.0,0.0,0.0,0.0,0.0,0.0,0.0,0.0,0.0,0.0,0.0,0.0,0.0,0.0,0.0,0.0,0.0,0.0,0.0,0.0,0.0,0.0,0.0,0.0,0.0,0.0,0.0,0.0,0.0,0.0,0.0,0.0,0.0,0.0,0.0,0.0,0.0,0.0,0.0,0.0,0.0,0.0,0.0,0.0,0.0,0.0,0.0,0.0,0.0,0.0,0.0,0.0,0.0,0.0,0.0,0.0,0.0,0.0,0.0,0.0,-3.1311,-3.0505,-2.9031,-2.7887,0.0,0.0,0.0,0.0,0.0,0.0,0.0,0.0,0.0,0.0,0.0,0.0,0.0,0.0,0.0,0.0,0.0,0.0,0.0,0.0,0.0,0.0,0.0,0.0,0.0,0.0,0.0,0.0,0.0,0.0,0.0,0.0,0.0,0.0,0.0,0.0,0.0,0.0,0.0,0.0,0.0,0.0,0.0,0.0,0.0,0.0,0.0,0.0,0.0,0.0,0.0,0.0,0.0,0.0,0.0,0.0,0.0,0.0,0.0,0.0,0.0,0.0,0.0,0.0,0.0,0.0,0.0,0.0,0.0,0.0,0.0,0.0,0.0,0.0,0.0,0.0,0.0,0.0,0.0,0.0,0.0,0.0,0.0,0.0,0.0,0.0,0.0,0.0,0.0,0.0,0.0,0.0,0.0,0.0,0.0,0.0,0.0,0.0,0.0,0.0,0.0,0.0,0.0,0.0,0.0,0.0,0.0,0.0,0.0,0.0,-3.1221,-3.0645,-2.9402,-2.805,-2.7351,-2.7351,0.0,0.0,0.0,0.0,0.0,0.0,0.0,0.0,0.0,0.0,0.0,0.0,0.0,0.0,0.0,0.0,0.0,0.0,0.0,0.0,0.0,0.0,0.0,0.0,0.0,0.0,0.0,0.0,0.0,0.0,0.0,0.0,0.0,0.0,0.0,0.0,0.0,0.0,0.0,0.0,0.0,0.0,0.0,0.0,0.0,0.0,0.0,0.0,0.0,0.0,0.0,0.0,0.0,0.0,0.0,0.0,0.0,0.0,0.0,0.0,0.0,0.0,0.0,0.0,0.0,0.0,0.0,0.0,0.0,0.0,0.0,0.0,0.0,0.0,0.0,0.0,0.0,0.0,0.0,0.0,0.0,0.0,0.0,0.0,0.0,0.0,0.0,0.0,0.0,0.0,0.0,0.0,0.0,0.0,0.0,0.0,0.0,0.0,0.0,0.0,0.0,0.0,0.0,0.0,0.0,0.0,0.0,0.0,-3.1267,-3.1255,-3.0156,-2.7894,-2.696,-2.6589,0.0,0.0,0.0,0.0,0.0,0.0,0.0,0.0,0.0,0.0,0.0,0.0,0.0,0.0,0.0,0.0,0.0,0.0,0.0,0.0,0.0,0.0,0.0,0.0,0.0,0.0,0.0,0.0,0.0,0.0,0.0,0.0,0.0,0.0,0.0,0.0,0.0,0.0,0.0,0.0,0.0,0.0,0.0,0.0,0.0,0.0,0.0,0.0,0.0,0.0,0.0,0.0,0.0,0.0,0.0,0.0,0.0,0.0,0.0,0.0,0.0,0.0,0.0,0.0,0.0,0.0,0.0,0.0,0.0,0.0,0.0,0.0,0.0,0.0,0.0,0.0,0.0,0.0,0.0,0.0,0.0,0.0,0.0,0.0,0.0,0.0,0.0,0.0,0.0,0.0,0.0,0.0,0.0,0.0,0.0,0.0,0.0,0.0,0.0,0.0,0.0,0.0,0.0,0.0,0.0,0.0,0.0,0.0,0.0,-2.8969,-2.8488,-2.7815,-2.6973,-2.6658,-2.6521,0.0,0.0,0.0,0.0,0.0,0.0,0.0,0.0,0.0,0.0,0.0,0.0,0.0,0.0,0.0,0.0,0.0,0.0,0.0,0.0,0.0,0.0,0.0,0.0,0.0,0.0,0.0,0.0,0.0,0.0,0.0,0.0,0.0,0.0,0.0,0.0,0.0,0.0,0.0,0.0,0.0,0.0,0.0,0.0,0.0,0.0,0.0,0.0,0.0,0.0,0.0,0.0,0.0,0.0,0.0,0.0,0.0,0.0,0.0,0.0,0.0,0.0,0.0,0.0,0.0,0.0,0.0,0.0,0.0,0.0,0.0,0.0,0.0,0.0,0.0,0.0,0.0,0.0,0.0,0.0,0.0,0.0,0.0,0.0,0.0,0.0,0.0,0.0,0.0,0.0,0.0,0.0,0.0,0.0,0.0,0.0,0.0,0.0,0.0,0.0,0.0,0.0,0.0,0.0,0.0,0.0,0.0,0.0,0.0,-2.771,0.0,-2.6521,-2.6521,-2.6521,-2.6521,0.0,0.0,0.0,0.0,0.0,0.0,0.0,0.0,0.0,0.0,0.0,0.0,0.0,0.0,0.0,0.0,0.0,0.0,0.0,0.0,0.0,0.0,0.0,0.0,0.0,0.0,0.0,0.0,0.0,0.0,0.0,0.0,0.0,0.0,0.0,0.0,0.0,0.0,0.0,0.0,0.0,0.0,0.0,0.0,0.0,0.0,0.0,0.0,0.0,0.0,0.0,0.0,0.0,0.0,0.0,0.0,0.0,0.0,0.0,0.0,0.0,0.0,0.0,0.0,0.0,0.0,0.0,0.0,0.0,0.0,0.0,0.0,0.0,0.0,0.0,0.0,0.0,0.0,0.0,0.0,0.0,0.0,0.0,0.0,0.0,0.0,0.0,0.0,0.0,0.0,0.0,0.0,0.0,0.0,0.0,0.0,0.0,0.0,0.0,0.0,0.0,0.0,0.0,0.0,0.0,0.0,0.0,0.0,-2.6925,-2.7604,-2.6918,-2.6521,-2.6521,-2.6521,-2.6521,0.0,0.0,0.0,0.0,0.0,0.0,0.0,0.0,0.0,0.0,0.0,0.0,0.0,0.0,0.0,0.0,0.0,0.0,0.0,0.0,0.0,0.0,0.0,0.0,0.0,0.0,0.0,0.0,0.0,0.0,0.0,0.0,0.0,0.0,0.0,0.0,0.0,0.0,0.0,0.0,0.0,0.0,0.0,0.0,0.0,0.0,0.0,0.0,0.0,0.0,0.0,0.0,0.0,0.0,0.0,0.0,0.0,0.0,0.0,0.0,0.0,0.0,0.0,0.0,0.0,0.0,0.0,0.0,0.0,0.0,0.0,0.0,0.0,0.0,0.0,0.0,0.0,0.0,0.0,0.0,0.0,0.0,0.0,0.0,0.0,0.0,0.0,0.0,0.0,0.0,0.0,0.0,0.0,0.0,0.0,0.0,0.0,0.0,0.0,0.0,0.0,0.0,0.0,0.0,0.0,0.0,0.0,0.0,0.0,-2.6824,-2.6658,-2.6521,-2.6521,-2.6521,-2.6521,0.0,0.0,0.0,0.0,0.0,0.0,0.0,0.0,0.0,0.0,0.0,0.0,0.0,0.0,0.0,0.0,0.0,0.0,0.0,0.0,0.0,0.0,0.0,0.0,0.0,0.0,0.0,0.0,0.0,0.0,0.0,0.0,0.0,0.0,0.0,0.0,0.0,0.0,0.0,0.0,0.0,0.0,0.0,0.0,0.0,0.0,0.0,0.0,0.0,0.0,0.0,0.0,0.0,0.0,0.0,0.0,0.0,0.0,0.0,0.0,0.0,0.0,0.0,0.0,0.0,0.0,0.0,0.0,0.0,0.0,0.0,0.0,0.0,0.0,0.0,0.0,0.0,0.0,0.0,0.0,0.0,0.0,0.0,0.0,0.0,0.0,0.0,0.0,0.0,0.0,0.0,0.0,0.0,0.0,0.0,0.0,0.0,0.0,0.0,0.0,0.0,0.0,0.0,0.0,0.0,0.0,0.0,0.0,0.0,-2.6521,-2.6521,-2.6314,-2.5955,-2.5955,-2.5721,-2.5429,0.0,0.0,0.0,0.0,0.0,0.0,0.0,0.0,0.0,0.0,0.0,0.0,0.0,0.0,0.0,0.0,0.0,0.0,0.0,0.0,0.0,0.0,0.0,0.0,0.0,0.0,0.0,0.0,0.0,0.0,0.0,0.0,0.0,0.0,0.0,0.0,0.0,0.0,0.0,0.0,0.0,0.0,0.0,0.0,0.0,0.0,0.0,0.0,0.0,0.0,0.0,0.0,0.0,0.0,0.0,0.0,0.0,0.0,0.0,0.0,0.0,0.0,0.0,0.0,0.0,0.0,0.0,0.0,0.0,0.0,0.0,0.0,0.0,0.0,0.0,0.0,0.0,0.0,0.0,0.0,0.0,0.0,0.0,0.0,0.0,0.0,0.0,0.0,0.0,0.0,0.0,0.0,0.0,0.0,0.0,0.0,0.0,0.0,0.0,0.0,0.0,0.0,0.0,0.0,0.0,0.0,0.0,0.0,-2.6521,-2.6452,-2.5955,-2.5075,-2.5004,-2.4552,0.0,0.0,0.0,0.0,0.0,0.0,0.0,0.0,0.0,0.0,0.0,0.0,0.0,0.0,0.0,0.0,0.0,0.0,0.0,0.0,0.0,0.0,0.0,0.0,0.0,0.0,0.0,0.0,0.0,0.0,0.0,0.0,0.0,0.0,0.0,0.0,0.0,0.0,0.0,0.0,0.0,0.0,0.0,0.0,0.0,0.0,0.0,0.0,0.0,0.0,0.0,0.0,0.0,0.0,0.0,0.0,0.0,0.0,0.0,0.0,0.0,0.0,0.0,0.0,0.0,0.0,0.0,0.0,0.0,0.0,0.0,0.0,0.0,0.0,0.0,0.0,0.0,0.0,0.0,0.0,0.0,0.0,0.0,0.0,0.0,0.0,0.0,0.0,0.0,0.0,0.0,0.0,0.0,0.0,0.0,0.0,0.0,0.0,0.0,0.0,0.0,0.0,0.0,0.0,0.0,0.0,0.0,0.0,0.0,-2.6452,-2.5804,-2.5229,-2.5004,-2.5004,-2.4492,0.0,0.0,0.0,0.0,0.0,0.0,0.0,0.0,0.0,0.0,0.0,0.0,0.0,0.0,0.0,0.0,0.0,0.0,0.0,0.0,0.0,0.0,0.0,0.0,0.0,0.0,0.0,0.0,0.0,0.0,0.0,0.0,0.0,0.0,0.0,0.0,0.0,0.0,0.0,0.0,0.0,0.0,0.0,0.0,0.0,0.0,0.0,0.0,0.0,0.0,0.0,0.0,0.0,0.0,0.0,0.0,0.0,0.0,0.0,0.0,0.0,0.0,0.0,0.0,0.0,0.0,0.0,0.0,0.0,0.0,0.0,0.0,0.0,0.0,0.0,0.0,0.0,0.0,0.0,0.0,0.0,0.0,0.0,0.0,0.0,0.0,0.0,0.0,0.0,0.0,0.0,0.0,0.0,0.0,0.0,0.0,0.0,0.0,0.0,0.0,0.0,0.0,0.0,0.0,0.0,0.0,0.0,0.0,-2.6314,-2.5873,-2.53,-2.4636,-2.3734,-2.3734,-2.3294,0.0,0.0,0.0,0.0,0.0,0.0,0.0,0.0,0.0,0.0,0.0,0.0,0.0,0.0,0.0,0.0,0.0,0.0,0.0,0.0,0.0,0.0,0.0,0.0,0.0,0.0,0.0,0.0,0.0,0.0,0.0,0.0,0.0,0.0,0.0,0.0,0.0,0.0,0.0,0.0,0.0,0.0,0.0,0.0,0.0,0.0,0.0,0.0,0.0,0.0,0.0,0.0,0.0,0.0,0.0,0.0,0.0,0.0,0.0,0.0,0.0,0.0,0.0,0.0,0.0,0.0,0.0,0.0,0.0,0.0,0.0,0.0,0.0,0.0,0.0,0.0,0.0,0.0,0.0,0.0,0.0,0.0,0.0,0.0,0.0,0.0,0.0,0.0,0.0,0.0,0.0,0.0,0.0,0.0,0.0,0.0,0.0,0.0,0.0,0.0,0.0,0.0,0.0,0.0,0.0,0.0,0.0,0.0,-2.6094,-2.5158,-2.4933,-2.3975,-2.2253,-2.2027,-2.1593,0.0,0.0,0.0,0.0,0.0,0.0,0.0,0.0,0.0,0.0,0.0,0.0,0.0,0.0,0.0,0.0,0.0,0.0,0.0,0.0,0.0,0.0,0.0,0.0,0.0,0.0,0.0,0.0,0.0,0.0,0.0,0.0,0.0,0.0,0.0,0.0,0.0,0.0,0.0,0.0,0.0,0.0,0.0,0.0,0.0,0.0,0.0,0.0,0.0,0.0,0.0,0.0,0.0,0.0,0.0,0.0,0.0,0.0,0.0,0.0,0.0,0.0,0.0,0.0,0.0,0.0,0.0,0.0,0.0,0.0,0.0,0.0,0.0,0.0,0.0,0.0,0.0,0.0,0.0,0.0,0.0,0.0,0.0,0.0,0.0,0.0,0.0,0.0,0.0,0.0,0.0,0.0,0.0,0.0,0.0,0.0,0.0,0.0,0.0,0.0,0.0,0.0,0.0,0.0,0.0,0.0,0.0,0.0,-2.6396,-2.6176,-2.4624,-2.3588,-2.322,-2.2403,-2.1593,0.0,0.0,0.0,0.0,0.0,0.0,0.0,0.0,0.0,0.0,0.0,0.0,0.0,0.0,0.0,0.0,0.0,0.0,0.0,0.0,0.0,0.0,0.0,0.0,0.0,0.0,0.0,0.0,0.0,0.0,0.0,0.0,0.0,0.0,0.0,0.0,0.0,0.0,0.0,0.0,0.0,0.0,0.0,0.0,0.0,0.0,0.0,0.0,-3.6492,0.0,0.0,0.0,0.0,0.0,0.0,0.0,0.0,0.0,0.0,0.0,0.0,0.0,0.0,0.0,0.0,0.0,0.0,0.0,0.0,0.0,0.0,0.0,0.0,0.0,0.0,0.0,0.0,0.0,0.0,0.0,0.0,0.0,0.0,0.0,0.0,0.0,0.0,0.0,0.0,0.0,0.0,0.0,0.0,0.0,0.0,0.0,0.0,0.0,0.0,0.0,0.0,0.0,0.0,0.0,0.0,0.0,0.0,0.0,-2.6245,-2.5804,-2.4253,-2.3294,-2.2765,-2.1886,-2.1078,0.0,0.0,0.0,0.0,0.0,0.0,0.0,0.0,0.0,0.0,0.0,0.0,0.0,0.0,0.0,0.0,0.0,0.0,0.0,0.0,0.0,0.0,0.0,0.0,0.0,0.0,0.0,0.0,0.0,0.0,0.0,0.0,0.0,0.0,0.0,0.0,0.0,0.0,0.0,0.0,0.0,0.0,0.0,0.0,0.0,0.0,0.0,0.0,0.0,0.0,0.0,0.0,0.0,0.0,0.0,0.0,0.0,0.0,0.0,0.0,0.0,0.0,0.0,0.0,0.0,0.0,0.0,0.0,0.0,0.0,0.0,0.0,0.0,0.0,0.0,0.0,0.0,0.0,0.0,0.0,0.0,0.0,0.0,0.0,0.0,0.0,0.0,0.0,0.0,0.0,0.0,0.0,0.0,0.0,0.0,0.0,0.0,0.0,0.0,0.0,0.0,0.0,0.0,0.0,0.0,0.0,0.0,-2.6521,-2.6094,-2.5229,-2.4264,-2.322,-2.2264,-2.1298,-2.0712,-2.0634,0.0,0.0,0.0,0.0,0.0,0.0,0.0,0.0,0.0,0.0,0.0,0.0,0.0,0.0,0.0,0.0,0.0,0.0,0.0,0.0,0.0,0.0,0.0,0.0,0.0,0.0,0.0,0.0,0.0,0.0,0.0,0.0,0.0,0.0,0.0,0.0,0.0,0.0,-2.682,-2.8639,0.0,0.0,0.0,0.0,0.0,0.0,0.0,0.0,-3.7554,0.0,0.0,0.0,0.0,0.0,0.0,0.0,0.0,0.0,0.0,0.0,0.0,0.0,0.0,0.0,0.0,0.0,0.0,0.0,0.0,0.0,0.0,0.0,0.0,0.0,0.0,0.0,0.0,0.0,0.0,0.0,0.0,0.0,0.0,0.0,0.0,0.0,0.0,0.0,0.0,0.0,0.0,0.0,0.0,0.0,0.0,0.0,0.0,0.0,0.0,0.0,0.0,0.0,0.0,0.0,0.0,-2.6521,-2.6521,-2.6383,-2.6233,-2.53,-2.4276,-2.3294,-2.2253,-2.1375,-2.0644,0.0,0.0,0.0,0.0,0.0,0.0,0.0,0.0,0.0,0.0,0.0,0.0,0.0,0.0,0.0,0.0,0.0,0.0,0.0,0.0,0.0,0.0,0.0,0.0,0.0,0.0,0.0,0.0,0.0,0.0,0.0,0.0,0.0,0.0,0.0,0.0,0.0,0.0,0.0,-2.885,-2.9797,0.0,0.0,0.0,0.0,0.0,0.0,0.0,0.0,-3.7628,0.0,0.0,0.0,0.0,0.0,0.0,0.0,0.0,0.0,0.0,0.0,0.0,0.0,0.0,0.0,0.0,0.0,0.0,0.0,0.0,0.0,0.0,0.0,0.0,0.0,0.0,0.0,0.0,0.0,0.0,0.0,0.0,0.0,0.0,0.0,0.0,0.0,0.0,0.0,0.0,0.0,0.0,0.0,0.0,0.0,0.0,0.0,0.0,0.0,0.0,0.0,0.0,0.0,0.0,0.0,-2.6533,-2.6521,-2.6521,-2.6452,-2.5523,-2.4779,-2.4264,-2.2776,-2.2027,0.0,0.0,0.0,0.0,0.0,0.0,0.0,0.0,0.0,0.0,0.0,0.0,0.0,0.0,0.0,0.0,0.0,0.0,0.0,0.0,0.0,0.0,0.0,0.0,0.0,0.0,0.0,0.0,0.0,0.0,0.0,0.0,0.0,0.0,0.0,0.0,0.0,0.0,0.0,0.0,-2.862,-2.9816,-3.2479,0.0,0.0,0.0,0.0,0.0,0.0,-3.7198,-3.7488,0.0,0.0,0.0,0.0,0.0,0.0,0.0,0.0,0.0,0.0,0.0,0.0,0.0,0.0,0.0,0.0,0.0,0.0,0.0,0.0,0.0,0.0,0.0,0.0,0.0,0.0,0.0,0.0,0.0,0.0,0.0,0.0,0.0,0.0,0.0,0.0,0.0,0.0,0.0,0.0,0.0,0.0,0.0,0.0,0.0,0.0,0.0,0.0,0.0,0.0,0.0,0.0,0.0,0.0,0.0,-2.6521,-2.6521,-2.6521,-2.6452,-2.5734,-2.5229,-2.5004,-2.3441,-2.2914,0.0,0.0,0.0,0.0,0.0,0.0,0.0,0.0,0.0,0.0,0.0,0.0,0.0,0.0,0.0,0.0,0.0,0.0,0.0,0.0,0.0,0.0,0.0,0.0,0.0,0.0,0.0,0.0,0.0,0.0,0.0,0.0,0.0,0.0,0.0,0.0,0.0,0.0,0.0,0.0,0.0,-3.0238,-3.2284,-3.374,0.0,0.0,0.0,0.0,-3.6749,-3.6932,0.0,0.0,0.0,0.0,0.0,0.0,0.0,0.0,0.0,0.0,0.0,0.0,0.0,0.0,0.0,0.0,0.0,0.0,0.0,0.0,0.0,0.0,0.0,0.0,0.0,0.0,0.0,0.0,0.0,0.0,0.0,0.0,0.0,0.0,0.0,0.0,0.0,0.0,0.0,0.0,0.0,0.0,0.0,0.0,0.0,0.0,0.0,0.0,0.0,0.0,0.0,0.0,0.0,0.0,0.0,0.0,-2.6533,-2.6521,-2.6521,-2.6521,-2.6383,-2.5873,-2.5004,-2.4779,-2.4264,0.0,0.0,0.0,0.0,0.0,0.0,0.0,0.0,0.0,0.0,0.0,0.0,0.0,0.0,0.0,0.0,0.0,0.0,0.0,0.0,0.0,0.0,0.0,0.0,0.0,0.0,0.0,0.0,0.0,0.0,0.0,0.0,0.0,0.0,0.0,0.0,0.0,0.0,0.0,0.0,0.0,-3.1134,-3.3196,-3.4137,-3.4847,0.0,0.0,-3.6416,-3.6464,-3.6481,0.0,0.0,0.0,0.0,0.0,0.0,0.0,0.0,0.0,0.0,0.0,0.0,0.0,0.0,0.0,0.0,0.0,0.0,0.0,0.0,0.0,0.0,0.0,0.0,0.0,0.0,0.0,0.0,0.0,0.0,0.0,0.0,0.0,0.0,0.0,0.0,0.0,0.0,0.0,0.0,0.0,0.0,0.0,0.0,0.0,0.0,0.0,0.0,0.0,0.0,0.0,0.0,0.0,0.0,0.0,-2.6973,-2.6521,-2.6521,-2.6521,-2.6521,-2.6521,-2.6314,-2.5873,-2.53,-2.5075,0.0,0.0,0.0,0.0,0.0,0.0,0.0,0.0,0.0,0.0,0.0,0.0,0.0,0.0,0.0,0.0,0.0,0.0,0.0,0.0,0.0,0.0,0.0,0.0,0.0,0.0,0.0,0.0,0.0,0.0,0.0,0.0,0.0,0.0,0.0,0.0,0.0,0.0,0.0,0.0,0.0,0.0,-3.2143,-3.326,0.0,0.0,0.0,-3.6308,-3.5985,0.0,0.0,0.0,0.0,0.0,0.0,0.0,0.0,0.0,0.0,0.0,0.0,0.0,0.0,0.0,0.0,0.0,0.0,0.0,0.0,0.0,0.0,0.0,0.0,0.0,0.0,0.0,0.0,0.0,0.0,0.0,0.0,0.0,0.0,0.0,0.0,0.0,0.0,0.0,0.0,0.0,0.0,0.0,0.0,0.0,0.0,0.0,0.0,0.0,0.0,0.0,0.0,0.0,0.0,0.0,0.0,0.0,-2.6533,-2.6521,-2.6521,-2.6521,-2.6521,-2.6521,-2.6452,-2.5721,0.0,0.0,0.0,0.0,0.0,0.0,0.0,0.0,0.0,0.0,0.0,0.0,0.0,0.0,0.0,0.0,0.0,0.0,0.0,0.0,0.0,0.0,0.0,0.0,0.0,0.0,0.0,-2.3531,0.0,0.0,0.0,0.0,0.0,0.0,0.0,0.0,0.0,0.0,0.0,0.0,0.0,0.0,-3.1317,-3.184,-3.3156,-3.4301,0.0,0.0,-3.6054,-3.5667,-3.6568,-3.723,0.0,0.0,0.0,0.0,0.0,0.0,0.0,0.0,0.0,0.0,0.0,0.0,0.0,0.0,0.0,0.0,0.0,0.0,0.0,0.0,0.0,0.0,0.0,0.0,0.0,0.0,0.0,0.0,0.0,0.0,0.0,0.0,0.0,0.0,0.0,0.0,0.0,0.0,0.0,0.0,0.0,0.0,0.0,0.0,0.0,0.0,0.0,0.0,0.0,0.0,0.0,0.0,0.0,0.0,-2.6589,-2.6521,-2.6521,-2.6521,-2.6521,-2.6521,-2.6521,-2.6521,-2.6452,-2.6452,0.0,0.0,0.0,0.0,0.0,0.0,0.0,0.0,0.0,0.0,0.0,0.0,0.0,0.0,0.0,0.0,0.0,0.0,0.0,0.0,0.0,0.0,0.0,0.0,0.0,0.0,0.0,0.0,0.0,0.0,0.0,0.0,0.0,0.0,0.0,0.0,0.0,0.0,0.0,0.0,0.0,-3.336,-3.3411,-3.4592,-3.547,0.0,-3.5605,-3.565,-3.5622,-3.5694,-3.5739,-3.5677,0.0,0.0,0.0,0.0,0.0,0.0,0.0,0.0,0.0,0.0,0.0,0.0,0.0,0.0,0.0,0.0,0.0,0.0,0.0,0.0,0.0,0.0,0.0,0.0,0.0,0.0,0.0,0.0,0.0,0.0,0.0,0.0,0.0,0.0,0.0,0.0,0.0,0.0,0.0,0.0,0.0,0.0,0.0,0.0,0.0,0.0,0.0,0.0,0.0,0.0,0.0,0.0,0.0,-2.6521,-2.6521,-2.6521,-2.6521,-2.6521,-2.6521,-2.6521,-2.6521,-2.6521,-2.6521,0.0,0.0,0.0,0.0,0.0,0.0,0.0,0.0,0.0,0.0,0.0,0.0,0.0,0.0,0.0,0.0,0.0,0.0,0.0,0.0,0.0,0.0,0.0,0.0,0.0,0.0,0.0,0.0,-2.4405,-2.4798,-2.4506,0.0,0.0,0.0,0.0,0.0,0.0,0.0,0.0,0.0,0.0,-3.1886,-3.2879,-3.3802,0.0,0.0,-3.5362,-3.5639,-3.5639,-3.5854,-3.6114,-3.6097,-3.6374,0.0,0.0,0.0,0.0,0.0,0.0,0.0,0.0,0.0,0.0,0.0,0.0,0.0,0.0,0.0,0.0,0.0,0.0,0.0,0.0,0.0,0.0,0.0,0.0,0.0,0.0,0.0,0.0,0.0,0.0,0.0,0.0,0.0,0.0,0.0,0.0,0.0,0.0,0.0,0.0,0.0,0.0,0.0,0.0,0.0,0.0,0.0,0.0,0.0,0.0,0.0,0.0,-2.6521,-2.6521,-2.6521,-2.6521,-2.6521,-2.6521,-2.6521,-2.6521,-2.6521,-2.6521,0.0,0.0,0.0,0.0,0.0,0.0,0.0,0.0,0.0,0.0,0.0,0.0,0.0,0.0,0.0,0.0,0.0,0.0,0.0,0.0,0.0,0.0,0.0,0.0,0.0,0.0,0.0,0.0,-2.4732,-2.5187,-2.5599,0.0,0.0,0.0,0.0,0.0,0.0,0.0,0.0,0.0,0.0,-3.142,-3.2718,-3.3495,-3.4137,-3.4783,-3.5316,-3.5639,-3.5639,-3.5898,-3.6139,-3.6182,0.0,0.0,0.0,0.0,0.0,0.0,0.0,0.0,0.0,0.0,0.0,0.0,0.0,0.0,0.0,0.0,0.0,0.0,0.0,0.0,0.0,0.0,0.0,0.0,0.0,0.0,0.0,-3.2311,0.0,0.0,-3.0412,0.0,0.0,0.0,0.0,0.0,0.0,0.0,0.0,0.0,0.0,0.0,0.0,0.0,0.0,0.0,0.0,0.0,0.0,0.0,0.0,0.0,0.0,-2.6521,-2.6521,-2.6521,-2.6521,-2.6521,-2.6521,-2.6521,-2.6521,-2.6521,-2.6521,-2.6521,0.0,0.0,0.0,0.0,0.0,0.0,0.0,0.0,0.0,0.0,0.0,0.0,0.0,0.0,0.0,0.0,0.0,0.0,0.0,0.0,0.0,0.0,0.0,0.0,0.0,0.0,-2.5065,-2.5272,-2.6174,0.0,0.0,0.0,0.0,0.0,0.0,0.0,0.0,0.0,-3.045,-3.1607,-3.2772,-3.3495,-3.4137,-3.4736,-3.5453,-3.5577,-3.5639,-3.5639,-3.5622,-3.5622,0.0,0.0,0.0,0.0,0.0,0.0,0.0,0.0,0.0,0.0,0.0,0.0,0.0,0.0,0.0,0.0,0.0,0.0,0.0,0.0,0.0,0.0,0.0,0.0,0.0,0.0,0.0,-3.3015,-3.1851,0.0,0.0,0.0,0.0,0.0,0.0,0.0,0.0,0.0,0.0,0.0,-3.0703,-3.097,0.0,0.0,0.0,0.0,0.0,0.0,0.0,0.0,0.0,0.0,0.0,0.0,-2.7027,-2.6521,-2.6521,-2.6521,-2.6521,-2.6521,-2.6521,-2.6521,-2.6521,-2.6521,-2.6521,0.0,0.0,0.0,0.0,0.0,0.0,0.0,0.0,0.0,0.0,0.0,0.0,0.0,0.0,0.0,0.0,0.0,0.0,0.0,0.0,0.0,0.0,0.0,0.0,0.0,-2.8088,0.0,0.0,0.0,0.0,0.0,0.0,0.0,0.0,0.0,0.0,0.0,-2.995,-3.0269,-3.0733,-3.1675,-3.3375,-3.3786,-3.4333,0.0,0.0,0.0,0.0,0.0,0.0,0.0,0.0,0.0,0.0,0.0,0.0,0.0,0.0,-3.4427,-3.4411,-3.3256,-3.2175,-3.1723,0.0,0.0,0.0,0.0,0.0,0.0,0.0,0.0,0.0,0.0,0.0,0.0,0.0,0.0,-3.3337,0.0,-3.162,0.0,0.0,0.0,0.0,0.0,0.0,0.0,0.0,-3.1467,-3.1204,-3.0732,-3.125,-3.125,0.0,-3.097,-3.0837,0.0,0.0,0.0,0.0,0.0,0.0,0.0,0.0,-2.7027,-2.6521,-2.6521,-2.6521,-2.6521,-2.6521,-2.6521,-2.6521,-2.6521,-2.6645,-2.6905,-2.6658,-2.6769,0.0,0.0,0.0,0.0,0.0,0.0,0.0,0.0,0.0,0.0,0.0,0.0,0.0,0.0,0.0,0.0,0.0,0.0,0.0,0.0,0.0,0.0,0.0,-2.8247,0.0,0.0,0.0,0.0,0.0,0.0,0.0,0.0,0.0,-3.0329,-3.0072,-2.995,-3.0269,-3.0733,-3.169,-3.336,0.0,0.0,0.0,0.0,0.0,0.0,0.0,-3.5639,-3.5639,-3.5639,-3.5639,-3.5639,-3.5639,-3.5532,-3.5299,0.0,0.0,-3.379,-3.2222,-3.0822,-3.0572,-2.8697,-2.6956,-2.6413,-2.4093,-2.2094,0.0,0.0,0.0,0.0,0.0,0.0,0.0,0.0,-3.3921,-3.3255,0.0,-3.1849,0.0,0.0,0.0,0.0,-3.1467,-3.1467,0.0,0.0,-3.1467,-3.1467,-3.1497,-3.1501,-3.1486,-3.1424,-3.0718,-3.0389,-3.0343,-3.0343,0.0,0.0,0.0,0.0,0.0,0.0,-2.6589,-2.6521,-2.6496,-2.6508,-2.6521,-2.6521,-2.6521,-2.6533,-2.6589,-2.696,-2.767,-2.704,-2.7364,-2.8939,-2.9505,0.0,0.0,0.0,0.0,0.0,0.0,0.0,0.0,0.0,0.0,0.0,0.0,0.0,0.0,0.0,0.0,0.0,0.0,0.0,0.0,-2.8233,0.0,0.0,0.0,0.0,0.0,0.0,0.0,0.0,0.0,0.0,-3.0208,-3.097,-3.1161,-3.045,0.0,0.0,0.0,0.0,-3.48,-3.547,-3.5639,-3.5639,-3.5639,-3.5639,-3.5639,-3.5639,0.0,0.0,-3.5639,-3.5639,-3.5407,-3.4736,-3.4087,-3.3328,-3.2554,-3.13,-2.9997,-2.9178,-2.7565,-2.6345,-2.599,-2.3201,-2.0574,-3.6097,0.0,0.0,0.0,0.0,-3.5639,-3.5515,-3.5253,-3.4592,-3.3937,-3.3287,-3.2586,0.0,0.0,0.0,0.0,0.0,0.0,-3.1467,-3.1467,-3.1467,-3.1467,-3.1482,-3.147,-3.1528,-3.1467,-3.1278,-3.1161,-3.1146,-3.1161,-3.0703,-2.9936,0.0,0.0,0.0,0.0,-2.8061,-2.6633,-2.6515,-2.6515,-2.6521,-2.6521,-2.6782,-2.7364,-2.7999,-2.8363,-2.862,-2.8441,-2.8492,-2.9002,-2.9699,0.0,0.0,0.0,0.0,0.0,0.0,0.0,0.0,0.0,0.0,0.0,0.0,0.0,0.0,0.0,0.0,0.0,0.0,0.0,-3.0777,-2.9518,-2.9002,0.0,0.0,0.0,0.0,0.0,0.0,0.0,0.0,0.0,-3.0254,-3.0524,-3.0733,0.0,0.0,-3.2407,-3.4071,-3.4087,-3.4301,-3.5407,-3.5639,0.0,-3.5639,-3.5639,-3.5639,-3.5639,-3.5639,-3.5639,-3.5639,-3.5639,-3.5515,-3.5299,-3.4399,-3.3515,-3.3156,-3.1127,-2.9428,-2.8925,-2.7059,-2.5463,-2.5169,-2.2689,-2.043,-3.5898,-3.5639,-3.5639,-3.5639,-3.5639,-3.5639,-3.547,-3.5207,-3.48,-3.4087,-3.3182,-3.2803,-3.2176,-3.1467,-3.1467,0.0,0.0,0.0,-3.1467,-3.1467,-3.1467,-3.1467,-3.1467,-3.1467,-3.1467,-3.1467,-3.1467,-3.1467,-3.1467,-3.1467,-3.1278,-3.0777,0.0,0.0,-2.8989,-2.9094,-2.8592,-2.7524,-2.7275,-2.7262,-2.7471,-2.7484,-2.7736,-2.8168,-2.8748,-2.9129,-2.9504,-2.9192,-2.9303,-2.9964,-3.0208,-3.0464,0.0,0.0,0.0,0.0,0.0,0.0,0.0,0.0,0.0,0.0,0.0,-3.1278,-3.0837,0.0,0.0,0.0,-3.0147,-3.0524,-3.0524,-2.958,0.0,0.0,0.0,0.0,0.0,0.0,0.0,-2.8587,-2.9565,-3.0283,-3.0329,-3.0584,-3.0925,-3.1362,-3.1694,-3.2516,-3.3987,0.0,-3.4382,-3.547,-3.5639,-3.5639,-3.5639,-3.5639,-3.5639,-3.5639,-3.5639,-3.5639,-3.5639,-3.5639,-3.5515,-3.5161,-3.4544,-3.3836,-3.3303,-3.1387,-2.9695,-2.9052,-2.7165,-2.5652,-2.5594,-2.3458,-2.1662,-3.5639,-3.5639,-3.5639,-3.5639,-3.5639,-3.5639,-3.527,-3.4688,-3.4624,-3.3887,-3.2695,-3.2641,-3.216,-3.1524,-3.1467,0.0,-3.1467,-3.1467,-3.1467,-3.1467,-3.1467,-3.1467,-3.1467,-3.1467,-3.1467,-3.1467,-3.1467,-3.1467,-3.1467,-3.1467,-3.1467,-3.1467,-3.0777,-2.995,-2.9101,-2.8587,-2.8601,-2.8989,-2.8565,-2.8579,-2.9002,-2.9066,-2.9115,-2.9129,-2.9192,-2.958,-3.0329,-2.9642,-2.9889,-3.1336,-3.0777,-3.0703,-3.1467,0.0,0.0,0.0,0.0,0.0,0.0,0.0,0.0,0.0,0.0,0.0,0.0,0.0,0.0,0.0,-2.958,0.0,-2.9192,-2.9192,0.0,0.0,0.0,-3.0629,-3.1218,-3.0689,-3.0004,-2.9302,0.0,0.0,-3.0343,-3.1087,-3.1582,-3.1582,-3.2176,-3.2841,-3.3582,-3.4219,-3.483,-3.5515,-3.5639,-3.5639,-3.5639,-3.5639,-3.5639,-3.5639,-3.5639,-3.5639,-3.5639,-3.5639,-3.5316,-3.4878,-3.4592,-3.4137,-3.2879,-3.1814,-3.0675,-2.924,-2.7723,-2.6589,-2.6371,-2.4767,-2.3294,-3.5639,-3.5639,-3.5639,-3.5639,-3.5639,-3.5639,-3.5515,-3.5316,-3.483,-3.412,-3.3323,-3.2841,-3.216,-3.1467,-3.1467,-3.1467,-3.1467,-3.1467,-3.1467,-3.1467,-3.1467,-3.1467,-3.1467,-3.1467,-3.1467,-3.1467,-3.1467,-3.1467,-3.1467,-3.1467,-3.1467,-3.1482,-3.1292,-3.0837,-3.0072,-3.0451,-3.0122,-2.9002,-3.0131,-3.0131,-2.9066,-2.9628,-3.0011,-3.0011,-3.0598,-3.1029,-3.1219,-3.1029,-3.1087,-3.1482,-3.1351,-3.1292,-3.1482,-3.1467,0.0,0.0,0.0,0.0,0.0,0.0,0.0,0.0,0.0,-3.1467,-3.1467,0.0,-3.1146,0.0,-3.0133,-3.0269,-3.0851,-3.0896,0.0,0.0,-3.0837,-3.0764,-2.9719,-2.9992,-3.0476,-3.0889,-3.0534,-3.0283,-3.0283,-3.1507,-3.2327,-3.2327,-3.2477,-3.3039,-3.4186,-3.4479,-3.483,-3.547,-3.5639,-3.5639,-3.5639,-3.5639,-3.5639,-3.5639,-3.5639,-3.5639,-3.5639,-3.5639,-3.5515,-3.5316,-3.4496,-3.377,-3.3391,-3.13,-2.9633,-2.8989,-2.8103,-2.7217,-2.6589,-2.4909,-2.3514,-3.5639,-3.5639,-3.5639,-3.5639,-3.5639,-3.5639,-3.5639,-3.556,-3.5207,-3.464,-3.3987,-3.3039,-3.2382,-3.1951,-3.164,-3.1697,-3.1951,-3.164,-3.1467,-3.1467,-3.1467,-3.1467,-3.1467,-3.1467,-3.1467,-3.1467,-3.1467,-3.1467,-3.1467,-3.1467,-3.1467,-3.1467,-3.1467,-3.1278,-3.0837,-3.1278,-3.1014,-3.0147,-3.1011,-3.1071,-3.0162,-3.0584,-3.0822,-3.0822,-3.1278,-3.1467,-3.1467,-3.1467,-3.1467,-3.1524,-3.1796,-3.1838,-3.1524,-3.1781,-3.1853,0.0,0.0,0.0,0.0,0.0,0.0,0.0,0.0,0.0,0.0,0.0,-3.1278,-3.0837,-3.0524,-3.0644,-3.1409,-3.1161,-3.0911,-3.0851,-3.0896,-3.0734,-3.0161,-3.0543,-3.0999,-3.1427,-3.1117,-3.094,-3.1304,-3.2059,-3.2749,-3.3002,-3.3287,-3.3735,-3.4431,-3.4592,-3.4847,-3.547,-3.5639,-3.5639,-3.5639,-3.5639,-3.5639,-3.5639,-3.5639,-3.5639,-3.5639,-3.5639,-3.5639,-3.5577,-3.4958,-3.4301,-3.3684,-3.2322,-3.072,-2.9289,-2.862,-2.7855,-2.6714,-2.5288,-2.412,-3.5639,-3.5639,-3.5639,-3.5639,-3.5639,-3.5639,-3.5639,-3.5639,-3.5639,-3.5207,-3.4528,-3.3287,-3.2749,-3.2695,-3.2064,-3.2064,-3.2532,-3.2007,-3.1739,-3.164,-3.1739,-3.1796,-3.1724,-3.1796,-3.1796,-3.1781,-3.1781,-3.1796,-3.1796,-3.1796,-3.1781,-3.1781,-3.1739,-3.1796,-3.1724,-3.1577,-3.1519,-3.1524,-3.1467,-3.1467,-3.1467,-3.1467,-3.1467,-3.1467,-3.1467,-3.1467,-3.1467,-3.1467,-3.1495,-3.1507,-3.2201,-3.2327,-3.1712,-3.2327,-3.2367,0.0,-3.1582,0.0,0.0,0.0,0.0,0.0,0.0,0.0,0.0,-3.1467,-3.1467,-3.1467,-3.0851,-3.0718,-3.1424,-3.0896,-3.0703,-3.1394,-3.0896,-3.0703,-3.1424,-3.1467,-3.1467,-3.1467,-3.1467,-3.1796,-3.2437,-3.2641,-3.3002,-3.3649,-3.4301,-3.4688,-3.4736,-3.4783,-3.5005,-3.5515,-3.5639,-3.5639,-3.5639,-3.5639,-3.5639,-3.5639,-3.5639,-3.5639,-3.5639,-3.5639,-3.5639,-3.5577,-3.5362,-3.4864,-3.3786,-3.336,-3.2103,-2.9524,-2.8812,-2.8247,-2.6837,-2.5511,-2.4564,-3.5639,-3.5639,-3.5639,-3.5639,-3.5639,-3.5639,-3.5639,-3.5639,-3.5639,-3.5207,-3.4528,-3.3786,-3.3407,-3.3391,-3.3287,-3.2986,-3.2641,-3.3039,-3.2933,-3.2453,-3.2986,-3.3182,-3.3182,-3.3219,-3.3235,-3.3235,-3.3235,-3.3166,-3.3182,-3.3182,-3.3235,-3.3182,-3.3166,-3.3235,-3.3135,0.0,0.0,0.0,-3.1467,-3.1467,-3.1467,-3.1467,-3.1467,-3.1467,-3.1467,0.0,-3.1467,-3.1467,-3.1516,-3.153,-3.2222,0.0,0.0,0.0,0.0,0.0,0.0,0.0,0.0,0.0,0.0,0.0,-3.1467,-3.1467,-3.1467,-3.1467,-3.1467,-3.1467,-3.1351,-3.1351,-3.1467,-3.1336,-3.1351,-3.1467,-3.1336,-3.1336,-3.1482,-3.1467,-3.1467,-3.1467,-3.1467,-3.1796,-3.2547,-3.3039,-3.3633,-3.4333,-3.5005,-3.5362,-3.5407,-3.5362,-3.547,-3.5577,-3.5639,-3.5639,-3.5639,-3.5639,-3.5639,-3.5639,-3.5639,-3.5639,-3.5639,-3.5639,-3.5577,-3.5577,-3.4704,-3.3987,-3.3582,-3.2204,-3.0734,-2.924,-2.8427,-2.767,-2.6645,-2.5063,-2.3734,-3.5639,-3.5639,-3.5639,-3.5639,0.0,-3.5639,-3.5639,-3.5639,-3.5639,-3.5207,-3.4576,-3.4235,-3.4087,-3.4071,-3.3735,-3.3598,-3.3582,-3.3582,-3.3443,-3.313,-3.3443,-3.3582,-3.3582,-3.3582,-3.3582,-3.3582,-3.3582,-3.3582,-3.3582,-3.3582,-3.3582,-3.3582,-3.3582,-3.3582,-3.3566,-3.2914,-3.2552,-3.2555,-3.2571,-3.2501,-3.2555,-3.2501,-3.2501,-3.2555,-3.2571,0.0,0.0,0.0,0.0,0.0,0.0,0.0,0.0,-3.3899,0.0,-3.261,-3.2879,-3.2933,-3.2555,-3.2216,-3.2064,-3.2007,-3.1682,-3.1467,-3.1467,-3.1467,-3.1467,-3.1467,-3.1467,-3.1467,-3.1467,-3.1467,-3.1467,-3.1467,-3.1467,-3.1467,-3.1467,-3.1467,-3.1467,-3.1467,-3.1467,-3.1894,-3.2933,-3.3339,-3.4053,-3.4911,-3.5362,-3.5639,-3.5639,-3.5639,-3.5639,-3.5639,-3.5639,-3.5639,-3.5639,-3.5639,-3.5639,-3.5639,-3.5639,-3.5639,-3.5639,-3.5639,-3.5532,-3.5161,-3.4544,-3.3937,-3.3182,-3.2155,-3.094,-2.9428,-2.862,-2.7934,-2.6782,-2.5652,-2.4612,-3.5639,-3.5639,-3.5639,-3.5639,-3.5639,-3.5639,-3.5639,-3.5639,-3.5639,0.0,0.0,-3.4783,-3.4783,-3.4736,-3.4186,-3.4186,-3.4528,-3.4137,-3.3887,-3.3786,-3.3903,-3.3937,-3.3937,-3.3937,-3.3937,-3.3937,-3.3953,-3.3953,-3.3953,-3.3953,-3.3937,-3.3937,-3.3937,-3.3953,-3.3937,-3.3937,-3.3953,-3.3937,-3.3751,-3.3582,-3.3582,-3.3582,-3.3582,-3.3582,-3.3582,-3.3582,-3.3582,-3.3093,-3.2767,-3.2676,-3.3361,-3.3998,-3.4524,-3.4676,-3.4447,-3.3684,-3.3684,-3.3735,-3.3582,-3.2986,-3.2532,-3.2437,-3.1853,-3.1467,-3.1467,-3.1467,-3.1467,-3.1467,-3.1467,-3.1467,-3.1467,-3.1467,-3.1467,-3.1467,-3.1467,-3.1467,-3.1467,-3.1467,-3.1612,-3.1787,-3.1856,-3.2201,-3.3566,-3.3786,-3.4202,-3.527,-3.5577,-3.5639,-3.5639,-3.5639,-3.5639,-3.5639,-3.5639,-3.5639,-3.5639,-3.5639,-3.5639,-3.5639,-3.5639,-3.5639,-3.5639,-3.5639,-3.5362,-3.4783,-3.4528,-3.3887,-3.2895,-3.2382,-3.1637,-2.9554,-2.9091,-2.8682,-2.7242,-2.6753,-2.6168,-3.5639,-3.5639,-3.5639,-3.5639,-3.5639,-3.5639,-3.5639,-3.5639,-3.5639,-3.556,-3.547,-3.547,-3.5453,-3.547,-3.5362,-3.5052,-3.4624,-3.5098,-3.5005,-3.4479,-3.5052,-3.5316,-3.5316,-3.5316,-3.5333,-3.5299,-3.5333,-3.5316,-3.5316,-3.5316,-3.5316,-3.5316,-3.5316,-3.5316,-3.5316,-3.5316,-3.5316,-3.5316,-3.4186,-3.3582,-3.3582,-3.3582,-3.3582,-3.3582,-3.3649,-3.3582,-3.3582,-3.3531,-3.2905,-3.1806,-3.3437,-3.4725,-3.5364,-3.5459,-3.4911,-3.3735,-3.4137,-3.4219,-3.3633,-3.3002,-3.2327,-3.1739,-3.1539,-3.1467,-3.1467,-3.1467,-3.1467,-3.1467,-3.1467,-3.1467,-3.1467,-3.1467,-3.1524,-3.1524,-3.1524,-3.1524,-3.148,-3.1552,-3.2016,-3.302,-3.2803,-3.2933,-3.4137,-3.4431,-3.4688,-3.5424,-3.5639,-3.5639,-3.5639,-3.5639,-3.5639,-3.5639,-3.5639,-3.5639,-3.5639,-3.5639,-3.5639,-3.5639,-3.5639,-3.5639,-3.5639,-3.5639,-3.5316,-3.4671,-3.4169,-3.3543,-3.2742,-3.2064,-3.1279,-2.9973,-2.9711,-2.9254,-2.8061,-2.7783,-2.7309,-3.5639,-3.5639,-3.5639,-3.5639,-3.5639,-3.5639,-3.5639,-3.5639,-3.5639,-3.5639,-3.5639,-3.5639,-3.5639,-3.5639,-3.5639,-3.5424,-3.5161,-3.547,-3.5407,-3.5191,-3.547,-3.5639,-3.5639,-3.5639,-3.5639,-3.5639,-3.5639,-3.5639,-3.5639,-3.5639,-3.5639,-3.5639,-3.5639,-3.5639,-3.5639,-3.5639,-3.5639,-3.5577,-3.5005,-3.4688,-3.4704,-3.4704,-3.4704,-3.4704,-3.4657,-3.4704,-3.4657,-3.435,-3.4039,-3.3746,-3.4277,-3.4883,-3.5555,-3.5633,-3.5316,-3.4752,-3.4958,-3.5005,-3.4704,-3.4037,-3.3244,-3.2323,-3.2517,-3.2742,-3.3006,-3.2083,-3.1467,-3.1467,-3.1467,-3.1467,-3.1467,-3.1467,-3.1625,-3.2064,-3.1738,-3.148,-3.1558,-3.1975,-3.2609,-3.3419,-3.3324,-3.3547,-3.4496,-3.4592,-3.483,-3.547,-3.5639,-3.5639,-3.5639,-3.5639,-3.5639,-3.5639,-3.5639,-3.5639,-3.5639,-3.5639,-3.5639,-3.5639,-3.5639,-3.5639,-3.5639,-3.5639,-3.5195,-3.4333,-3.4076,-3.3719,-3.2824,-3.2657,-3.1904,-3.0718,-3.0331,-2.9807,-2.8613,-2.8323,-2.7792,-3.5639,-3.5639,-3.5639,-3.5639,-3.5639,-3.5639,-3.5639,-3.5639,-3.5639,-3.5639,-3.5639,-3.5639,-3.5639,-3.5639,-3.5639,-3.5639,-3.5639,-3.5639,-3.5622,-3.5639,-3.5639,-3.5639,-3.5639,-3.5639,-3.5639,-3.5639,-3.5639,-3.5639,-3.5639,-3.5639,-3.5639,-3.5639,-3.5639,-3.5639,-3.5639,-3.5639,-3.5639,-3.5639,-3.5639,-3.5639,-3.5639,-3.5639,-3.5639,-3.5639,-3.5577,-3.5639,-3.5577,-3.5098,-3.5052,-3.5515,-3.5115,-3.5035,-3.5577,-3.5639,-3.5639,-3.5639,-3.5639,-3.5515,-3.5362,-3.4894,-3.4186,-3.316,-3.3403,-3.3729,-3.3954,-3.2858,-3.1992,-3.1992,-3.2033,-3.1992,-3.2048,-3.2033,-3.2201,-3.2718,-3.2315,-3.2073,-3.2096,-3.2847,-3.3652,-3.3982,-3.3901,-3.4087,-3.464,-3.4847,-3.5052,-3.547,-3.5639,-3.5639,-3.5639,-3.5723,-3.5893,-3.5893,-3.5893,-3.5926,-3.5893,-3.6113,-3.6197,-3.6084,-3.618,-3.6282,-3.6265,-3.6197,-3.5602,-3.4635,-3.4526,-3.425,-3.3152,-3.308,-3.2713,-3.1391,-3.0937,-3.0458,-2.8979,-2.885,-2.828,-3.5622,-3.5639,-3.5667,-3.5639,-3.5667,-3.5667,-3.5667,-3.5667,-3.5639,-3.5639,-3.565,-3.5639,-3.5622,-3.5639,-3.5639,-3.5639,-3.5622,-3.5639,-3.5622,-3.5622,-3.5639,-3.5639,-3.5667,-3.5622,-3.5639,-3.5605,-3.5622,-3.5639,-3.5639,-3.5639,-3.5639,-3.5639,-3.5639,-3.5639,-3.5639,-3.5639,-3.5639,-3.5639,-3.5639,-3.5639,-3.5639,-3.5639,-3.5639,-3.5639,-3.5639,-3.5639,-3.5622,-3.5532,-3.5532,-3.5577,-3.5532,-3.5515,-3.5577,-3.5639,-3.5639,-3.5639,-3.5639,-3.5362,-3.4783,-3.4624,-3.4317,-3.3652,-3.3601,-3.37,-3.3748,-3.3563,-3.3427,-3.3391,-3.3375,-3.3271,-3.3375,-3.3323,-3.3323,-3.3427,-3.3332,-3.3399,-3.3553,-3.4533,-3.5362,-3.5414,-3.4806,-3.4752,-3.5316,-3.5407,-3.547,-3.5577,-3.5639,-3.5639,-3.5673,-3.6079,-3.6485,-3.6586,-3.6671,-3.6671,-3.6721,-3.7263,-3.7415,-3.755,-3.7652,-3.7516,-3.7449,-3.7435,-3.7168,-3.5489,-3.5486,-3.5046,-3.3968,-3.3453,-3.3084,-3.1912,-3.139,-3.1007,-2.996,-2.9616,-2.8741,-3.6054,-3.6079,-3.6416,-3.6563,-3.6563,-3.6545,-3.6563,-3.6539,-3.653,-3.6554,-3.6557,-3.653,-3.6208,-3.5639,-3.5639,-3.5639,-3.5622,-3.5941,-3.6054,-3.6097,-3.6416,-3.6563,-3.6504,-3.6207,-3.6071,-3.6011,-3.5739,-3.5639,-3.5639,-3.5622,-3.5639,-3.5639,-3.5639,-3.5639,-3.5639,-3.5639,-3.5639,-3.5639,-3.5639,-3.5639,-3.5639,-3.5639,-3.5639,-3.5639,-3.5639,-3.5639,-3.5639,-3.5639,-3.5639,-3.5639,-3.5639,-3.5639,-3.5639,-3.5639,-3.5639,-3.5639,-3.5639,-3.547,-3.5207,-3.5207,-3.5052,-3.4816,-3.4752,-3.4816,-3.4752,-3.4816,-3.4752,-3.4704,-3.4087,-3.3582,-3.3633,-3.3582,-3.3719,-3.4054,-3.3843,-3.3893,-3.4736,-3.5243,-3.5599,-3.5555,-3.5388,-3.5253,-3.5532,-3.5639,-3.5639,-3.5639,-3.5639,-3.5639,-3.5656,-3.591,-3.6265,-3.6721,-3.7144,-3.7432,-3.7483,-3.7669,-3.7922,-3.7939,-3.7922,-3.7922,-3.7973,-3.7922,-3.7402,-3.5959,-3.6078,-3.5681,-3.4363,-3.4379,-3.4227,-3.2778,-3.1057,-3.0387,-2.9908,-2.9792,-2.887,-3.6392,-3.6498,-3.6981,-3.719,-3.719,-3.719,-3.719,-3.7188,-3.722,-3.7206,-3.7208,-3.72,-3.6766,-3.6097,-3.6054,-3.6054,-3.6079,-3.644,-3.6603,-3.6661,-3.7038,-3.719,-3.7152,-3.6803,-3.6603,-3.6563,-3.6249,-3.6054,-3.6054,-3.6054,-3.6037,-3.6054,-3.6054,-3.6054,-3.6054,-3.6054,-3.6037,-3.6037,-3.6037,-3.5968,-3.5854,-3.581,-3.5739,-3.5622,-3.5639,-3.5639,-3.5639,-3.5639,-3.5639,-3.5639,-3.5639,-3.5639,-3.5639,-3.5639,-3.5639,-3.5639,-3.5639,-3.5639,-3.5639,-3.5639,-3.5639,-3.5639,-3.5639,-3.5639,-3.5639,-3.5639,-3.5639,-3.5532,-3.4721,-3.4202,-3.4153,-3.4137,-3.4399,-3.4767,-3.4421,-3.4609,-3.5419,-3.5639,-3.5611,-3.5639,-3.5594,-3.5639,-3.5639,-3.5639,-3.5639,-3.5639,-3.5639,-3.5639,-3.569,-3.5825,-3.6214,-3.6705,-3.7415,-3.7939,-3.8159,-3.8497,-3.8464,-3.8514,-3.8616,-3.8633,-3.8449,-3.8417,-3.792,-3.6957,-3.6837,-3.6256,-3.5167,-3.5126,-3.4714,-3.2961,-3.1193,-2.9908,-2.9779,-2.9779,-2.904,-3.6392,-3.6498,-3.6981,-3.7266,-3.7228,-3.7266,-3.7228,-3.7321,-3.7242,-3.7246,-3.7285,-3.7255,-3.7183,-3.7135,-3.7135,-3.7135,-3.7114,-3.7152,-3.7173,-3.7173,-3.7228,-3.7228,-3.719,-3.719,-3.719,-3.7152,-3.7038,-3.702,-3.7058,-3.7097,-3.7152,-3.7097,-3.702,-3.7076,-3.702,-3.7038,-3.7114,-3.702,-3.7038,-3.6825,-3.6457,-3.6392,-3.6139,-3.5739,-3.5622,-3.5667,-3.5622,-3.5622,-3.5622,-3.5622,-3.5622,-3.5639,-3.5639,-3.5639,-3.5639,-3.5639,-3.5639,-3.5639,-3.5639,-3.5639,-3.5639,-3.5639,-3.5639,-3.5639,-3.5639,-3.5639,-3.5639,-3.5622,-3.547,-3.5379,-3.5379,-3.527,-3.5379,-3.547,-3.5498,-3.5481,-3.556,-3.5639,-3.5639,-3.5639,-3.5639,-3.5639,-3.5639,-3.5639,-3.5639,-3.5639,-3.5639,-3.5622,-3.5735,-3.6226,-3.6615,-3.6869,-3.7428,-3.8108,-3.8802,-3.8903,-3.9428,-3.9377,-3.9022,-3.9665,-3.9682,-3.9406,-3.8494,-3.7737,-3.7069,-3.6368,-3.5755,-3.5037,-3.4245,-3.2763,-3.1057,-2.9998,-2.9779,-2.9779,-2.8949,-3.7285,-3.7861,-3.8101,-3.8168,-3.8168,-3.8168,-3.8168,-3.8186,-3.8176,-3.8158,-3.8168,-3.8158,-3.8143,-3.8168,-3.8168,-3.7791,-3.7248,-3.7506,-3.7649,-3.7685,-3.8016,-3.8168,-3.8135,-3.7808,-3.7649,-3.7614,-3.736,-3.719,-3.719,-3.719,-3.719,-3.719,-3.719,-3.719,-3.719,-3.719,-3.719,-3.7228,-3.719,-3.7097,-3.6943,-3.6921,-3.6786,-3.6626,-3.6274,-3.6097,-3.6114,-3.6114,-3.6097,-3.6114,-3.5783,-3.5639,-3.5639,-3.5639,-3.5639,-3.5639,-3.5639,-3.5639,-3.5639,-3.5639,-3.5639,-3.5639,-3.5639,-3.5639,-3.5639,-3.5639,-3.5639,-3.5639,-3.5639,-3.5639,-3.5639,-3.5639,-3.5639,-3.5639,-3.5639,-3.5639,-3.5639,-3.5639,-3.5639,-3.5639,-3.5639,-3.5639,-3.5639,-3.5639,-3.5639,-3.5639,-3.5639,-3.5739,-3.6002,-3.6144,-3.6333,-3.6966,-3.7251,-3.7449,-3.8193,-3.843,-3.8633,-3.865,-3.8633,-3.8886,-3.8958,-3.8583,-3.7709,-3.7455,-3.6864,-3.6136,-3.5434,-3.4245,-3.3478,-3.2263,-3.0482,-2.9921,-2.9779,-2.9443,-2.853,-3.7791,-3.8627,-3.8707,-3.8707,-3.8707,-3.8707,-3.8707,-3.8707,-3.8707,-3.8707,-3.8707,-3.8707,-3.8707,-3.8707,-3.8707,-3.835,-3.7738,-3.7998,-3.815,-3.8183,-3.8546,-3.8707,-3.8627,-3.835,-3.815,-3.8099,-3.7861,-3.7685,-3.7685,-3.7685,-3.7685,-3.7685,-3.7685,-3.7685,-3.7685,-3.7685,-3.7667,-3.7685,-3.7685,-3.7632,-3.747,-3.7415,-3.734,-3.7228,-3.6981,-3.6786,-3.6643,-3.6498,-3.6392,-3.635,-3.5915,-3.5639,-3.5639,-3.5639,-3.5639,-3.5639,-3.5639,-3.5639,-3.5639,-3.5639,-3.5639,-3.5639,-3.5639,-3.5639,-3.5639,-3.5639,-3.5639,-3.5639,-3.5639,-3.5639,-3.5639,-3.5639,-3.5639,-3.5639,-3.5639,-3.5639,-3.5639,-3.5639,-3.5639,-3.5639,-3.5639,-3.5639,-3.5622,-3.5639,-3.5639,-3.5639,-3.5739,-3.5985,-3.6011,-3.6071,-3.599,-3.6688,-3.6559,-3.6615,-3.6941,-3.711,-3.7787,-3.7922,-3.799,-3.821,-3.8151,-3.7665,-3.7248,-3.7022,-3.6526,-3.578,-3.4809,-3.3559,-3.2464,-3.1402,-3.0558,-2.9856,-2.9443,-2.8858,-2.7947,-3.7773,-3.8627,-3.8707,-3.8707,-3.8707,-3.8707,-3.8707,-3.8707,-3.8707,-3.8707,-3.8707,-3.8707,-3.8707,-3.8707,-3.8707,-3.8658,-3.8596,-3.8578,-3.8627,-3.8627,-3.8658,-3.8707,-3.8707,-3.8658,-3.8627,-3.8627,-3.8658,-3.8627,-3.8564,-3.8546,-3.8546,-3.8627,-3.8546,-3.8515,-3.8627,-3.8564,-3.8627,-3.8596,-3.8546,-3.835,-3.798,-3.7911,-3.772,-3.7414,-3.7667,-3.7649,-3.7266,-3.6724,-3.6516,-3.6451,-3.5898,-3.5622,-3.5667,-3.5739,-3.565,-3.5694,-3.5667,-3.5622,-3.5639,-3.5639,-3.5639,-3.5639,-3.5639,-3.5639,-3.5639,-3.5639,-3.5639,-3.5639,-3.5639,-3.5639,-3.5639,-3.5639,-3.5639,-3.5639,-3.5639,-3.5639,-3.5639,-3.5622,-3.5622,-3.5667,-3.5694,-3.5622,-3.5605,-3.5694,-3.5739,-3.5783,-3.6097,-3.6308,-3.6054,-3.6182,-3.6114,-3.5922,-3.5898,-3.6028,-3.5859,-3.5757,-3.6637,-3.7347,-3.7466,-3.757,-3.7366,-3.6969,-3.6356,-3.6087,-3.5672,-3.4961,-3.3883,-3.2737,-3.215,-3.1193,-3.0419,-2.9779,-2.9443,-2.8858,-2.7695,-3.8065,-3.8676,-3.8707,-3.8707,-3.8707,-3.8707,-3.8707,-3.8707,-3.8707,-3.8707,-3.8707,-3.8707,-3.8707,-3.8707,-3.8707,-3.8707,-3.8707,-3.8707,-3.8707,-3.8719,-3.8707,-3.8707,-3.8707,-3.8707,-3.8707,-3.8707,-3.8707,-3.8707,-3.8707,-3.8707,-3.8707,-3.8707,-3.8707,-3.8707,-3.8707,-3.8707,-3.8707,-3.8707,-3.8707,-3.8578,-3.8465,-3.8446,-3.835,-3.8267,-3.8382,-3.835,-3.8201,-3.7396,-3.7069,-3.7228,-3.6225,-3.5783,-3.6139,-3.6481,-3.6522,-3.6224,-3.6139,-3.5941,-3.565,-3.5639,-3.5639,-3.5639,-3.5639,-3.5639,-3.5639,-3.5639,-3.5639,-3.5639,-3.5639,-3.5639,-3.5639,-3.5639,-3.5622,-3.5639,-3.5639,-3.5622,-3.5711,-3.5958,-3.6139,-3.6139,-3.6139,-3.6139,-3.6139,-3.6122,-3.6097,-3.6207,-3.6603,-3.6825,-3.6724,-3.6457,-3.6392,-3.6182,-3.5958,-3.5639,-3.5639,-3.5639,-3.6062,-3.6552,-3.6705,-3.6891,-3.6678,-3.6091,-3.5485,-3.5014,-3.4621,-3.3928,-3.2876,-3.229,-3.1757,-3.0944,-3.0037,-2.9677,-2.9611,-2.87,-2.7383,-3.8925,-3.9148,-3.9148,-3.8982,-3.8726,-3.8707,-3.8707,-3.8707,-3.8707,-3.8707,-3.8719,-3.8785,-3.8844,-3.8884,-3.8952,-3.9055,-3.9055,-3.9036,-3.9036,-3.897,-3.878,-3.8707,-3.8707,-3.8707,-3.8707,-3.8707,-3.8707,-3.8707,-3.8707,-3.8707,-3.8707,-3.8707,-3.8707,-3.8707,-3.8707,-3.8707,-3.8707,-3.8707,-3.8707,-3.8707,-3.8707,-3.8707,-3.8707,-3.8707,-3.8707,-3.8707,-3.8645,-3.7895,-3.7541,-3.7484,-3.6591,-3.6253,-3.6666,-3.6981,-3.696,-3.6539,-3.635,-3.6156,-3.5711,-3.5639,-3.5639,-3.5639,-3.5639,-3.5639,-3.5639,-3.5639,-3.5639,-3.5639,-3.5639,-3.5667,-3.581,-3.5694,-3.5694,-3.5898,-3.5694,-3.5694,-3.5854,-3.6182,-3.6481,-3.6563,-3.6522,-3.6522,-3.6603,-3.6457,-3.6539,-3.6684,-3.7135,-3.721,-3.7058,-3.6764,-3.6563,-3.6308,-3.5827,-3.5622,-3.5639,-3.5639,-3.5639,-3.5757,-3.5859,-3.6079,-3.6127,-3.5086,-3.4313,-3.3954,-3.3593,-3.2922,-3.198,-3.2027,-3.1656,-3.0695,-2.9591,-2.9677,-2.9456,-2.7959,-2.6719,-4.0177,-3.9992,-3.9955,-3.957,-3.8982,-3.8891,-3.8872,-3.8799,-3.875,-3.8732,-3.8803,-3.9027,-3.9125,-3.9186,-3.9364,-3.9524,-3.9576,-3.9529,-3.9505,-3.9377,-3.9091,-3.8833,-3.8862,-3.8803,-3.8773,-3.8762,-3.8719,-3.8707,-3.8707,-3.8707,-3.8707,-3.8707,-3.8707,-3.8707,-3.8707,-3.8707,-3.8707,-3.8707,-3.8707,-3.8707,-3.8707,-3.8707,-3.8707,-3.8707,-3.8707,-3.8707,-3.8627,-3.8216,-3.7857,-3.7593,-3.7127,-3.7011,-3.7175,-3.7248,-3.7135,-3.6701,-3.6539,-3.6291,-3.5881,-3.5854,-3.5854,-3.5854,-3.5854,-3.5694,-3.5854,-3.5898,-3.5898,-3.5898,-3.5854,-3.5968,-3.6249,-3.6097,-3.6037,-3.6308,-3.6011,-3.5985,-3.6374,-3.6498,-3.6825,-3.7058,-3.6843,-3.6701,-3.7173,-3.6843,-3.6865,-3.7173,-3.7614,-3.7506,-3.6943,-3.6746,-3.6545,-3.6165,-3.5711,-3.5622,-3.5639,-3.5639,-3.5639,-3.5639,-3.5622,-3.5707,-3.5609,-3.4562,-3.3562,-3.3131,-3.2721,-3.1951,-3.1387,-3.143,-3.0831,-2.952,-2.9227,-2.9578,-2.8888,-2.7348,-2.6367,-4.0866,-4.0781,-4.0799,-4.0671,-4.0396,-3.9863,-3.957,-3.954,-3.9164,-3.9027,-3.9082,-3.9314,-3.9481,-3.9462,-3.9576,-3.9599,-3.9645,-3.9622,-3.9599,-3.9576,-3.9476,-3.9396,-3.9301,-3.9109,-3.8999,-3.8971,-3.8833,-3.8707,-3.8707,-3.8707,-3.8707,-3.8707,-3.8707,-3.8707,-3.8707,-3.8707,-3.8707,-3.8707,-3.8707,-3.8707,-3.8707,-3.8707,-3.8707,-3.8707,-3.8707,-3.8707,-3.8707,-3.8578,-3.8065,-3.7452,-3.7936,-3.8007,-3.7791,-3.8032,-3.7982,-3.7542,-3.747,-3.7285,-3.6865,-3.6764,-3.6746,-3.6786,-3.6666,-3.6786,-3.6803,-3.6764,-3.6803,-3.6803,-3.6803,-3.6786,-3.6904,-3.6825,-3.6865,-3.6882,-3.6522,-3.6457,-3.6904,-3.7323,-3.756,-3.7685,-3.756,-3.756,-3.7614,-3.7578,-3.7488,-3.7738,-3.8032,-3.8065,-3.7285,-3.696,-3.6825,-3.6079,-3.5622,-3.5622,-3.5639,-3.5639,-3.5639,-3.5639,-3.5622,-3.5594,-3.5228,-3.4464,-3.3575,-3.285,-3.2521,-3.1924,-3.1077,-3.0618,-2.9451,-2.8724,-2.8799,-2.905,-2.8161,-2.6909,-2.6068,-4.1919,-4.1607,-4.1607,-4.1423,-4.1093,-4.0598,-4.0473,-4.0466,-3.9881,-3.9709,-3.9833,-3.98,-3.9797,-3.9819,-3.9944,-3.9984,-3.9984,-3.9984,-3.9984,-3.9984,-3.9984,-3.9842,-3.9622,-3.9383,-3.9314,-3.9264,-3.8999,-3.8865,-3.8826,-3.8762,-3.8707,-3.8707,-3.8707,-3.8707,-3.8707,-3.8707,-3.8707,-3.8707,-3.8707,-3.8707,-3.8707,-3.8707,-3.8707,-3.8707,-3.8707,-3.8707,-3.8707,-3.8707,-3.8318,-3.7862,-3.8215,-3.8573,-3.8303,-3.8515,-3.8465,-3.7946,-3.7893,-3.7685,-3.7323,-3.719,-3.719,-3.719,-3.719,-3.719,-3.719,-3.719,-3.719,-3.7152,-3.719,-3.7285,-3.747,-3.7506,-3.7506,-3.747,-3.7193,-3.7173,-3.747,-3.7685,-3.798,-3.8099,-3.8065,-3.8032,-3.8183,-3.8047,-3.8047,-3.8216,-3.8433,-3.805,-3.7396,-3.7266,-3.696,-3.6207,-3.5968,-3.6054,-3.6097,-3.6097,-3.5871,-3.5827,-3.5639,-3.5577,-3.5115,-3.4447,-3.3614,-3.2843,-3.2403,-3.1782,-3.0763,-3.0011,-2.9457,-2.8974,-2.8784,-2.8313,-2.7593,-2.6767,-2.5965,-4.3075,-4.2415,-4.2415,-4.2044,-4.1507,-4.1323,-4.1496,-4.1595,-4.0959,-4.0691,-4.0749,-4.044,-4.0292,-4.0158,-4.0321,-4.0473,-4.0473,-4.0406,-4.0438,-4.0422,-4.0389,-4.0212,-3.9821,-3.969,-3.9645,-3.9599,-3.9314,-3.916,-3.9072,-3.8884,-3.8762,-3.8762,-3.875,-3.8707,-3.8707,-3.8707,-3.8707,-3.8707,-3.8707,-3.8707,-3.8707,-3.8707,-3.8707,-3.8707,-3.8707,-3.8707,-3.8707,-3.8658,-3.8465,-3.8032,-3.8446,-3.8645,-3.8676,-3.8707,-3.8496,-3.815,-3.8065,-3.7877,-3.7487,-3.7487,-3.7414,-3.7487,-3.7451,-3.736,-3.747,-3.7524,-3.7524,-3.756,-3.7377,-3.7667,-3.7911,-3.798,-3.798,-3.798,-3.7946,-3.798,-3.798,-3.798,-3.8165,-3.8578,-3.8267,-3.83,-3.8382,-3.8364,-3.815,-3.8382,-3.8515,-3.7982,-3.7487,-3.7266,-3.6921,-3.6416,-3.6416,-3.6643,-3.6684,-3.6684,-3.6333,-3.6054,-3.5756,-3.5532,-3.5115,-3.4447,-3.3649,-3.2989,-3.2613,-3.1588,-3.024,-2.965,-2.929,-2.8605,-2.7944,-2.7871,-2.7607,-2.6777,-2.5893,-4.3406,-4.324,-4.324,-4.3295,-4.3268,-4.2723,-4.2623,-4.2881,-4.2356,-4.1762,-4.1358,-4.1358,-4.1023,-4.0444,-4.0511,-4.0489,-4.0489,-4.0489,-4.0489,-4.0489,-4.0489,-4.0457,-4.0248,-4.0082,-4.0002,-3.9922,-3.9626,-3.9486,-3.9414,-3.9178,-3.9008,-3.8999,-3.8873,-3.8707,-3.8719,-3.8732,-3.8707,-3.8707,-3.8707,-3.8707,-3.8707,-3.8707,-3.8707,-3.8707,-3.8707,-3.8707,-3.8707,-3.8707,-3.8627,-3.8578,-3.8627,-3.8707,-3.8707,-3.8707,-3.8627,-3.8546,-3.8496,-3.8433,-3.8368,-3.8285,-3.835,-3.8285,-3.8252,-3.835,-3.835,-3.8318,-3.8318,-3.8368,-3.8368,-3.835,-3.8433,-3.8496,-3.8465,-3.8465,-3.8465,-3.8496,-3.8496,-3.8496,-3.8564,-3.8627,-3.8596,-3.8578,-3.8658,-3.8609,-3.8546,-3.8627,-3.8318,-3.7861,-3.756,-3.7285,-3.7058,-3.6764,-3.6904,-3.7097,-3.7002,-3.6825,-3.6333,-3.6071,-3.5783,-3.5577,-3.5161,-3.4688,-3.3937,-3.3391,-3.2857,-3.1618,-3.0179,-2.9345,-2.8947,-2.8076,-2.7253,-2.6971,-2.6737,-2.6217,-2.5552,-4.3479,-4.3513,-4.3679,-4.3836,-4.3942,-4.3736,-4.3849,-4.3971,-4.345,-4.3004,-4.2584,-4.2168,-4.1546,-4.1066,-4.07,-4.0489,-4.0489,-4.0489,-4.0489,-4.0489,-4.0489,-4.0489,-4.0489,-4.0372,-4.0286,-4.0232,-3.9983,-3.984,-3.9735,-3.9529,-3.9314,-3.9314,-3.9189,-3.9045,-3.8894,-3.8865,-3.8815,-3.8719,-3.8707,-3.8707,-3.8707,-3.8707,-3.8707,-3.8707,-3.8707,-3.8707,-3.8707,-3.8707,-3.8707,-3.8707,-3.8707,-3.8707,-3.8707,-3.8707,-3.8707,-3.8707,-3.8707,-3.8707,-3.8707,-3.8707,-3.8658,-3.8707,-3.8707,-3.8707,-3.8707,-3.8707,-3.8707,-3.8707,-3.8676,-3.8707,-3.8707,-3.8707,-3.8707,-3.8707,-3.8707,-3.8707,-3.8707,-3.8707,-3.8707,-3.8707,-3.8676,-3.8658,-3.8707,-3.8707,-3.8707,-3.8658,-3.8627,-3.8201,-3.7843,-3.7614,-3.7542,-3.7396,-3.747,-3.747,-3.7342,-3.6964,-3.6224,-3.5941,-3.5711,-3.5639,-3.547,-3.4894,-3.4333,-3.3684,-3.2986,-3.1804,-3.0466,-2.96,-2.8684,-2.7894,-2.713,-2.6454,-2.5769,-2.5452,-2.4655,-4.3513,-4.3597,-4.3881,-4.4058,-4.4204,-4.4535,-4.4815,-4.4987,-4.4416,-4.4116,-4.4013,-4.2739,-4.22,-4.1662,-4.1066,-4.0681,-4.0508,-4.0489,-4.0489,-4.0489,-4.0489,-4.0489,-4.0489,-4.0473,-4.0457,-4.0473,-4.0267,-4.0139,-4.0062,-3.9861,-3.9668,-3.9668,-3.9599,-3.9408,-3.9231,-3.9141,-3.8998,-3.8826,-3.873,-3.8695,-3.8689,-3.8707,-3.8707,-3.8707,-3.8707,-3.8707,-3.8707,-3.8707,-3.8707,-3.8707,-3.8707,-3.8707,-3.8707,-3.8707,-3.8707,-3.8707,-3.8707,-3.8707,-3.8707,-3.8707,-3.8707,-3.8707,-3.8707,-3.8707,-3.8707,-3.8707,-3.8707,-3.8707,-3.8707,-3.8707,-3.8707,-3.8707,-3.8707,-3.8707,-3.8707,-3.8707,-3.8707,-3.8707,-3.8707,-3.8707,-3.8707,-3.8707,-3.8707,-3.8707,-3.8707,-3.8676,-3.8627,-3.8496,-3.8132,-3.7893,-3.779,-3.7843,-3.7929,-3.7596,-3.7396,-3.6925,-3.6224,-3.5871,-3.5639,-3.5639,-3.5577,-3.5005,-3.4382,-3.3735,-3.2902,-3.1732,-3.0645,-2.9614,-2.8748,-2.7868,-2.7134,-2.6395,-2.5648,-2.4804,-2.3966,-4.366,-4.3943,-4.3986,-4.4327,-4.4877,-4.4988,-4.5182,-4.5495,-4.5283,-4.4897,-4.4316,-4.397,-4.2989,-4.2104,-4.172,-4.12,-4.0642,-4.0489,-4.0489,-4.0489,-4.0489,-4.0489,-4.0489,-4.0489,-4.0489,-4.0489,-4.0406,-4.0389,-4.0319,-4.0157,-4.0022,-3.9943,-3.9775,-3.9599,-3.9515,-3.9373,-3.9202,-3.8971,-3.8776,-3.8709,-3.8713,-3.8707,-3.8707,-3.8707,-3.8707,-3.8707,-3.8707,-3.8707,-3.8707,-3.8707,-3.8707,-3.8707,-3.8707,-3.8707,-3.8707,-3.8707,-3.8707,-3.8707,-3.8707,-3.8707,-3.8707,-3.8707,-3.8707,-3.8689,-3.8719,-3.8719,-3.8732,-3.8732,-3.8719,-3.8738,-3.8707,-3.8707,-3.8707,-3.8707,-3.8707,-3.8707,-3.8707,-3.8707,-3.8707,-3.8707,-3.8707,-3.8707,-3.8707,-3.8707,-3.8707,-3.8627,-3.8496,-3.8433,-3.8183,-3.8032,-3.7946,-3.8117,-3.8318,-3.7861,-3.7414,-3.6803,-3.6182,-3.5827,-3.5639,-3.5639,-3.5424,-3.5005,-3.4382,-3.3735,-3.2917,-3.1931,-3.0822,-2.9752,-2.8748,-2.7934,-2.7162,-2.6452,-2.5703,-2.4931,-2.4208,-4.3849,-4.4028,-4.4382,-4.4762,-4.5096,-4.5283,-4.5438,-4.5586,-4.5586,-4.5374,-4.4932,-4.447,-4.3643,-4.2604,-4.195,-4.1316,-4.0681,-4.0489,-4.0489,-4.0489,-4.0489,-4.0489,-4.0489,-4.0489,-4.0489,-4.0489,-4.0489,-4.0489,-4.0489,-4.0353,-4.0304,-4.0267,-4.012,-4.0004,-3.9844,-3.9707,-3.9421,-3.9144,-3.8848,-3.8702,-3.8701,-3.8707,-3.8707,-3.8707,-3.8707,-3.8707,-3.8707,-3.8707,-3.8707,-3.8707,-3.8707,-3.8707,-3.8689,-3.8719,-3.8689,-3.8719,-3.8689,-3.8689,-3.8707,-3.8707,-3.8707,-3.8707,-3.8689,-3.8773,-3.8855,-3.8923,-3.8894,-3.8894,-3.8894,-3.8844,-3.8719,-3.8707,-3.8707,-3.8707,-3.8707,-3.8707,-3.8707,-3.8707,-3.8707,-3.8707,-3.8707,-3.8707,-3.8707,-3.8707,-3.8707,-3.8578,-3.8415,-3.835,-3.8267,-3.8234,-3.8183,-3.8117,-3.8168,-3.756,-3.7114,-3.6603,-3.6139,-3.5783,-3.5639,-3.5639,-3.5362,-3.4894,-3.4333,-3.3735,-3.2902,-3.1962,-3.1013,-2.9889,-2.8939,-2.8051,-2.7484,-2.6824,-2.5931,-2.5158,-2.4337,-4.4146,-4.429,-4.4834,-4.5118,-4.5243,-4.5476,-4.5586,-4.5586,-4.5586,-4.5586,-4.549,-4.4874,-4.4047,-4.3028,-4.2008,-4.1123,-4.0508,-4.0489,-4.0489,-4.0489,-4.0489,-4.0489,-4.0489,-4.0489,-4.0489,-4.0489,-4.0489,-4.0489,-4.0489,-4.0473,-4.0489,-4.0457,-4.0489,-4.0425,-4.0194,-4.0062,-3.9681,-3.9331,-3.8861,-3.8711,-3.8718,-3.8707,-3.8707,-3.8707,-3.8707,-3.8707,-3.8707,-3.8707,-3.8762,-3.8773,-3.8803,-3.8833,-3.8873,-3.8873,-3.8892,-3.8862,-3.8762,-3.8701,-3.8773,-3.8803,-3.8873,-3.897,-3.8865,-3.898,-3.9117,-3.9205,-3.9178,-3.9107,-3.9072,-3.8961,-3.8762,-3.8707,-3.8707,-3.8707,-3.8707,-3.8707,-3.8707,-3.8707,-3.8707,-3.8707,-3.8707,-3.8707,-3.8707,-3.8707,-3.8707,-3.8707,-3.8546,-3.8546,-3.8496,-3.8546,-3.8465,-3.8168,-3.7861,-3.719,-3.6684,-3.6374,-3.5985,-3.5694,-3.5622,-3.5639,-3.527,-3.4847,-3.4252,-3.3633,-3.2664,-3.1751,-3.0925,-3.0133,-2.9192,-2.8376,-2.7789,-2.7136,-2.6208,-2.53,-2.4492,-4.4707,-4.4966,-4.5052,-4.5263,-4.5513,-4.5586,-4.5586,-4.5586,-4.5586,-4.5586,-4.5586,-4.5336,-4.4451,-4.297,-4.1373,-4.0681,-4.0543,-4.0519,-4.0519,-4.0504,-4.0519,-4.0519,-4.0489,-4.0489,-4.0489,-4.0489,-4.0489,-4.0489,-4.0489,-4.0489,-4.0489,-4.0489,-4.0489,-4.0473,-4.0406,-4.0351,-4.0266,-3.9868,-3.9131,-3.8738,-3.8741,-3.878,-3.878,-3.875,-3.878,-3.8792,-3.8822,-3.8833,-3.8873,-3.9054,-3.9063,-3.9205,-3.9432,-3.9481,-3.9481,-3.9327,-3.9073,-3.8803,-3.8999,-3.9082,-3.9171,-3.9308,-3.9289,-3.9349,-3.9472,-3.9557,-3.9467,-3.9107,-3.9133,-3.9063,-3.8873,-3.8732,-3.8719,-3.8762,-3.8833,-3.8773,-3.8732,-3.8931,-3.8902,-3.8732,-3.8762,-3.8719,-3.8689,-3.8707,-3.8707,-3.8707,-3.8707,-3.8707,-3.8707,-3.8707,-3.8496,-3.815,-3.7861,-3.721,-3.662,-3.6266,-3.5941,-3.5667,-3.5622,-3.5577,-3.5316,-3.4894,-3.4153,-3.3391,-3.2516,-3.1838,-3.1248,-3.045,-2.9442,-2.8556,-2.7802,-2.7162,-2.6508,-2.5581,-2.4564,-4.514,-4.5118,-4.5283,-4.5476,-4.5586,-4.5586,-4.5586,-4.5586,-4.5586,-4.5586,-4.549,-4.5028,-4.3932,-4.2371,-4.0989,-4.0508,-4.0519,-4.0588,-4.0574,-4.0545,-4.0554,-4.0568,-4.0519,-4.0489,-4.0489,-4.0504,-4.0489,-4.0489,-4.0489,-4.0489,-4.0489,-4.0489,-4.0489,-4.0489,-4.0489,-4.0489,-4.0339,-4.0005,-3.9545,-3.9231,-3.9212,-3.9208,-3.9189,-3.9208,-3.9208,-3.9181,-3.9181,-3.9216,-3.9268,-3.9383,-3.9408,-3.9438,-3.9576,-3.9599,-3.9599,-3.9576,-3.9377,-3.9275,-3.9383,-3.9408,-3.9505,-3.9534,-3.9547,-3.9588,-3.984,-3.9984,-3.9964,-3.969,-3.9668,-3.9505,-3.9268,-3.9216,-3.9216,-3.9189,-3.9082,-3.8915,-3.8915,-3.9136,-3.9189,-3.898,-3.8785,-3.8803,-3.8762,-3.8707,-3.8707,-3.8707,-3.8707,-3.8707,-3.8707,-3.8707,-3.8415,-3.798,-3.772,-3.7379,-3.6803,-3.6308,-3.6028,-3.5783,-3.5622,-3.5577,-3.5407,-3.4911,-3.4087,-3.3443,-3.2788,-3.2145,-3.1552,-3.0584,-2.9504,-2.862,-2.7683,-2.7095,-2.6508,-2.5581,-2.4492,-4.5457,-4.5243,-4.5495,-4.5586,-4.5586,-4.5586,-4.5586,-4.5586,-4.5586,-4.5586,-4.5297,-4.4506,-4.3192,-4.1957,-4.1031,-4.0563,-4.0584,-4.0665,-4.066,-4.0636,-4.066,-4.0672,-4.061,-4.0577,-4.0559,-4.0545,-4.05,-4.0504,-4.0489,-4.0489,-4.0489,-4.0489,-4.0489,-4.0489,-4.0489,-4.0473,-4.0392,-4.0215,-3.988,-3.9671,-3.9595,-3.9571,-3.9576,-3.9576,-3.9599,-3.9599,-3.9599,-3.9576,-3.9576,-3.9731,-3.9731,-3.9775,-3.9882,-3.9905,-3.9924,-3.9905,-3.9842,-3.9842,-3.9821,-3.98,-3.9797,-3.98,-3.9842,-3.9965,-4.0157,-4.0408,-4.0372,-4.0023,-4.0022,-3.988,-3.9709,-3.9576,-3.9529,-3.9486,-3.943,-3.9239,-3.9083,-3.932,-3.957,-3.96,-3.9351,-3.8933,-3.8884,-3.878,-3.8707,-3.8707,-3.8707,-3.8707,-3.8676,-3.8658,-3.8332,-3.7928,-3.7825,-3.7452,-3.6786,-3.635,-3.6071,-3.5871,-3.5667,-3.5424,-3.5207,-3.4688,-3.3887,-3.3339,-3.2895,-3.1946,-3.1014,-3.0329,-2.9628,-2.8748,-2.7855,-2.7162,-2.6427,-2.5499,-2.4264,-4.5586,-4.5549,-4.5586,-4.5586,-4.5586,-4.5586,-4.5586,-4.5586,-4.5586,-4.5526,-4.5139,-4.3926,-4.275,-4.1944,-4.1136,-4.071,-4.0768,-4.0805,-4.0779,-4.0779,-4.0796,-4.0768,-4.0733,-4.0699,-4.066,-4.0655,-4.0582,-4.0515,-4.0504,-4.0504,-4.0504,-4.0489,-4.0489,-4.0489,-4.0489,-4.0489,-4.0485,-4.0367,-4.0158,-3.9922,-3.9775,-3.969,-3.969,-3.9668,-3.9645,-3.9599,-3.9622,-3.969,-3.9819,-4.0042,-4.0062,-4.0139,-4.0248,-4.0283,-4.0266,-4.0283,-4.0283,-4.0283,-4.0248,-4.0157,-4.0213,-4.0336,-4.037,-4.0336,-4.0389,-4.0457,-4.0356,-4.0157,-4.0177,-4.0042,-3.9797,-3.9622,-3.9757,-3.9759,-3.9783,-3.9697,-3.9554,-3.9479,-3.9743,-4.0042,-3.9833,-3.9283,-3.8923,-3.8762,-3.8707,-3.8707,-3.8707,-3.8707,-3.8596,-3.8546,-3.8216,-3.7928,-3.7893,-3.7488,-3.6684,-3.6333,-3.6266,-3.5941,-3.5667,-3.5316,-3.4958,-3.4284,-3.3684,-3.3077,-3.2516,-3.1549,-3.0569,-2.9936,-2.924,-2.8734,-2.7973,-2.6947,-2.607,-2.5217,-2.3891,-4.5586,-4.5586,-4.5586,-4.5586,-4.5586,-4.5586,-4.5586,-4.5586,-4.5586,-4.4977,-4.4081,-4.2969,-4.2043,-4.1371,-4.106,-4.077,-4.0809,-4.0883,-4.087,-4.0857,-4.0864,-4.0844,-4.0828,-4.0788,-4.0771,-4.0732,-4.0653,-4.0623,-4.0623,-4.053,-4.0504,-4.0489,-4.0489,-4.0489,-4.0489,-4.0489,-4.0499,-4.0485,-4.0396,-4.0267,-4.0212,-4.0157,-4.0157,-4.0157,-4.0157,-4.0157,-4.0157,-4.0157,-4.023,-4.0302,-4.0339,-4.0406,-4.0473,-4.0489,-4.0489,-4.0489,-4.0489,-4.0489,-4.0489,-4.0408,-4.0406,-4.0441,-4.0489,-4.0489,-4.0489,-4.0489,-4.0454,-4.0353,-4.0319,-4.0194,-4.0212,-4.0157,-4.0193,-4.0138,-4.0082,-4.0042,-4.0003,-3.9908,-3.9823,-4.0094,-3.9787,-3.9338,-3.9008,-3.878,-3.8719,-3.8707,-3.8707,-3.8676,-3.8596,-3.8515,-3.8216,-3.7962,-3.7893,-3.7415,-3.6643,-3.6498,-3.644,-3.6011,-3.5639,-3.5316,-3.4894,-3.4153,-3.3531,-3.2864,-3.2185,-3.1276,-3.0389,-2.9566,-2.8862,-2.8298,-2.7458,-2.6427,-2.5581,-2.485,-2.3661,-4.5586,-4.5586,-4.5586,-4.5586,-4.5586,-4.5586,-4.5637,-4.561,-4.5359,-4.4413,-4.2927,-4.2313,-4.1675,-4.1071,-4.087,-4.0908,-4.0955,-4.1019,-4.0992,-4.0992,-4.1,-4.0992,-4.092,-4.085,-4.0796,-4.0768,-4.0688,-4.0623,-4.061,-4.0549,-4.0504,-4.0489,-4.0489,-4.0489,-4.0489,-4.0489,-4.0489,-4.0489,-4.0489,-4.0489,-4.0473,-4.0473,-4.0473,-4.0438,-4.0438,-4.0438,-4.0422,-4.0406,-4.0422,-4.0457,-4.0473,-4.0489,-4.0489,-4.0489,-4.0489,-4.0489,-4.0489,-4.0504,-4.0504,-4.0489,-4.0489,-4.0489,-4.0489,-4.0489,-4.0489,-4.0489,-4.0473,-4.0489,-4.0489,-4.0489,-4.0489,-4.0422,-4.0406,-4.0334,-4.0334,-4.0321,-4.0323,-4.0267,-4.012,-4.0112,-3.9766,-3.9571,-3.9189,-3.896,-3.875,-3.8719,-3.8707,-3.8707,-3.8658,-3.8546,-3.8382,-3.8099,-3.7893,-3.7268,-3.6603,-3.6498,-3.6374,-3.5941,-3.5577,-3.5362,-3.4911,-3.4153,-3.3391,-3.2826,-3.2018,-3.1116,-3.0208,-2.9254,-2.8556,-2.7868,-2.7027,-2.6245,-2.5288,-2.4552,-2.3588,-4.5586,-4.5586,-4.5603,-4.5584,-4.5543,-4.5603,-4.5661,-4.5485,-4.475,-4.3685,-4.2473,-4.211,-4.1735,-4.1219,-4.1026,-4.1033,-4.1113,-4.1152,-4.1152,-4.1152,-4.1133,-4.1172,-4.1082,-4.0964,-4.0896,-4.076,-4.0701,-4.0642,-4.054,-4.0545,-4.0515,-4.0489,-4.0489,-4.0489,-4.0489,-4.0489,-4.0489,-4.0489,-4.0489,-4.0489,-4.0489,-4.0489,-4.0489,-4.0489,-4.0489,-4.0489,-4.0489,-4.0489,-4.0489,-4.0489,-4.0489,-4.0489,-4.0489,-4.0489,-4.0489,-4.0489,-4.0519,-4.0519,-4.0519,-4.0504,-4.0515,-4.0504,-4.0489,-4.0489,-4.0489,-4.0489,-4.0489,-4.0489,-4.0489,-4.0489,-4.0489,-4.0489,-4.0489,-4.0489,-4.0489,-4.0489,-4.0495,-4.0499,-4.0326,-4.0214,-4.0099,-3.9941,-3.95,-3.9154,-3.8862,-3.875,-3.8689,-3.8707,-3.8707,-3.8627,-3.8465,-3.815,-3.7859,-3.7305,-3.6724,-3.6498,-3.6266,-3.5827,-3.5532,-3.5362,-3.4847,-3.4087,-3.3391,-3.2788,-3.1921,-3.1014,-2.9964,-2.8939,-2.8312,-2.7683,-2.704,-2.6245,-2.5217,-2.4337,-2.3514,-4.5586,-4.5603,-4.5692,-4.5409,-4.4989,-4.5486,-4.5452,-4.4756,-4.3646,-4.274,-4.2256,-4.1765,-4.1433,-4.1209,-4.1152,-4.1152,-4.1191,-4.1191,-4.1191,-4.1191,-4.1191,-4.1191,-4.1152,-4.1103,-4.1049,-4.1019,-4.0909,-4.0752,-4.0713,-4.0641,-4.0554,-4.0515,-4.053,-4.0489,-4.0489,-4.0489,-4.0489,-4.0489,-4.0489,-4.0489,-4.0489,-4.0489,-4.0489,-4.0489,-4.0489,-4.0489,-4.0489,-4.0489,-4.0489,-4.0504,-4.0504,-4.0519,-4.0519,-4.0519,-4.0519,-4.053,-4.0574,-4.066,-4.0699,-4.0692,-4.0629,-4.0563,-4.0515,-4.0515,-4.0504,-4.0489,-4.0489,-4.0504,-4.0519,-4.0519,-4.0489,-4.0489,-4.0489,-4.0489,-4.0489,-4.0489,-4.0508,-4.0492,-4.0427,-4.0348,-4.0272,-3.996,-3.9599,-3.9249,-3.8952,-3.8792,-3.8762,-3.8689,-3.8707,-3.8627,-3.8515,-3.815,-3.779,-3.7268,-3.6825,-3.6539,-3.6199,-3.5756,-3.547,-3.5316,-3.4752,-3.4037,-3.3391,-3.2734,-3.1864,-3.0911,-2.9766,-2.8684,-2.8117,-2.7484,-2.6918,-2.6164,-2.5217,-2.4552,-2.3963,-4.4778,-4.4793,-4.4918,-4.4649,-4.4289,-4.5056,-4.4788,-4.3714,-4.2729,-4.2187,-4.1841,-4.1387,-4.1211,-4.1211,-4.1191,-4.1191,-4.1191,-4.1191,-4.1191,-4.1191,-4.1191,-4.1191,-4.1191,-4.1151,-4.108,-4.1101,-4.0996,-4.0864,-4.0796,-4.0752,-4.0699,-4.0641,-4.061,-4.0629,-4.0591,-4.0563,-4.0489,-4.0489,-4.0489,-4.0489,-4.0489,-4.0489,-4.0489,-4.0489,-4.0489,-4.0489,-4.0489,-4.0504,-4.0504,-4.05,-4.0511,-4.0574,-4.0588,-4.059,-4.0597,-4.0648,-4.0676,-4.0762,-4.0788,-4.0785,-4.0732,-4.0692,-4.063,-4.059,-4.0577,-4.0597,-4.059,-4.0596,-4.0588,-4.0574,-4.0554,-4.0574,-4.0515,-4.0515,-4.0519,-4.0519,-4.0485,-4.0504,-4.0492,-4.0421,-4.0367,-4.0021,-3.9668,-3.9358,-3.9027,-3.8913,-3.8803,-3.8732,-3.8707,-3.8658,-3.8546,-3.8183,-3.7825,-3.7342,-3.6865,-3.6498,-3.6114,-3.5667,-3.547,-3.5362,-3.4704,-3.4037,-3.3391,-3.2625,-3.1549,-3.051,-2.9317,-2.8427,-2.767,-2.7162,-2.6782,-2.6013,-2.5146,-2.4409,-2.3745,-4.324,-4.3233,-4.3365,-4.3439,-4.3517,-4.4137,-4.3643,-4.2358,-4.2339,-4.1894,-4.123,-4.125,-4.1191,-4.1191,-4.1191,-4.1191,-4.1191,-4.1191,-4.1191,-4.1191,-4.1191,-4.1191,-4.1172,-4.1123,-4.1101,-4.0996,-4.093,-4.092,-4.0836,-4.0796,-4.0788,-4.0788,-4.0761,-4.0742,-4.0703,-4.0633,-4.0568,-4.054,-4.0568,-4.0568,-4.054,-4.054,-4.0549,-4.0563,-4.0563,-4.0549,-4.0549,-4.0549,-4.0535,-4.0544,-4.061,-4.068,-4.0749,-4.0761,-4.0796,-4.0801,-4.0801,-4.0816,-4.0864,-4.087,-4.0883,-4.0887,-4.0848,-4.0781,-4.0722,-4.0722,-4.0692,-4.0699,-4.0684,-4.0684,-4.0684,-4.063,-4.0554,-4.054,-4.0526,-4.0511,-4.0496,-4.05,-4.0504,-4.0495,-4.0479,-4.023,-3.9778,-3.9432,-3.9171,-3.8952,-3.8833,-3.875,-3.8707,-3.8707,-3.8546,-3.8267,-3.7877,-3.7415,-3.702,-3.658,-3.6097,-3.5694,-3.556,-3.5362,-3.4704,-3.4087,-3.3495,-3.2633,-3.1304,-3.0179,-2.9442,-2.8298,-2.704,-2.6726,-2.6645,-2.5569,-2.4636,-2.3661,-2.285,-4.3335,-4.3374,-4.35,-4.3187,-4.2607,-4.2334,-4.2236,-4.2301,-4.1836,-4.1367,-4.1191,-4.1191,-4.1191,-4.1191,-4.1191,-4.1191,-4.1191,-4.1191,-4.1191,-4.1191,-4.1191,-4.1191,-4.1191,-4.1152,-4.1152,-4.1133,-4.1074,-4.1019,-4.095,-4.087,-4.0809,-4.0793,-4.0831,-4.0824,-4.0813,-4.0752,-4.069,-4.0653,-4.0688,-4.0665,-4.0653,-4.0676,-4.0679,-4.0682,-4.0682,-4.069,-4.0682,-4.0682,-4.0643,-4.0558,-4.0684,-4.0829,-4.1071,-4.091,-4.0816,-4.0944,-4.0955,-4.0988,-4.1055,-4.1074,-4.1074,-4.1094,-4.1074,-4.0996,-4.0889,-4.0824,-4.0801,-4.0788,-4.079,-4.079,-4.0781,-4.0722,-4.0668,-4.0645,-4.0622,-4.0533,-4.0539,-4.0538,-4.053,-4.0534,-4.0534,-4.0336,-3.9903,-3.9622,-3.9352,-3.9073,-3.8873,-3.8762,-3.8707,-3.8707,-3.8496,-3.8234,-3.7946,-3.7524,-3.7079,-3.6643,-3.6165,-3.5722,-3.565,-3.5407,-3.48,-3.4186,-3.3633,-3.2656,-3.126,-3.048,-2.995,-2.8634,-2.6905,-2.6676,-2.6526,-2.5252,-2.412,-2.322,-2.2178,-4.2441,-4.2474,-4.26,-4.2327,-4.1841,-4.1387,-4.1504,-4.1797,-4.1406,-4.1191,-4.1191,-4.1191,-4.1191,-4.1191,-4.1191,-4.1191,-4.1191,-4.1191,-4.1191,-4.1191,-4.1191,-4.1191,-4.1191,-4.1191,-4.1191,-4.1191,-4.1191,-4.1129,-4.1074,-4.1016,-4.0964,-4.0983,-4.0957,-4.0957,-4.0979,-4.0959,-4.0902,-4.0848,-4.0816,-4.079,-4.0779,-4.0788,-4.0785,-4.0809,-4.0809,-4.0809,-4.0809,-4.0809,-4.0743,-4.0661,-4.0804,-4.0974,-4.1162,-4.1042,-4.0964,-4.1077,-4.108,-4.1105,-4.1152,-4.1172,-4.1191,-4.1191,-4.1191,-4.1133,-4.1069,-4.1012,-4.095,-4.0908,-4.0896,-4.089,-4.0857,-4.0824,-4.0809,-4.0793,-4.0703,-4.0597,-4.0593,-4.0587,-4.0584,-4.0582,-4.05,-4.0336,-4.0082,-3.9819,-3.9481,-3.9144,-3.8884,-3.875,-3.8707,-3.8707,-3.8465,-3.8132,-3.7911,-3.7631,-3.7155,-3.6603,-3.6165,-3.5783,-3.5667,-3.5316,-3.4847,-3.4333,-3.3836,-3.2678,-3.123,-3.0556,-2.9997,-2.8363,-2.6892,-2.6731,-2.6296,-2.511,-2.3963,-2.2999,-2.1962,-4.1039,-4.1101,-4.1133,-4.1308,-4.1211,-4.1191,-4.1211,-4.1191,-4.1211,-4.1191,-4.1191,-4.1191,-4.1191,-4.1191,-4.1191,-4.1191,-4.1191,-4.1191,-4.1191,-4.1191,-4.1191,-4.1191,-4.1191,-4.1191,-4.1191,-4.1191,-4.1191,-4.1191,-4.1191,-4.1152,-4.1133,-4.1191,-4.1172,-4.1152,-4.1133,-4.1133,-4.1074,-4.0996,-4.0939,-4.089,-4.085,-4.0843,-4.0824,-4.0857,-4.0857,-4.0857,-4.0857,-4.085,-4.0843,-4.0877,-4.0944,-4.1078,-4.113,-4.1182,-4.117,-4.1172,-4.1172,-4.1172,-4.1191,-4.1191,-4.1191,-4.1191,-4.1191,-4.1191,-4.1152,-4.1133,-4.1055,-4.1016,-4.1023,-4.1019,-4.0996,-4.0964,-4.0955,-4.0939,-4.089,-4.0782,-4.0703,-4.0662,-4.0578,-4.0588,-4.0534,-4.0372,-4.0158,-3.9859,-3.9576,-3.9205,-3.8971,-3.8833,-3.8707,-3.8707,-3.8415,-3.8047,-3.756,-3.7268,-3.6825,-3.6333,-3.6071,-3.5827,-3.5667,-3.547,-3.5098,-3.4592,-3.4037,-3.2823,-3.1573,-3.0527,-2.9648,-2.8155,-2.7149,-2.6879,-2.6239,-2.4981,-2.3963,-2.3073,-2.1649,-4.115,-4.115,-4.1191,-4.1191,-4.1191,-4.1191,-4.1191,-4.1191,-4.1191,-4.1191,-4.1191,-4.1191,-4.1191,-4.1191,-4.1191,-4.1191,-4.1191,-4.1191,-4.1191,-4.1191,-4.1191,-4.1191,-4.1191,-4.1191,-4.1191,-4.1191,-4.1191,-4.1191,-4.1191,-4.1191,-4.1191,-4.1191,-4.1191,-4.1191,-4.1191,-4.1191,-4.1172,-4.1113,-4.1094,-4.1016,-4.0979,-4.1052,-4.1105,-4.1094,-4.1094,-4.1074,-4.1074,-4.1094,-4.1094,-4.1126,-4.1128,-4.1169,-4.119,-4.1191,-4.1191,-4.1191,-4.1172,-4.1152,-4.1152,-4.1152,-4.1152,-4.1172,-4.1191,-4.1191,-4.1191,-4.1191,-4.1191,-4.1152,-4.1133,-4.1133,-4.1133,-4.1113,-4.1094,-4.1094,-4.1078,-4.0953,-4.0816,-4.0713,-4.0597,-4.0574,-4.0534,-4.0372,-4.0177,-3.9922,-3.9664,-3.9408,-3.9152,-3.8961,-3.8773,-3.8658,-3.8332,-3.7911,-3.7079,-3.6666,-3.6374,-3.6182,-3.5985,-3.5783,-3.5622,-3.547,-3.5299,-3.4688,-3.3987,-3.3066,-3.1967,-3.0749,-2.9572,-2.8349,-2.7537,-2.7149,-2.6333,-2.5134,-2.4337,-2.3514,-2.1704,-4.1191,-4.1191,-4.1191,-4.1191,-4.1191,-4.1191,-4.1191,-4.1191,-4.1191,-4.1191,-4.1191,-4.1191,-4.1191,-4.1191,-4.1191,-4.1191,-4.1191,-4.1191,-4.1191,-4.1191,-4.1191,-4.1191,-4.1191,-4.1191,-4.1191,-4.1191,-4.1191,-4.1191,-4.1191,-4.1191,-4.1191,-4.1191,-4.1191,-4.1191,-4.1191,-4.1191,-4.1191,-4.1191,-4.1191,-4.1133,-4.1064,-4.1151,-4.1191,-4.1191,-4.1191,-4.1191,-4.1191,-4.1191,-4.1133,-4.1064,-4.0994,-4.0984,-4.098,-4.0996,-4.1,-4.0996,-4.0996,-4.1023,-4.1026,-4.103,-4.1049,-4.1052,-4.1035,-4.0996,-4.0996,-4.0996,-4.1113,-4.1094,-4.1172,-4.1172,-4.1172,-4.1152,-4.1152,-4.1152,-4.1133,-4.1052,-4.09,-4.0746,-4.0682,-4.063,-4.0588,-4.0473,-4.0286,-4.012,-3.9861,-3.9731,-3.9481,-3.9125,-3.8923,-3.864,-3.8332,-3.7998,-3.7323,-3.6684,-3.6416,-3.6224,-3.6028,-3.5827,-3.5667,-3.5316,-3.5035,-3.4544,-3.3871,-3.2801,-3.1743,-3.0557,-2.9372,-2.8349,-2.7802,-2.7417,-2.6389,-2.5288,-2.4624,-2.3734,-2.1855,-4.1191,-4.1191,-4.1191,-4.1191,-4.1191,-4.1191,-4.1191,-4.1191,-4.1191,-4.1191,-4.1191,-4.1191,-4.1191,-4.1191,-4.1191,-4.1191,-4.1191,-4.1191,-4.1191,-4.1191,-4.1191,-4.1191,-4.1191,-4.1191,-4.1191,-4.1191,-4.1191,-4.1191,-4.1191,-4.1191,-4.1191,-4.1191,-4.1191,-4.1172,-4.1191,-4.1172,-4.1133,-4.1133,-4.1133,-4.1113,-4.113,-4.1152,-4.1152,-4.1172,-4.117,-4.1169,-4.1152,-4.1113,-4.1016,-4.0957,-4.0844,-4.0812,-4.0838,-4.0864,-4.0857,-4.0857,-4.0864,-4.0857,-4.085,-4.0857,-4.085,-4.0836,-4.0793,-4.0793,-4.0821,-4.0883,-4.0979,-4.1035,-4.1113,-4.1191,-4.1172,-4.1191,-4.1191,-4.1152,-4.1113,-4.111,-4.0941,-4.0792,-4.0731,-4.0696,-4.0623,-4.0549,-4.0406,-4.025,-4.012,-3.9983,-3.9731,-3.9383,-3.9036,-3.8737,-3.8415,-3.83,-3.8016,-3.7377,-3.6701,-3.635,-3.6182,-3.5958,-3.5783,-3.5237,-3.4736,-3.4284,-3.3566,-3.2439,-3.136,-3.0482,-2.951,-2.8478,-2.7986,-2.755,-2.6688,-2.5652,-2.4552,-2.3588,-2.1931,-4.1191,-4.1191,-4.1191,-4.1191,-4.1191,-4.1191,-4.1191,-4.1191,-4.1191,-4.1191,-4.1191,-4.1191,-4.1191,-4.1191,-4.1191,-4.1191,-4.1191,-4.1191,-4.1191,-4.1191,-4.1191,-4.1191,-4.1191,-4.1172,-4.1191,-4.1172,-4.1152,-4.1172,-4.1113,-4.1152,-4.1191,-4.1172,-4.1055,-4.108,-4.115,-4.1077,-4.0955,-4.0988,-4.0959,-4.092,-4.0944,-4.0983,-4.1026,-4.1016,-4.0944,-4.0908,-4.0879,-4.0879,-4.0883,-4.0843,-4.0782,-4.0738,-4.074,-4.076,-4.077,-4.0742,-4.0751,-4.077,-4.0761,-4.0742,-4.0742,-4.0751,-4.0742,-4.077,-4.0779,-4.0768,-4.0843,-4.0883,-4.0957,-4.1094,-4.1113,-4.1152,-4.1152,-4.1035,-4.0976,-4.0976,-4.0912,-4.0817,-4.0754,-4.0732,-4.068,-4.0596,-4.05,-4.037,-4.0304,-4.012,-3.9859,-3.9505,-3.9205,-3.8857,-3.8496,-3.8465,-3.8433,-3.7948,-3.7228,-3.6643,-3.6374,-3.6139,-3.5854,-3.5283,-3.4688,-3.4087,-3.3255,-3.2345,-3.1577,-3.0719,-2.9737,-2.8492,-2.8051,-2.755,-2.6905,-2.6013,-2.4838,-2.3588,-2.2081]},{"header":{"parameterUnit":"m.s-1","parameterCategory":1,"la1":31.0,"la2":29.5877,"lo1":-88.7671,"lo2":-86.6584,"dy":0.0162,"dx":0.0185,"nx":115,"ny":88,"refTime":"2023-08-19T12:00:00:Z","depth":0,"parameterNumber":3,"parameterNumberName":"V-component_of_WINDS"},"data":[0.0,0.0,0.0,0.0,0.0,0.0,0.0,0.0,0.0,0.0,0.0,0.0,0.0,0.0,0.0,0.0,0.0,0.0,0.0,0.0,0.0,0.0,0.0,0.0,0.0,0.0,0.0,0.0,0.0,0.0,0.0,0.0,0.0,0.0,0.0,0.0,0.0,0.0,0.0,0.0,0.0,0.0,0.0,0.0,0.0,0.0,0.0,0.0,0.0,0.0,0.0,0.0,0.0,0.0,0.0,0.0,0.0,0.0,0.0,0.0,0.0,0.0,0.0,0.0,0.0,0.0,0.0,0.0,0.0,0.0,0.0,0.0,0.0,0.0,0.0,0.0,0.0,0.0,0.0,0.0,0.0,0.0,0.0,0.0,0.0,0.0,0.0,0.0,0.0,0.0,0.0,0.0,0.0,0.0,0.0,0.0,0.0,0.0,0.0,0.0,0.0,0.0,0.0,0.0,0.0,0.0,0.0,0.0,0.0,0.0,0.0,0.0,0.0,0.0,0.0,0.0,0.0,0.0,0.0,0.0,0.0,0.0,0.0,0.0,0.0,0.0,0.0,0.0,0.0,0.0,0.0,0.0,0.0,0.0,0.0,0.0,0.0,0.0,0.0,0.0,0.0,0.0,0.0,0.0,0.0,0.0,0.0,0.0,0.0,0.0,0.0,0.0,0.0,0.0,0.0,0.0,0.0,0.0,0.0,0.0,0.0,0.0,0.0,0.0,0.0,0.0,0.0,0.0,0.0,0.0,0.0,0.0,0.0,0.0,0.0,0.0,0.0,0.0,0.0,0.0,0.0,0.0,0.0,0.0,0.0,0.0,0.0,0.0,0.0,0.0,0.0,0.0,0.0,0.0,0.0,0.0,0.0,0.0,0.0,0.0,0.0,0.0,0.0,0.0,0.0,0.0,0.0,0.0,0.0,0.0,0.0,0.0,0.0,0.0,0.0,0.0,0.0,0.0,0.0,0.0,0.0,0.0,0.0,0.0,0.0,0.0,0.0,0.0,0.0,0.0,0.0,0.0,0.0,0.0,0.0,0.0,0.0,0.0,0.0,0.0,0.0,0.0,0.0,0.0,0.0,0.0,0.0,0.0,0.0,0.0,0.0,0.0,0.0,0.0,0.0,0.0,0.0,0.0,0.0,0.0,0.0,0.0,0.0,0.0,0.0,0.0,0.0,0.0,0.0,0.0,0.0,0.0,0.0,0.0,0.0,0.0,0.0,0.0,0.0,0.0,0.0,0.0,0.0,0.0,0.0,0.0,0.0,0.0,0.0,0.0,0.0,0.0,0.0,0.0,0.0,0.0,0.0,0.0,0.0,0.0,0.0,0.0,0.0,0.0,0.0,0.0,0.0,0.0,0.0,0.0,0.0,0.0,0.0,0.0,0.0,0.0,0.0,0.0,0.0,0.0,0.0,0.0,0.0,0.0,0.0,0.0,0.0,0.0,0.0,0.0,0.0,0.0,0.0,0.0,0.0,0.0,0.0,0.0,0.0,0.0,0.0,0.0,0.0,0.0,0.0,0.0,0.0,0.0,0.0,0.0,0.0,0.0,0.0,0.0,0.0,0.0,0.0,0.0,0.0,0.0,0.0,0.0,0.0,0.0,0.0,0.0,0.0,0.0,0.0,0.0,0.0,0.0,0.0,0.0,0.0,0.0,0.0,0.0,0.0,0.0,0.0,0.0,0.0,0.0,0.0,0.0,0.0,0.0,0.0,0.0,0.0,0.0,0.0,0.0,0.0,0.0,0.0,0.0,0.0,0.0,0.0,0.0,0.0,0.0,0.0,0.0,0.0,0.0,0.0,0.0,0.0,0.0,0.0,0.0,0.0,0.0,0.0,0.0,0.0,0.0,0.0,0.0,0.0,0.0,0.0,0.0,0.0,0.0,0.0,0.0,0.0,0.0,0.0,0.0,0.0,0.0,0.0,0.0,0.0,0.0,0.0,0.0,0.0,0.0,0.0,0.0,0.0,0.0,0.0,0.0,0.0,0.0,0.0,0.0,0.0,0.0,0.0,0.0,0.0,0.0,0.0,0.0,0.0,0.0,0.0,0.0,0.0,0.0,0.0,0.0,0.0,0.0,0.0,0.0,0.0,0.0,0.0,0.0,0.0,0.0,0.0,0.0,0.0,0.0,0.0,0.0,0.0,0.0,0.0,0.0,0.0,0.0,0.0,0.0,0.0,0.0,0.0,0.0,0.0,0.0,0.0,0.0,0.0,0.0,0.0,0.0,0.0,0.0,0.0,0.0,0.0,0.0,0.0,0.0,0.0,0.0,0.0,0.0,0.0,0.0,0.0,0.0,0.0,0.0,0.0,0.0,0.0,0.0,0.0,0.0,0.0,0.0,0.0,0.0,0.0,0.0,0.0,0.0,0.0,0.0,0.0,0.0,0.0,0.0,0.0,0.0,0.0,0.0,0.0,0.0,0.0,0.0,0.0,0.0,0.0,0.0,0.0,0.0,0.0,0.0,0.0,0.0,0.0,0.0,0.0,0.0,0.0,0.0,0.0,0.0,0.0,0.0,0.0,0.0,0.0,0.0,0.0,0.0,0.0,0.0,0.0,0.0,0.0,0.0,0.0,0.0,0.0,0.0,0.0,0.0,0.0,0.0,0.0,0.0,0.0,0.0,0.0,0.0,0.0,0.0,0.0,0.0,0.0,0.0,0.0,0.0,0.0,0.0,0.0,0.0,0.0,0.0,0.0,0.0,0.0,0.0,0.0,0.0,0.0,0.0,0.0,0.0,0.0,0.0,0.0,0.0,0.0,0.0,0.0,0.0,0.0,0.0,0.0,0.0,0.0,0.0,0.0,0.0,0.0,0.0,0.0,0.0,0.0,0.0,0.0,0.0,0.0,0.0,0.0,0.0,0.0,0.0,0.0,0.0,0.0,0.0,0.0,0.0,0.0,0.0,0.0,0.0,0.0,0.0,0.0,0.0,0.0,0.0,0.0,0.0,0.0,0.0,0.0,0.0,0.0,0.0,0.0,0.0,0.0,0.0,0.0,0.0,0.0,0.0,0.0,0.0,0.0,0.0,0.0,0.0,0.0,0.0,0.0,0.0,0.0,0.0,0.0,0.0,0.0,0.0,0.0,0.0,0.0,0.0,0.0,0.0,0.0,0.0,0.0,0.0,0.0,0.0,0.0,0.0,0.0,0.0,0.0,0.0,0.0,0.0,0.0,0.0,0.0,0.0,0.0,0.0,0.0,0.0,0.0,0.0,0.0,0.0,0.0,0.0,0.0,0.0,0.0,0.0,0.0,0.0,0.0,0.0,0.0,0.0,0.0,0.0,0.0,0.0,0.0,0.0,0.0,0.0,0.0,0.0,0.0,0.0,0.0,0.0,0.0,0.0,0.0,0.0,0.0,0.0,0.0,0.0,0.0,0.0,0.0,0.0,0.0,0.0,0.0,0.0,0.0,0.0,0.0,0.0,0.0,0.0,0.0,0.0,0.0,0.0,0.0,0.0,0.0,0.0,0.0,0.0,0.0,0.0,0.0,0.0,0.0,0.0,0.0,0.0,0.0,0.0,0.0,0.0,0.0,0.0,0.0,0.0,0.0,0.0,0.0,0.0,0.0,0.0,0.0,0.0,0.0,0.0,0.0,0.0,0.0,0.0,0.0,0.0,0.0,0.0,0.0,0.0,0.0,0.0,0.0,0.0,0.0,0.0,0.0,0.0,0.0,0.0,0.0,0.0,0.0,0.0,0.0,0.0,0.0,0.0,0.0,0.0,0.0,0.0,0.0,0.0,0.0,0.0,0.0,0.0,0.0,0.0,0.0,0.0,0.0,0.0,0.0,0.0,0.0,0.0,0.0,0.0,0.0,0.0,0.0,0.0,0.0,0.0,0.0,0.0,0.0,0.0,0.0,0.0,0.0,0.0,0.0,0.0,0.0,0.0,0.0,0.0,0.0,0.0,0.0,0.0,0.0,0.0,0.0,0.0,0.0,0.0,0.0,0.0,0.0,0.0,0.0,0.0,0.0,0.0,0.0,0.0,0.0,0.0,0.0,0.0,0.0,0.0,0.0,0.0,0.0,0.0,0.0,0.0,0.0,0.0,0.0,0.0,0.0,0.0,0.0,0.0,0.0,0.0,0.0,0.0,0.0,0.0,0.0,0.0,0.0,0.0,0.0,0.0,0.0,0.0,0.0,0.0,0.0,0.0,0.0,0.0,0.0,0.0,0.0,0.0,0.0,0.0,0.0,0.0,0.0,0.0,0.0,0.0,0.0,0.0,0.0,0.0,0.0,0.0,0.0,0.0,-2.5786,0.0,0.0,0.0,0.0,0.0,0.0,0.0,0.0,0.0,0.0,0.0,0.0,0.0,0.0,0.0,0.0,0.0,0.0,0.0,0.0,0.0,0.0,0.0,0.0,0.0,0.0,0.0,0.0,0.0,0.0,0.0,0.0,0.0,0.0,0.0,0.0,0.0,0.0,0.0,0.0,0.0,0.0,0.0,0.0,0.0,0.0,0.0,0.0,0.0,0.0,0.0,0.0,0.0,0.0,0.0,0.0,0.0,0.0,0.0,0.0,0.0,0.0,0.0,0.0,0.0,0.0,0.0,0.0,0.0,0.0,0.0,0.0,0.0,0.0,0.0,0.0,0.0,0.0,0.0,0.0,0.0,0.0,0.0,0.0,0.0,0.0,0.0,0.0,0.0,0.0,0.0,0.0,0.0,0.0,0.0,0.0,0.0,0.0,0.0,0.0,0.0,0.0,0.0,0.0,0.0,0.0,0.0,0.0,0.0,0.0,-2.008,-2.1007,-2.2733,-2.4709,-2.702,0.0,0.0,0.0,0.0,0.0,0.0,0.0,0.0,0.0,0.0,0.0,0.0,0.0,0.0,0.0,0.0,0.0,0.0,0.0,0.0,0.0,0.0,0.0,0.0,0.0,0.0,0.0,0.0,0.0,0.0,0.0,0.0,0.0,0.0,0.0,0.0,0.0,0.0,0.0,0.0,0.0,0.0,0.0,0.0,0.0,0.0,0.0,0.0,0.0,0.0,0.0,0.0,0.0,0.0,0.0,0.0,0.0,0.0,0.0,0.0,0.0,0.0,0.0,0.0,0.0,0.0,0.0,0.0,0.0,0.0,0.0,0.0,0.0,0.0,0.0,0.0,0.0,0.0,0.0,0.0,0.0,0.0,0.0,0.0,0.0,0.0,0.0,0.0,0.0,0.0,0.0,0.0,0.0,0.0,0.0,0.0,0.0,0.0,0.0,0.0,0.0,0.0,0.0,0.0,0.0,0.0,0.0,0.0,0.0,0.0,0.0,0.0,-2.3518,-2.5666,-2.882,0.0,0.0,0.0,0.0,0.0,0.0,0.0,0.0,0.0,0.0,0.0,0.0,0.0,0.0,0.0,0.0,0.0,0.0,0.0,0.0,0.0,0.0,0.0,0.0,0.0,0.0,0.0,0.0,0.0,0.0,0.0,0.0,0.0,0.0,0.0,0.0,0.0,0.0,0.0,0.0,0.0,0.0,0.0,0.0,0.0,0.0,0.0,0.0,0.0,0.0,0.0,0.0,0.0,0.0,0.0,0.0,0.0,0.0,0.0,0.0,0.0,0.0,0.0,0.0,0.0,0.0,0.0,0.0,0.0,0.0,0.0,0.0,0.0,0.0,0.0,0.0,0.0,0.0,0.0,0.0,0.0,0.0,0.0,0.0,0.0,0.0,0.0,0.0,0.0,0.0,0.0,0.0,0.0,0.0,0.0,0.0,0.0,0.0,0.0,0.0,0.0,0.0,0.0,0.0,0.0,0.0,0.0,0.0,0.0,0.0,-2.1754,-2.3854,-2.5664,0.0,-3.0954,0.0,0.0,0.0,0.0,0.0,0.0,0.0,0.0,0.0,0.0,0.0,0.0,0.0,0.0,0.0,0.0,0.0,0.0,0.0,0.0,0.0,0.0,0.0,0.0,0.0,0.0,0.0,0.0,0.0,0.0,0.0,0.0,0.0,0.0,0.0,0.0,0.0,0.0,0.0,0.0,0.0,0.0,0.0,0.0,0.0,0.0,0.0,0.0,0.0,0.0,0.0,0.0,0.0,0.0,0.0,0.0,0.0,0.0,0.0,0.0,0.0,0.0,0.0,0.0,0.0,0.0,0.0,0.0,0.0,0.0,0.0,0.0,0.0,0.0,0.0,0.0,0.0,0.0,0.0,0.0,0.0,0.0,0.0,0.0,0.0,0.0,0.0,0.0,0.0,0.0,0.0,0.0,0.0,0.0,0.0,0.0,0.0,0.0,0.0,0.0,0.0,0.0,0.0,0.0,0.0,0.0,0.0,0.0,0.0,0.0,-2.381,-2.6054,-2.7913,-2.9515,0.0,0.0,0.0,0.0,0.0,0.0,0.0,0.0,0.0,0.0,0.0,0.0,0.0,0.0,0.0,0.0,0.0,0.0,0.0,0.0,0.0,0.0,0.0,0.0,0.0,0.0,0.0,0.0,0.0,0.0,0.0,0.0,0.0,0.0,0.0,0.0,0.0,0.0,0.0,0.0,0.0,0.0,0.0,0.0,0.0,0.0,0.0,0.0,0.0,0.0,0.0,0.0,0.0,0.0,0.0,0.0,0.0,0.0,0.0,0.0,0.0,0.0,0.0,0.0,0.0,0.0,0.0,0.0,0.0,0.0,0.0,0.0,0.0,0.0,0.0,0.0,0.0,0.0,0.0,0.0,0.0,0.0,0.0,0.0,0.0,0.0,0.0,0.0,0.0,0.0,0.0,0.0,0.0,0.0,0.0,0.0,0.0,0.0,0.0,0.0,0.0,0.0,0.0,0.0,0.0,0.0,0.0,0.0,0.0,0.0,-2.4723,-2.5829,-2.8147,-2.9818,-3.0644,-3.0644,0.0,0.0,0.0,0.0,0.0,0.0,0.0,0.0,0.0,0.0,0.0,0.0,0.0,0.0,0.0,0.0,0.0,0.0,0.0,0.0,0.0,0.0,0.0,0.0,0.0,0.0,0.0,0.0,0.0,0.0,0.0,0.0,0.0,0.0,0.0,0.0,0.0,0.0,0.0,0.0,0.0,0.0,0.0,0.0,0.0,0.0,0.0,0.0,0.0,0.0,0.0,0.0,0.0,0.0,0.0,0.0,0.0,0.0,0.0,0.0,0.0,0.0,0.0,0.0,0.0,0.0,0.0,0.0,0.0,0.0,0.0,0.0,0.0,0.0,0.0,0.0,0.0,0.0,0.0,0.0,0.0,0.0,0.0,0.0,0.0,0.0,0.0,0.0,0.0,0.0,0.0,0.0,0.0,0.0,0.0,0.0,0.0,0.0,0.0,0.0,0.0,0.0,0.0,0.0,0.0,0.0,0.0,0.0,-2.612,-2.6226,-2.7512,-3.0043,-3.1014,-3.1409,0.0,0.0,0.0,0.0,0.0,0.0,0.0,0.0,0.0,0.0,0.0,0.0,0.0,0.0,0.0,0.0,0.0,0.0,0.0,0.0,0.0,0.0,0.0,0.0,0.0,0.0,0.0,0.0,0.0,0.0,0.0,0.0,0.0,0.0,0.0,0.0,0.0,0.0,0.0,0.0,0.0,0.0,0.0,0.0,0.0,0.0,0.0,0.0,0.0,0.0,0.0,0.0,0.0,0.0,0.0,0.0,0.0,0.0,0.0,0.0,0.0,0.0,0.0,0.0,0.0,0.0,0.0,0.0,0.0,0.0,0.0,0.0,0.0,0.0,0.0,0.0,0.0,0.0,0.0,0.0,0.0,0.0,0.0,0.0,0.0,0.0,0.0,0.0,0.0,0.0,0.0,0.0,0.0,0.0,0.0,0.0,0.0,0.0,0.0,0.0,0.0,0.0,0.0,0.0,0.0,0.0,0.0,0.0,0.0,-2.8843,-2.9372,-3.009,-3.1029,-3.1351,-3.1467,0.0,0.0,0.0,0.0,0.0,0.0,0.0,0.0,0.0,0.0,0.0,0.0,0.0,0.0,0.0,0.0,0.0,0.0,0.0,0.0,0.0,0.0,0.0,0.0,0.0,0.0,0.0,0.0,0.0,0.0,0.0,0.0,0.0,0.0,0.0,0.0,0.0,0.0,0.0,0.0,0.0,0.0,0.0,0.0,0.0,0.0,0.0,0.0,0.0,0.0,0.0,0.0,0.0,0.0,0.0,0.0,0.0,0.0,0.0,0.0,0.0,0.0,0.0,0.0,0.0,0.0,0.0,0.0,0.0,0.0,0.0,0.0,0.0,0.0,0.0,0.0,0.0,0.0,0.0,0.0,0.0,0.0,0.0,0.0,0.0,0.0,0.0,0.0,0.0,0.0,0.0,0.0,0.0,0.0,0.0,0.0,0.0,0.0,0.0,0.0,0.0,0.0,0.0,0.0,0.0,0.0,0.0,0.0,0.0,-3.024,0.0,-3.1467,-3.1467,-3.1467,-3.1467,0.0,0.0,0.0,0.0,0.0,0.0,0.0,0.0,0.0,0.0,0.0,0.0,0.0,0.0,0.0,0.0,0.0,0.0,0.0,0.0,0.0,0.0,0.0,0.0,0.0,0.0,0.0,0.0,0.0,0.0,0.0,0.0,0.0,0.0,0.0,0.0,0.0,0.0,0.0,0.0,0.0,0.0,0.0,0.0,0.0,0.0,0.0,0.0,0.0,0.0,0.0,0.0,0.0,0.0,0.0,0.0,0.0,0.0,0.0,0.0,0.0,0.0,0.0,0.0,0.0,0.0,0.0,0.0,0.0,0.0,0.0,0.0,0.0,0.0,0.0,0.0,0.0,0.0,0.0,0.0,0.0,0.0,0.0,0.0,0.0,0.0,0.0,0.0,0.0,0.0,0.0,0.0,0.0,0.0,0.0,0.0,0.0,0.0,0.0,0.0,0.0,0.0,0.0,0.0,0.0,0.0,0.0,0.0,-2.8623,-3.0257,-3.1102,-3.1467,-3.1467,-3.1467,-3.1467,0.0,0.0,0.0,0.0,0.0,0.0,0.0,0.0,0.0,0.0,0.0,0.0,0.0,0.0,0.0,0.0,0.0,0.0,0.0,0.0,0.0,0.0,0.0,0.0,0.0,0.0,0.0,0.0,0.0,0.0,0.0,0.0,0.0,0.0,0.0,0.0,0.0,0.0,0.0,0.0,0.0,0.0,0.0,0.0,0.0,0.0,0.0,0.0,0.0,0.0,0.0,0.0,0.0,0.0,0.0,0.0,0.0,0.0,0.0,0.0,0.0,0.0,0.0,0.0,0.0,0.0,0.0,0.0,0.0,0.0,0.0,0.0,0.0,0.0,0.0,0.0,0.0,0.0,0.0,0.0,0.0,0.0,0.0,0.0,0.0,0.0,0.0,0.0,0.0,0.0,0.0,0.0,0.0,0.0,0.0,0.0,0.0,0.0,0.0,0.0,0.0,0.0,0.0,0.0,0.0,0.0,0.0,0.0,0.0,-3.1131,-3.1351,-3.1467,-3.1467,-3.1467,-3.1467,0.0,0.0,0.0,0.0,0.0,0.0,0.0,0.0,0.0,0.0,0.0,0.0,0.0,0.0,0.0,0.0,0.0,0.0,0.0,0.0,0.0,0.0,0.0,0.0,0.0,0.0,0.0,0.0,0.0,0.0,0.0,0.0,0.0,0.0,0.0,0.0,0.0,0.0,0.0,0.0,0.0,0.0,0.0,0.0,0.0,0.0,0.0,0.0,0.0,0.0,0.0,0.0,0.0,0.0,0.0,0.0,0.0,0.0,0.0,0.0,0.0,0.0,0.0,0.0,0.0,0.0,0.0,0.0,0.0,0.0,0.0,0.0,0.0,0.0,0.0,0.0,0.0,0.0,0.0,0.0,0.0,0.0,0.0,0.0,0.0,0.0,0.0,0.0,0.0,0.0,0.0,0.0,0.0,0.0,0.0,0.0,0.0,0.0,0.0,0.0,0.0,0.0,0.0,0.0,0.0,0.0,0.0,0.0,0.0,-3.1467,-3.1467,-3.164,-3.191,-3.191,-3.2048,-3.2256,0.0,0.0,0.0,0.0,0.0,0.0,0.0,0.0,0.0,0.0,0.0,0.0,0.0,0.0,0.0,0.0,0.0,0.0,0.0,0.0,0.0,0.0,0.0,0.0,0.0,0.0,0.0,0.0,0.0,0.0,0.0,0.0,0.0,0.0,0.0,0.0,0.0,0.0,0.0,0.0,0.0,0.0,0.0,0.0,0.0,0.0,0.0,0.0,0.0,0.0,0.0,0.0,0.0,0.0,0.0,0.0,0.0,0.0,0.0,0.0,0.0,0.0,0.0,0.0,0.0,0.0,0.0,0.0,0.0,0.0,0.0,0.0,0.0,0.0,0.0,0.0,0.0,0.0,0.0,0.0,0.0,0.0,0.0,0.0,0.0,0.0,0.0,0.0,0.0,0.0,0.0,0.0,0.0,0.0,0.0,0.0,0.0,0.0,0.0,0.0,0.0,0.0,0.0,0.0,0.0,0.0,0.0,0.0,-3.1467,-3.1524,-3.191,-3.2532,-3.2586,-3.2879,0.0,0.0,0.0,0.0,0.0,0.0,0.0,0.0,0.0,0.0,0.0,0.0,0.0,0.0,0.0,0.0,0.0,0.0,0.0,0.0,0.0,0.0,0.0,0.0,0.0,0.0,0.0,0.0,0.0,0.0,0.0,0.0,0.0,0.0,0.0,0.0,0.0,0.0,0.0,0.0,0.0,0.0,0.0,0.0,0.0,0.0,0.0,0.0,0.0,0.0,0.0,0.0,0.0,0.0,0.0,0.0,0.0,0.0,0.0,0.0,0.0,0.0,0.0,0.0,0.0,0.0,0.0,0.0,0.0,0.0,0.0,0.0,0.0,0.0,0.0,0.0,0.0,0.0,0.0,0.0,0.0,0.0,0.0,0.0,0.0,0.0,0.0,0.0,0.0,0.0,0.0,0.0,0.0,0.0,0.0,0.0,0.0,0.0,0.0,0.0,0.0,0.0,0.0,0.0,0.0,0.0,0.0,0.0,0.0,-3.1524,-3.2007,-3.2437,-3.2586,-3.2586,-3.2949,0.0,0.0,0.0,0.0,0.0,0.0,0.0,0.0,0.0,0.0,0.0,0.0,0.0,0.0,0.0,0.0,0.0,0.0,0.0,0.0,0.0,0.0,0.0,0.0,0.0,0.0,0.0,0.0,0.0,0.0,0.0,0.0,0.0,0.0,0.0,0.0,0.0,0.0,0.0,0.0,0.0,0.0,0.0,0.0,0.0,0.0,0.0,0.0,0.0,0.0,0.0,0.0,0.0,0.0,0.0,0.0,0.0,0.0,0.0,0.0,0.0,0.0,0.0,0.0,0.0,0.0,0.0,0.0,0.0,0.0,0.0,0.0,0.0,0.0,0.0,0.0,0.0,0.0,0.0,0.0,0.0,0.0,0.0,0.0,0.0,0.0,0.0,0.0,0.0,0.0,0.0,0.0,0.0,0.0,0.0,0.0,0.0,0.0,0.0,0.0,0.0,0.0,0.0,0.0,0.0,0.0,0.0,0.0,-3.164,-3.1951,-3.2382,-3.2841,-3.3427,-3.3427,-3.3735,0.0,0.0,0.0,0.0,0.0,0.0,0.0,0.0,0.0,0.0,0.0,0.0,0.0,0.0,0.0,0.0,0.0,0.0,0.0,0.0,0.0,0.0,0.0,0.0,0.0,0.0,0.0,0.0,0.0,0.0,0.0,0.0,0.0,0.0,0.0,0.0,0.0,0.0,0.0,0.0,0.0,0.0,0.0,0.0,0.0,0.0,0.0,0.0,0.0,0.0,0.0,0.0,0.0,0.0,0.0,0.0,0.0,0.0,0.0,0.0,0.0,0.0,0.0,0.0,0.0,0.0,0.0,0.0,0.0,0.0,0.0,0.0,0.0,0.0,0.0,0.0,0.0,0.0,0.0,0.0,0.0,0.0,0.0,0.0,0.0,0.0,0.0,0.0,0.0,0.0,0.0,0.0,0.0,0.0,0.0,0.0,0.0,0.0,0.0,0.0,0.0,0.0,0.0,0.0,0.0,0.0,0.0,0.0,-3.1796,-3.2492,-3.2641,-3.3303,-3.4431,-3.4576,-3.4894,0.0,0.0,0.0,0.0,0.0,0.0,0.0,0.0,0.0,0.0,0.0,0.0,0.0,0.0,0.0,0.0,0.0,0.0,0.0,0.0,0.0,0.0,0.0,0.0,0.0,0.0,0.0,0.0,0.0,0.0,0.0,0.0,0.0,0.0,0.0,0.0,0.0,0.0,0.0,0.0,0.0,0.0,0.0,0.0,0.0,0.0,0.0,0.0,0.0,0.0,0.0,0.0,0.0,0.0,0.0,0.0,0.0,0.0,0.0,0.0,0.0,0.0,0.0,0.0,0.0,0.0,0.0,0.0,0.0,0.0,0.0,0.0,0.0,0.0,0.0,0.0,0.0,0.0,0.0,0.0,0.0,0.0,0.0,0.0,0.0,0.0,0.0,0.0,0.0,0.0,0.0,0.0,0.0,0.0,0.0,0.0,0.0,0.0,0.0,0.0,0.0,0.0,0.0,0.0,0.0,0.0,0.0,0.0,-3.1597,-3.1754,-3.2826,-3.3531,-3.3786,-3.4333,-3.4894,0.0,0.0,0.0,0.0,0.0,0.0,0.0,0.0,0.0,0.0,0.0,0.0,0.0,0.0,0.0,0.0,0.0,0.0,0.0,0.0,0.0,0.0,0.0,0.0,0.0,0.0,0.0,0.0,0.0,0.0,0.0,0.0,0.0,0.0,0.0,0.0,0.0,0.0,0.0,0.0,0.0,0.0,0.0,0.0,0.0,0.0,0.0,0.0,-1.7897,0.0,0.0,0.0,0.0,0.0,0.0,0.0,0.0,0.0,0.0,0.0,0.0,0.0,0.0,0.0,0.0,0.0,0.0,0.0,0.0,0.0,0.0,0.0,0.0,0.0,0.0,0.0,0.0,0.0,0.0,0.0,0.0,0.0,0.0,0.0,0.0,0.0,0.0,0.0,0.0,0.0,0.0,0.0,0.0,0.0,0.0,0.0,0.0,0.0,0.0,0.0,0.0,0.0,0.0,0.0,0.0,0.0,0.0,0.0,-3.1697,-3.2007,-3.3077,-3.3735,-3.4071,-3.4688,-3.5253,0.0,0.0,0.0,0.0,0.0,0.0,0.0,0.0,0.0,0.0,0.0,0.0,0.0,0.0,0.0,0.0,0.0,0.0,0.0,0.0,0.0,0.0,0.0,0.0,0.0,0.0,0.0,0.0,0.0,0.0,0.0,0.0,0.0,0.0,0.0,0.0,0.0,0.0,0.0,0.0,0.0,0.0,0.0,0.0,0.0,0.0,0.0,0.0,0.0,0.0,0.0,0.0,0.0,0.0,0.0,0.0,0.0,0.0,0.0,0.0,0.0,0.0,0.0,0.0,0.0,0.0,0.0,0.0,0.0,0.0,0.0,0.0,0.0,0.0,0.0,0.0,0.0,0.0,0.0,0.0,0.0,0.0,0.0,0.0,0.0,0.0,0.0,0.0,0.0,0.0,0.0,0.0,0.0,0.0,0.0,0.0,0.0,0.0,0.0,0.0,0.0,0.0,0.0,0.0,0.0,0.0,0.0,-3.1467,-3.1796,-3.2437,-3.3093,-3.3786,-3.4447,-3.5098,-3.5515,-3.556,0.0,0.0,0.0,0.0,0.0,0.0,0.0,0.0,0.0,0.0,0.0,0.0,0.0,0.0,0.0,0.0,0.0,0.0,0.0,0.0,0.0,0.0,0.0,0.0,0.0,0.0,0.0,0.0,0.0,0.0,0.0,0.0,0.0,0.0,0.0,0.0,0.0,0.0,-2.3833,-2.2476,0.0,0.0,0.0,0.0,0.0,0.0,0.0,0.0,-1.5748,0.0,0.0,0.0,0.0,0.0,0.0,0.0,0.0,0.0,0.0,0.0,0.0,0.0,0.0,0.0,0.0,0.0,0.0,0.0,0.0,0.0,0.0,0.0,0.0,0.0,0.0,0.0,0.0,0.0,0.0,0.0,0.0,0.0,0.0,0.0,0.0,0.0,0.0,0.0,0.0,0.0,0.0,0.0,0.0,0.0,0.0,0.0,0.0,0.0,0.0,0.0,0.0,0.0,0.0,0.0,0.0,-3.1467,-3.1467,-3.1582,-3.1682,-3.2382,-3.3108,-3.3735,-3.4431,-3.5052,-3.5577,0.0,0.0,0.0,0.0,0.0,0.0,0.0,0.0,0.0,0.0,0.0,0.0,0.0,0.0,0.0,0.0,0.0,0.0,0.0,0.0,0.0,0.0,0.0,0.0,0.0,0.0,0.0,0.0,0.0,0.0,0.0,0.0,0.0,0.0,0.0,0.0,0.0,0.0,0.0,-2.3154,-2.2864,0.0,0.0,0.0,0.0,0.0,0.0,0.0,0.0,-1.5875,0.0,0.0,0.0,0.0,0.0,0.0,0.0,0.0,0.0,0.0,0.0,0.0,0.0,0.0,0.0,0.0,0.0,0.0,0.0,0.0,0.0,0.0,0.0,0.0,0.0,0.0,0.0,0.0,0.0,0.0,0.0,0.0,0.0,0.0,0.0,0.0,0.0,0.0,0.0,0.0,0.0,0.0,0.0,0.0,0.0,0.0,0.0,0.0,0.0,0.0,0.0,0.0,0.0,0.0,0.0,-3.1482,-3.1467,-3.1467,-3.1524,-3.2231,-3.2734,-3.3093,-3.4087,-3.4576,0.0,0.0,0.0,0.0,0.0,0.0,0.0,0.0,0.0,0.0,0.0,0.0,0.0,0.0,0.0,0.0,0.0,0.0,0.0,0.0,0.0,0.0,0.0,0.0,0.0,0.0,0.0,0.0,0.0,0.0,0.0,0.0,0.0,0.0,0.0,0.0,0.0,0.0,0.0,0.0,-2.5099,-2.4688,-2.3381,0.0,0.0,0.0,0.0,0.0,0.0,-1.6952,-1.6398,0.0,0.0,0.0,0.0,0.0,0.0,0.0,0.0,0.0,0.0,0.0,0.0,0.0,0.0,0.0,0.0,0.0,0.0,0.0,0.0,0.0,0.0,0.0,0.0,0.0,0.0,0.0,0.0,0.0,0.0,0.0,0.0,0.0,0.0,0.0,0.0,0.0,0.0,0.0,0.0,0.0,0.0,0.0,0.0,0.0,0.0,0.0,0.0,0.0,0.0,0.0,0.0,0.0,0.0,0.0,-3.1467,-3.1467,-3.1467,-3.1524,-3.2064,-3.2437,-3.2586,-3.3633,-3.3971,0.0,0.0,0.0,0.0,0.0,0.0,0.0,0.0,0.0,0.0,0.0,0.0,0.0,0.0,0.0,0.0,0.0,0.0,0.0,0.0,0.0,0.0,0.0,0.0,0.0,0.0,0.0,0.0,0.0,0.0,0.0,0.0,0.0,0.0,0.0,0.0,0.0,0.0,0.0,0.0,0.0,-2.5826,-2.4661,-2.308,0.0,0.0,0.0,0.0,-1.7726,-1.7616,0.0,0.0,0.0,0.0,0.0,0.0,0.0,0.0,0.0,0.0,0.0,0.0,0.0,0.0,0.0,0.0,0.0,0.0,0.0,0.0,0.0,0.0,0.0,0.0,0.0,0.0,0.0,0.0,0.0,0.0,0.0,0.0,0.0,0.0,0.0,0.0,0.0,0.0,0.0,0.0,0.0,0.0,0.0,0.0,0.0,0.0,0.0,0.0,0.0,0.0,0.0,0.0,0.0,0.0,0.0,0.0,-3.1482,-3.1467,-3.1467,-3.1467,-3.1582,-3.1951,-3.2586,-3.2734,-3.3093,0.0,0.0,0.0,0.0,0.0,0.0,0.0,0.0,0.0,0.0,0.0,0.0,0.0,0.0,0.0,0.0,0.0,0.0,0.0,0.0,0.0,0.0,0.0,0.0,0.0,0.0,0.0,0.0,0.0,0.0,0.0,0.0,0.0,0.0,0.0,0.0,0.0,0.0,0.0,0.0,0.0,-2.4988,-2.3788,-2.2702,-2.1669,0.0,0.0,-1.8957,-1.878,-1.8789,0.0,0.0,0.0,0.0,0.0,0.0,0.0,0.0,0.0,0.0,0.0,0.0,0.0,0.0,0.0,0.0,0.0,0.0,0.0,0.0,0.0,0.0,0.0,0.0,0.0,0.0,0.0,0.0,0.0,0.0,0.0,0.0,0.0,0.0,0.0,0.0,0.0,0.0,0.0,0.0,0.0,0.0,0.0,0.0,0.0,0.0,0.0,0.0,0.0,0.0,0.0,0.0,0.0,0.0,0.0,-3.1029,-3.1467,-3.1467,-3.1467,-3.1467,-3.1467,-3.164,-3.1951,-3.2382,-3.2532,0.0,0.0,0.0,0.0,0.0,0.0,0.0,0.0,0.0,0.0,0.0,0.0,0.0,0.0,0.0,0.0,0.0,0.0,0.0,0.0,0.0,0.0,0.0,0.0,0.0,0.0,0.0,0.0,0.0,0.0,0.0,0.0,0.0,0.0,0.0,0.0,0.0,0.0,0.0,0.0,0.0,0.0,-2.5226,-2.3834,0.0,0.0,0.0,-1.9204,-1.9844,0.0,0.0,0.0,0.0,0.0,0.0,0.0,0.0,0.0,0.0,0.0,0.0,0.0,0.0,0.0,0.0,0.0,0.0,0.0,0.0,0.0,0.0,0.0,0.0,0.0,0.0,0.0,0.0,0.0,0.0,0.0,0.0,0.0,0.0,0.0,0.0,0.0,0.0,0.0,0.0,0.0,0.0,0.0,0.0,0.0,0.0,0.0,0.0,0.0,0.0,0.0,0.0,0.0,0.0,0.0,0.0,0.0,-3.1482,-3.1467,-3.1467,-3.1467,-3.1467,-3.1467,-3.1524,-3.2048,0.0,0.0,0.0,0.0,0.0,0.0,0.0,0.0,0.0,0.0,0.0,0.0,0.0,0.0,0.0,0.0,0.0,0.0,0.0,0.0,0.0,0.0,0.0,0.0,0.0,0.0,0.0,-2.7188,0.0,0.0,0.0,0.0,0.0,0.0,0.0,0.0,0.0,0.0,0.0,0.0,0.0,0.0,-2.6395,-2.5669,-2.3979,-2.2489,0.0,0.0,-1.9678,-2.0489,-1.8532,-1.7163,0.0,0.0,0.0,0.0,0.0,0.0,0.0,0.0,0.0,0.0,0.0,0.0,0.0,0.0,0.0,0.0,0.0,0.0,0.0,0.0,0.0,0.0,0.0,0.0,0.0,0.0,0.0,0.0,0.0,0.0,0.0,0.0,0.0,0.0,0.0,0.0,0.0,0.0,0.0,0.0,0.0,0.0,0.0,0.0,0.0,0.0,0.0,0.0,0.0,0.0,0.0,0.0,0.0,0.0,-3.1409,-3.1467,-3.1467,-3.1467,-3.1467,-3.1467,-3.1467,-3.1467,-3.1524,-3.1524,0.0,0.0,0.0,0.0,0.0,0.0,0.0,0.0,0.0,0.0,0.0,0.0,0.0,0.0,0.0,0.0,0.0,0.0,0.0,0.0,0.0,0.0,0.0,0.0,0.0,0.0,0.0,0.0,0.0,0.0,0.0,0.0,0.0,0.0,0.0,0.0,0.0,0.0,0.0,0.0,0.0,-2.3795,-2.3722,-2.2038,-2.0789,0.0,-2.0557,-2.0479,-2.0566,-2.0401,-2.0323,-2.0391,0.0,0.0,0.0,0.0,0.0,0.0,0.0,0.0,0.0,0.0,0.0,0.0,0.0,0.0,0.0,0.0,0.0,0.0,0.0,0.0,0.0,0.0,0.0,0.0,0.0,0.0,0.0,0.0,0.0,0.0,0.0,0.0,0.0,0.0,0.0,0.0,0.0,0.0,0.0,0.0,0.0,0.0,0.0,0.0,0.0,0.0,0.0,0.0,0.0,0.0,0.0,0.0,0.0,-3.1467,-3.1467,-3.1467,-3.1467,-3.1467,-3.1467,-3.1467,-3.1467,-3.1467,-3.1467,0.0,0.0,0.0,0.0,0.0,0.0,0.0,0.0,0.0,0.0,0.0,0.0,0.0,0.0,0.0,0.0,0.0,0.0,0.0,0.0,0.0,0.0,0.0,0.0,0.0,0.0,0.0,0.0,-2.8575,-2.8907,-2.9205,0.0,0.0,0.0,0.0,0.0,0.0,0.0,0.0,0.0,0.0,-2.5706,-2.4552,-2.3231,0.0,0.0,-2.0934,-2.0576,-2.0576,-2.0079,-1.9608,-1.9599,-1.9036,0.0,0.0,0.0,0.0,0.0,0.0,0.0,0.0,0.0,0.0,0.0,0.0,0.0,0.0,0.0,0.0,0.0,0.0,0.0,0.0,0.0,0.0,0.0,0.0,0.0,0.0,0.0,0.0,0.0,0.0,0.0,0.0,0.0,0.0,0.0,0.0,0.0,0.0,0.0,0.0,0.0,0.0,0.0,0.0,0.0,0.0,0.0,0.0,0.0,0.0,0.0,0.0,-3.1467,-3.1467,-3.1467,-3.1467,-3.1467,-3.1467,-3.1467,-3.1467,-3.1467,-3.1467,0.0,0.0,0.0,0.0,0.0,0.0,0.0,0.0,0.0,0.0,0.0,0.0,0.0,0.0,0.0,0.0,0.0,0.0,0.0,0.0,0.0,0.0,0.0,0.0,0.0,0.0,0.0,0.0,-2.9475,-2.9884,-2.9841,0.0,0.0,0.0,0.0,0.0,0.0,0.0,0.0,0.0,0.0,-2.6364,-2.4767,-2.3672,-2.2702,-2.1735,-2.1011,-2.0576,-2.0576,-2.0001,-1.952,-1.9441,0.0,0.0,0.0,0.0,0.0,0.0,0.0,0.0,0.0,0.0,0.0,0.0,0.0,0.0,0.0,0.0,0.0,0.0,0.0,0.0,0.0,0.0,0.0,0.0,0.0,0.0,0.0,-2.0783,0.0,0.0,-2.3442,0.0,0.0,0.0,0.0,0.0,0.0,0.0,0.0,0.0,0.0,0.0,0.0,0.0,0.0,0.0,0.0,0.0,0.0,0.0,0.0,0.0,0.0,-3.1467,-3.1467,-3.1467,-3.1467,-3.1467,-3.1467,-3.1467,-3.1467,-3.1467,-3.1467,-3.1467,0.0,0.0,0.0,0.0,0.0,0.0,0.0,0.0,0.0,0.0,0.0,0.0,0.0,0.0,0.0,0.0,0.0,0.0,0.0,0.0,0.0,0.0,0.0,0.0,0.0,0.0,-2.9347,-3.0118,-3.0377,0.0,0.0,0.0,0.0,0.0,0.0,0.0,0.0,0.0,-2.7537,-2.6171,-2.4696,-2.3672,-2.2702,-2.1811,-2.0779,-2.0644,-2.0576,-2.0576,-2.0566,-2.0566,0.0,0.0,0.0,0.0,0.0,0.0,0.0,0.0,0.0,0.0,0.0,0.0,0.0,0.0,0.0,0.0,0.0,0.0,0.0,0.0,0.0,0.0,0.0,0.0,0.0,0.0,0.0,-2.0731,-2.1585,0.0,0.0,0.0,0.0,0.0,0.0,0.0,0.0,0.0,0.0,0.0,-2.7284,-2.704,0.0,0.0,0.0,0.0,0.0,0.0,0.0,0.0,0.0,0.0,0.0,0.0,-3.0955,-3.1467,-3.1467,-3.1467,-3.1467,-3.1467,-3.1467,-3.1467,-3.1467,-3.1467,-3.1467,0.0,0.0,0.0,0.0,0.0,0.0,0.0,0.0,0.0,0.0,0.0,0.0,0.0,0.0,0.0,0.0,0.0,0.0,0.0,0.0,0.0,0.0,0.0,0.0,0.0,-2.7844,0.0,0.0,0.0,0.0,0.0,0.0,0.0,0.0,0.0,0.0,0.0,-2.8051,-2.7736,-2.7191,-2.5995,-2.3806,-2.322,-2.2403,0.0,0.0,0.0,0.0,0.0,0.0,0.0,0.0,0.0,0.0,0.0,0.0,0.0,0.0,-2.1933,-2.1922,-2.3503,-2.5025,-2.5689,0.0,0.0,0.0,0.0,0.0,0.0,0.0,0.0,0.0,0.0,0.0,0.0,0.0,0.0,-2.1857,0.0,-2.3398,0.0,0.0,0.0,0.0,0.0,0.0,0.0,0.0,-2.6521,-2.6769,-2.731,-2.7046,-2.7046,0.0,-2.704,-2.7162,0.0,0.0,0.0,0.0,0.0,0.0,0.0,0.0,-3.0955,-3.1467,-3.1467,-3.1467,-3.1467,-3.1467,-3.1467,-3.1467,-3.1467,-3.1336,-3.1087,-3.1351,-3.1204,0.0,0.0,0.0,0.0,0.0,0.0,0.0,0.0,0.0,0.0,0.0,0.0,0.0,0.0,0.0,0.0,0.0,0.0,0.0,0.0,0.0,0.0,0.0,-2.887,0.0,0.0,0.0,0.0,0.0,0.0,0.0,0.0,0.0,-2.767,-2.792,-2.8051,-2.7736,-2.7191,-2.6008,-2.3795,0.0,0.0,0.0,0.0,0.0,0.0,0.0,-2.0576,-2.0576,-2.0576,-2.0576,-2.0576,-2.0576,-2.0722,-2.1001,0.0,0.0,-2.3007,-2.5061,-2.6912,-2.7167,-2.8948,-3.0602,-3.12,-3.2709,-3.4022,0.0,0.0,0.0,0.0,0.0,0.0,0.0,0.0,-2.2988,-2.394,0.0,-2.5906,0.0,0.0,0.0,0.0,-2.6521,-2.6521,0.0,0.0,-2.6521,-2.6521,-2.6546,-2.7263,-2.725,-2.6602,-2.7297,-2.7604,-2.7683,-2.7683,0.0,0.0,0.0,0.0,0.0,0.0,-3.1409,-3.1467,-3.1437,-3.1452,-3.1467,-3.1467,-3.1467,-3.1482,-3.1409,-3.1014,-3.0329,-3.097,-3.0658,-2.9066,-2.8995,0.0,0.0,0.0,0.0,0.0,0.0,0.0,0.0,0.0,0.0,0.0,0.0,0.0,0.0,0.0,0.0,0.0,0.0,0.0,0.0,-2.9752,0.0,0.0,0.0,0.0,0.0,0.0,0.0,0.0,0.0,0.0,-2.7802,-2.704,-2.685,-2.7537,0.0,0.0,0.0,0.0,-2.1745,-2.0789,-2.0576,-2.0576,-2.0576,-2.0576,-2.0576,-2.0576,0.0,0.0,-2.0576,-2.0576,-2.0857,-2.1811,-2.2776,-2.3772,-2.4531,-2.6264,-2.7973,-2.8798,-3.0214,-3.1258,-3.1528,-3.3444,-3.5279,-1.9599,0.0,0.0,0.0,0.0,-2.0576,-2.0712,-2.1078,-2.2038,-2.2999,-2.3963,-2.5004,0.0,0.0,0.0,0.0,0.0,0.0,-2.6521,-2.6521,-2.6521,-2.6521,-2.6533,-2.6759,-2.669,-2.6521,-2.6714,-2.685,-2.6837,-2.685,-2.7284,-2.8038,0.0,0.0,0.0,0.0,-2.97,-3.1321,-3.0908,-3.0908,-3.1467,-3.1467,-3.1219,-3.0658,-3.0025,-2.9628,-2.938,-2.958,-2.9504,-2.9002,-2.843,0.0,0.0,0.0,0.0,0.0,0.0,0.0,0.0,0.0,0.0,0.0,0.0,0.0,0.0,0.0,0.0,0.0,0.0,0.0,-2.7229,-2.8505,-2.9002,0.0,0.0,0.0,0.0,0.0,0.0,0.0,0.0,0.0,-2.7723,-2.7484,-2.7191,0.0,0.0,-2.5205,-2.2765,-2.2776,-2.2489,-2.0857,-2.0576,0.0,-2.0576,-2.0576,-2.0576,-2.0576,-2.0576,-2.0576,-2.0576,-2.0576,-2.0712,-2.1001,-2.2339,-2.3576,-2.3979,-2.6468,-2.8542,-2.9052,-3.0719,-3.2155,-3.236,-3.3957,-3.5385,-2.0001,-2.0576,-2.0576,-2.0576,-2.0576,-2.0576,-2.0789,-2.1155,-2.1745,-2.2776,-2.4108,-2.4719,-2.5594,-2.6521,-2.6521,0.0,0.0,0.0,-2.6521,-2.6521,-2.6521,-2.6521,-2.6521,-2.6521,-2.6521,-2.6521,-2.6521,-2.6521,-2.6521,-2.6521,-2.6714,-2.7229,0.0,0.0,-2.8989,-2.8466,-2.8969,-3.0435,-3.0028,-3.0013,-3.051,-3.0524,-3.0269,-2.9813,-2.9254,-2.8876,-2.8492,-2.8812,-2.8671,-2.8065,-2.7802,-2.755,0.0,0.0,0.0,0.0,0.0,0.0,0.0,0.0,0.0,0.0,0.0,-2.6714,-2.7162,0.0,0.0,0.0,-2.7868,-2.7484,-2.7484,-2.8441,0.0,0.0,0.0,0.0,0.0,0.0,0.0,-2.7727,-2.7691,-2.7749,-2.767,-2.7417,-2.7002,-2.6433,-2.6126,-2.5063,-2.2925,0.0,-2.2328,-2.0789,-2.0576,-2.0576,-2.0576,-2.0576,-2.0576,-2.0576,-2.0576,-2.0576,-2.0576,-2.0576,-2.0712,-2.1231,-2.2113,-2.3147,-2.3975,-2.6221,-2.8179,-2.8925,-3.0704,-3.2104,-3.2176,-3.3502,-3.4667,-2.0576,-2.0576,-2.0576,-2.0576,-2.0576,-2.0576,-2.1088,-2.1886,-2.1952,-2.3073,-2.4862,-2.4933,-2.5581,-2.6452,-2.6521,0.0,-2.6521,-2.6521,-2.6521,-2.6521,-2.6521,-2.6521,-2.6521,-2.6521,-2.6521,-2.6521,-2.6521,-2.6521,-2.6521,-2.6521,-2.6521,-2.6521,-2.7229,-2.8051,-2.8848,-2.8837,-2.8851,-2.8989,-2.8941,-2.8955,-2.9002,-2.8939,-2.8862,-2.8876,-2.8812,-2.8441,-2.767,-2.8376,-2.8117,-2.6645,-2.7229,-2.7284,-2.6521,0.0,0.0,0.0,0.0,0.0,0.0,0.0,0.0,0.0,0.0,0.0,0.0,0.0,0.0,0.0,-2.8441,0.0,-2.8812,-2.8812,0.0,0.0,0.0,-2.7338,-2.6663,-2.7271,-2.7735,-2.7685,0.0,0.0,-2.7683,-2.6905,-2.6383,-2.6383,-2.5594,-2.4636,-2.3514,-2.2542,-2.1659,-2.0712,-2.0576,-2.0576,-2.0576,-2.0576,-2.0576,-2.0576,-2.0576,-2.0576,-2.0576,-2.0576,-2.1011,-2.1583,-2.2038,-2.2702,-2.4552,-2.5763,-2.702,-2.8734,-3.0254,-3.1409,-3.1567,-3.2718,-3.3735,-2.0576,-2.0576,-2.0576,-2.0576,-2.0576,-2.0576,-2.0712,-2.1011,-2.1659,-2.2691,-2.3879,-2.4636,-2.5581,-2.6521,-2.6521,-2.6521,-2.6521,-2.6521,-2.6521,-2.6521,-2.6521,-2.6521,-2.6521,-2.6521,-2.6521,-2.6521,-2.6521,-2.6521,-2.6521,-2.6521,-2.6521,-2.6533,-2.6726,-2.7162,-2.792,-2.7419,-2.7723,-2.9002,-2.8344,-2.8344,-2.8939,-2.8363,-2.7986,-2.7986,-2.743,-2.6973,-2.6782,-2.6973,-2.6905,-2.6533,-2.6658,-2.6726,-2.6533,-2.6521,0.0,0.0,0.0,0.0,0.0,0.0,0.0,0.0,0.0,-2.6521,-2.6521,0.0,-2.6837,0.0,-2.7855,-2.7736,-2.7175,-2.7095,0.0,0.0,-2.7162,-2.6979,-2.7352,-2.7604,-2.7683,-2.7691,-2.7735,-2.7749,-2.7749,-2.6321,-2.537,-2.537,-2.5146,-2.4337,-2.2627,-2.2178,-2.1659,-2.0789,-2.0576,-2.0576,-2.0576,-2.0576,-2.0576,-2.0576,-2.0576,-2.0576,-2.0576,-2.0576,-2.0712,-2.1011,-2.2188,-2.3209,-2.3818,-2.6264,-2.8244,-2.8989,-2.9875,-3.0763,-3.1409,-3.261,-3.3582,-2.0576,-2.0576,-2.0576,-2.0576,-2.0576,-2.0576,-2.0576,-2.0634,-2.1155,-2.1962,-2.2925,-2.4337,-2.53,-2.5873,-2.6314,-2.6245,-2.5873,-2.6314,-2.6521,-2.6521,-2.6521,-2.6521,-2.6521,-2.6521,-2.6521,-2.6521,-2.6521,-2.6521,-2.6521,-2.6521,-2.6521,-2.6521,-2.6521,-2.6714,-2.7162,-2.6714,-2.696,-2.7868,-2.7437,-2.7369,-2.7881,-2.7417,-2.7149,-2.7149,-2.6714,-2.6521,-2.6521,-2.6521,-2.6521,-2.6452,-2.6094,-2.6013,-2.6452,-2.6082,-2.6025,0.0,0.0,0.0,0.0,0.0,0.0,0.0,0.0,0.0,0.0,0.0,-2.6714,-2.7162,-2.7484,-2.7351,-2.6589,-2.685,-2.7108,-2.7175,-2.7095,-2.7072,-2.7157,-2.7141,-2.7185,-2.7199,-2.7169,-2.7015,-2.6501,-2.5615,-2.4791,-2.442,-2.3963,-2.3294,-2.2253,-2.2038,-2.1669,-2.0789,-2.0576,-2.0576,-2.0576,-2.0576,-2.0576,-2.0576,-2.0576,-2.0576,-2.0576,-2.0576,-2.0576,-2.0644,-2.1527,-2.2489,-2.3368,-2.5027,-2.694,-2.8657,-2.938,-3.0133,-3.1278,-3.2367,-3.3198,-2.0576,-2.0576,-2.0576,-2.0576,-2.0576,-2.0576,-2.0576,-2.0576,-2.0576,-2.1155,-2.2103,-2.3963,-2.4791,-2.4862,-2.5734,-2.5734,-2.5075,-2.5804,-2.6164,-2.6314,-2.6164,-2.6094,-2.6151,-2.6094,-2.6094,-2.6082,-2.6082,-2.6094,-2.6094,-2.6094,-2.6082,-2.6082,-2.6164,-2.6094,-2.6151,-2.6146,-2.6214,-2.6452,-2.6521,-2.6521,-2.6521,-2.6521,-2.6521,-2.6521,-2.6521,-2.6521,-2.6521,-2.6521,-2.6427,-2.6321,-2.5499,-2.537,-2.6258,-2.537,-2.5288,0.0,-2.6383,0.0,0.0,0.0,0.0,0.0,0.0,0.0,0.0,-2.6521,-2.6521,-2.6521,-2.7175,-2.7297,-2.6602,-2.7095,-2.7284,-2.6577,-2.7095,-2.7284,-2.6602,-2.6521,-2.6521,-2.6521,-2.6521,-2.6094,-2.5229,-2.4933,-2.442,-2.3452,-2.2489,-2.1886,-2.1811,-2.1735,-2.1451,-2.0712,-2.0576,-2.0576,-2.0576,-2.0576,-2.0576,-2.0576,-2.0576,-2.0576,-2.0576,-2.0576,-2.0576,-2.0644,-2.0934,-2.168,-2.322,-2.3795,-2.5308,-2.8387,-2.9192,-2.9766,-3.1146,-3.2216,-3.2895,-2.0576,-2.0576,-2.0576,-2.0576,-2.0576,-2.0576,-2.0576,-2.0576,-2.0576,-2.1155,-2.2103,-2.322,-2.3829,-2.3818,-2.3963,-2.4409,-2.4933,-2.4337,-2.448,-2.5241,-2.4409,-2.4108,-2.4108,-2.4024,-2.4036,-2.4036,-2.4036,-2.4097,-2.4108,-2.4108,-2.4036,-2.4108,-2.4097,-2.4036,-2.4074,0.0,0.0,0.0,-2.6521,-2.6521,-2.6521,-2.6521,-2.6521,-2.6521,-2.6521,0.0,-2.6521,-2.6521,-2.6096,-2.5306,-2.5061,0.0,0.0,0.0,0.0,0.0,0.0,0.0,0.0,0.0,0.0,0.0,-2.6521,-2.6521,-2.6521,-2.6521,-2.6521,-2.6521,-2.6658,-2.6658,-2.6521,-2.6645,-2.6658,-2.6521,-2.6645,-2.6645,-2.6533,-2.6521,-2.6521,-2.6521,-2.6521,-2.6094,-2.5087,-2.4337,-2.3441,-2.2403,-2.1451,-2.0934,-2.0857,-2.0934,-2.0789,-2.0644,-2.0576,-2.0576,-2.0576,-2.0576,-2.0576,-2.0576,-2.0576,-2.0576,-2.0576,-2.0576,-2.0644,-2.0644,-2.1897,-2.2925,-2.3514,-2.5274,-2.7072,-2.8734,-2.9566,-3.0329,-3.1336,-3.2516,-3.3427,-2.0576,-2.0576,-2.0576,-2.0576,0.0,-2.0576,-2.0576,-2.0576,-2.0576,-2.1155,-2.2027,-2.2553,-2.2776,-2.2765,-2.3294,-2.3526,-2.3514,-2.3514,-2.3745,-2.4181,-2.3745,-2.3514,-2.3514,-2.3514,-2.3514,-2.3514,-2.3514,-2.3514,-2.3514,-2.3514,-2.3514,-2.3514,-2.3514,-2.3514,-2.3503,-2.3478,-2.3977,-2.4981,-2.4992,-2.5052,-2.4981,-2.5052,-2.5052,-2.4981,-2.4992,0.0,0.0,0.0,0.0,0.0,0.0,0.0,0.0,-2.3298,0.0,-2.4909,-2.4552,-2.448,-2.4981,-2.5511,-2.5734,-2.5804,-2.6233,-2.6521,-2.6521,-2.6521,-2.6521,-2.6521,-2.6521,-2.6521,-2.6521,-2.6521,-2.6521,-2.6521,-2.6521,-2.6521,-2.6521,-2.6521,-2.6521,-2.6521,-2.6521,-2.5943,-2.448,-2.3891,-2.2861,-2.1603,-2.0934,-2.0576,-2.0576,-2.0576,-2.0576,-2.0576,-2.0576,-2.0576,-2.0576,-2.0576,-2.0576,-2.0576,-2.0576,-2.0576,-2.0576,-2.0576,-2.0722,-2.1231,-2.2113,-2.2999,-2.4108,-2.5463,-2.6896,-2.8542,-2.938,-3.0086,-3.1219,-3.2104,-3.281,-2.0576,-2.0576,-2.0576,-2.0576,-2.0576,-2.0576,-2.0576,-2.0576,-2.0576,0.0,0.0,-2.1735,-2.1735,-2.1811,-2.2627,-2.2627,-2.2103,-2.2702,-2.3073,-2.322,-2.3084,-2.2999,-2.2999,-2.2999,-2.2999,-2.2999,-2.301,-2.301,-2.301,-2.301,-2.2999,-2.2999,-2.2999,-2.301,-2.2999,-2.2999,-2.301,-2.2999,-2.3305,-2.3514,-2.3514,-2.3514,-2.3514,-2.3514,-2.3514,-2.3514,-2.3514,-2.4264,-2.4246,-2.3307,-2.3251,-2.3257,-2.3177,-2.2305,-2.2264,-2.3368,-2.3368,-2.3294,-2.3514,-2.4409,-2.5075,-2.5229,-2.6025,-2.6521,-2.6521,-2.6521,-2.6521,-2.6521,-2.6521,-2.6521,-2.6521,-2.6521,-2.6521,-2.6521,-2.6521,-2.6521,-2.6521,-2.6521,-2.6408,-2.632,-2.6144,-2.5499,-2.3503,-2.322,-2.2638,-2.1088,-2.0644,-2.0576,-2.0576,-2.0576,-2.0576,-2.0576,-2.0576,-2.0576,-2.0576,-2.0576,-2.0576,-2.0576,-2.0576,-2.0576,-2.0576,-2.0576,-2.0934,-2.1735,-2.2103,-2.3073,-2.4564,-2.53,-2.6195,-2.8665,-2.9218,-2.9701,-3.1338,-3.1884,-3.2315,-2.0576,-2.0576,-2.0576,-2.0576,-2.0576,-2.0576,-2.0576,-2.0576,-2.0576,-2.0634,-2.0789,-2.0789,-2.0779,-2.0789,-2.0934,-2.1375,-2.1952,-2.1298,-2.1451,-2.2178,-2.1375,-2.1011,-2.1011,-2.1011,-2.1021,-2.1001,-2.1021,-2.1011,-2.1011,-2.1011,-2.1011,-2.1011,-2.1011,-2.1011,-2.1011,-2.1011,-2.1011,-2.1011,-2.2627,-2.3514,-2.3514,-2.3514,-2.3514,-2.3514,-2.3452,-2.3514,-2.3514,-2.3588,-2.3255,-2.2271,-2.2237,-2.2229,-2.2205,-2.1306,-2.1603,-2.3294,-2.2702,-2.2542,-2.3441,-2.442,-2.537,-2.6164,-2.6465,-2.6521,-2.6521,-2.6521,-2.6521,-2.6521,-2.6521,-2.6521,-2.6521,-2.6521,-2.6452,-2.6452,-2.6452,-2.6452,-2.6414,-2.6358,-2.6042,-2.5337,-2.5171,-2.448,-2.2702,-2.2253,-2.1886,-2.0867,-2.0576,-2.0576,-2.0576,-2.0576,-2.0576,-2.0576,-2.0576,-2.0576,-2.0576,-2.0576,-2.0576,-2.0576,-2.0576,-2.0576,-2.0576,-2.0576,-2.1011,-2.1876,-2.2723,-2.3706,-2.4897,-2.5734,-2.7191,-2.9326,-2.9841,-3.0559,-3.2566,-3.311,-3.3276,-2.0576,-2.0576,-2.0576,-2.0576,-2.0576,-2.0576,-2.0576,-2.0576,-2.0576,-2.0576,-2.0576,-2.0576,-2.0576,-2.0576,-2.0576,-2.0867,-2.1231,-2.0789,-2.0857,-2.1145,-2.0789,-2.0576,-2.0576,-2.0576,-2.0576,-2.0576,-2.0576,-2.0576,-2.0576,-2.0576,-2.0576,-2.0576,-2.0576,-2.0576,-2.0576,-2.0576,-2.0576,-2.0644,-2.1451,-2.1886,-2.1897,-2.1897,-2.1897,-2.1897,-2.1973,-2.1897,-2.1973,-2.2414,-2.2211,-2.1292,-2.1732,-2.1797,-2.1258,-2.0781,-2.1011,-2.1821,-2.1527,-2.1451,-2.1897,-2.285,-2.3822,-2.4802,-2.4838,-2.4897,-2.4872,-2.5865,-2.6521,-2.6521,-2.6521,-2.6521,-2.6521,-2.6521,-2.6302,-2.5734,-2.5701,-2.5492,-2.499,-2.4869,-2.4684,-2.4281,-2.4212,-2.3599,-2.2188,-2.2038,-2.1659,-2.0789,-2.0576,-2.0576,-2.0576,-2.0576,-2.0576,-2.0576,-2.0576,-2.0576,-2.0576,-2.0576,-2.0576,-2.0576,-2.0576,-2.0576,-2.0576,-2.0576,-2.1252,-2.251,-2.342,-2.4499,-2.5876,-2.6801,-2.8226,-2.9794,-3.0463,-3.1273,-3.2915,-3.3754,-3.4167,-2.0576,-2.0576,-2.0576,-2.0576,-2.0576,-2.0576,-2.0576,-2.0576,-2.0576,-2.0576,-2.0576,-2.0576,-2.0576,-2.0576,-2.0576,-2.0576,-2.0576,-2.0576,-2.0566,-2.0576,-2.0576,-2.0576,-2.0576,-2.0576,-2.0576,-2.0576,-2.0576,-2.0576,-2.0576,-2.0576,-2.0576,-2.0576,-2.0576,-2.0576,-2.0576,-2.0576,-2.0576,-2.0576,-2.0576,-2.0576,-2.0576,-2.0576,-2.0576,-2.0576,-2.0644,-2.0576,-2.0644,-2.1298,-2.1375,-2.0712,-2.1308,-2.1364,-2.0644,-2.0576,-2.0576,-2.0576,-2.0576,-2.0712,-2.0934,-2.1593,-2.2414,-2.3435,-2.3498,-2.3508,-2.3664,-2.4873,-2.5791,-2.5791,-2.5709,-2.5791,-2.5721,-2.5709,-2.5499,-2.4767,-2.4684,-2.4389,-2.3642,-2.3538,-2.3345,-2.3246,-2.3191,-2.2776,-2.1962,-2.1669,-2.1375,-2.0789,-2.0576,-2.0576,-2.0576,-2.0625,-2.0723,-2.0723,-2.0723,-2.0742,-2.0723,-2.085,-2.0898,-2.0938,-2.0889,-2.0947,-2.0937,-2.0898,-2.171,-2.3362,-2.4175,-2.5228,-2.6966,-2.7758,-2.8815,-3.0446,-3.1072,-3.1678,-3.3632,-3.4382,-3.5079,-2.0566,-2.0576,-2.0489,-2.0576,-2.0489,-2.0489,-2.0489,-2.0489,-2.0576,-2.0576,-2.0479,-2.0576,-2.0566,-2.0576,-2.0576,-2.0576,-2.0566,-2.0576,-2.0566,-2.0566,-2.0576,-2.0576,-2.0489,-2.0566,-2.0576,-2.0557,-2.0566,-2.0576,-2.0576,-2.0576,-2.0576,-2.0576,-2.0576,-2.0576,-2.0576,-2.0576,-2.0576,-2.0576,-2.0576,-2.0576,-2.0576,-2.0576,-2.0576,-2.0576,-2.0576,-2.0576,-2.0566,-2.0722,-2.0722,-2.0644,-2.0722,-2.0712,-2.0644,-2.0576,-2.0576,-2.0576,-2.0576,-2.0934,-2.1735,-2.1952,-2.2392,-2.3345,-2.3419,-2.3379,-2.3412,-2.361,-2.3734,-2.3818,-2.3806,-2.3952,-2.3806,-2.3879,-2.3879,-2.3734,-2.3666,-2.3604,-2.3385,-2.3512,-2.3185,-2.2237,-2.2174,-2.1821,-2.1011,-2.0857,-2.0789,-2.0644,-2.0576,-2.0576,-2.0596,-2.083,-2.1064,-2.1123,-2.1172,-2.1172,-2.1201,-2.1514,-2.1602,-2.168,-2.1738,-2.166,-2.1621,-2.1722,-2.2443,-2.4051,-2.4847,-2.5697,-2.7262,-2.8195,-2.9014,-3.1087,-3.1943,-3.2532,-3.4617,-3.5295,-3.5811,-1.9678,-1.959,-1.8957,-1.863,-1.863,-1.8621,-1.863,-1.8718,-1.9118,-1.9029,-1.8727,-1.9118,-1.9762,-2.0576,-2.0576,-2.0576,-2.0566,-1.9923,-1.9678,-1.9599,-1.8957,-1.863,-1.87,-1.9353,-1.9687,-1.9756,-2.0323,-2.0576,-2.0576,-2.0566,-2.0576,-2.0576,-2.0576,-2.0576,-2.0576,-2.0576,-2.0576,-2.0576,-2.0576,-2.0576,-2.0576,-2.0576,-2.0576,-2.0576,-2.0576,-2.0576,-2.0576,-2.0576,-2.0576,-2.0576,-2.0576,-2.0576,-2.0576,-2.0576,-2.0576,-2.0576,-2.0576,-2.0789,-2.1155,-2.1155,-2.1375,-2.1756,-2.1821,-2.1756,-2.1821,-2.1756,-2.1821,-2.1897,-2.2776,-2.3514,-2.3441,-2.3514,-2.3283,-2.2754,-2.2613,-2.2433,-2.1811,-2.1809,-2.1602,-2.1258,-2.1158,-2.1078,-2.0722,-2.0576,-2.0576,-2.0576,-2.0576,-2.0576,-2.0586,-2.0732,-2.0937,-2.1201,-2.1445,-2.1611,-2.1641,-2.1748,-2.1894,-2.1904,-2.1894,-2.1894,-2.1924,-2.1894,-2.2584,-2.4714,-2.5262,-2.6283,-2.8201,-2.8975,-2.9753,-3.1653,-3.345,-3.4347,-3.5329,-3.5504,-3.6133,-1.9045,-1.8798,-1.7738,-1.7342,-1.7342,-1.7342,-1.7342,-1.744,-1.8053,-1.7946,-1.735,-1.7644,-1.8531,-1.9599,-1.9678,-1.9678,-1.959,-1.8868,-1.855,-1.8479,-1.7666,-1.7342,-1.7423,-1.8149,-1.855,-1.863,-1.9274,-1.9678,-1.9678,-1.9678,-1.9668,-1.9678,-1.9678,-1.9678,-1.9678,-1.9678,-1.9668,-1.9668,-1.9668,-1.9835,-2.0079,-2.0157,-2.0323,-2.0566,-2.0576,-2.0576,-2.0576,-2.0576,-2.0576,-2.0576,-2.0576,-2.0576,-2.0576,-2.0576,-2.0576,-2.0576,-2.0576,-2.0576,-2.0576,-2.0576,-2.0576,-2.0576,-2.0576,-2.0576,-2.0576,-2.0576,-2.0576,-2.0722,-2.1907,-2.2638,-2.2713,-2.2702,-2.2339,-2.1725,-2.1613,-2.1312,-2.076,-2.0576,-2.0664,-2.0576,-2.0654,-2.0576,-2.0576,-2.0576,-2.0576,-2.0576,-2.0576,-2.0576,-2.0605,-2.0684,-2.0908,-2.1191,-2.1602,-2.1904,-2.2031,-2.2227,-2.2207,-2.2236,-2.2295,-2.2305,-2.231,-2.2404,-2.3124,-2.54,-2.5914,-2.6951,-2.8605,-2.9605,-3.0443,-3.2249,-3.4041,-3.5329,-3.5489,-3.5489,-3.6022,-1.9045,-1.8798,-1.7738,-1.718,-1.7261,-1.718,-1.7261,-1.7107,-1.7963,-1.7865,-1.709,-1.6587,-1.675,-1.7415,-1.7415,-1.7415,-1.7504,-1.7423,-1.7334,-1.7334,-1.7261,-1.7261,-1.7342,-1.7342,-1.7342,-1.7423,-1.7666,-1.7658,-1.7577,-1.7496,-1.7423,-1.7496,-1.7658,-1.7585,-1.7658,-1.7666,-1.7504,-1.7658,-1.7666,-1.806,-1.8877,-1.9045,-1.952,-2.0323,-2.0566,-2.0489,-2.0566,-2.0566,-2.0566,-2.0566,-2.0566,-2.0576,-2.0576,-2.0576,-2.0576,-2.0576,-2.0576,-2.0576,-2.0576,-2.0576,-2.0576,-2.0576,-2.0576,-2.0576,-2.0576,-2.0576,-2.0576,-2.0566,-2.0789,-2.0944,-2.0944,-2.1088,-2.0944,-2.0789,-2.0702,-2.0692,-2.0634,-2.0576,-2.0576,-2.0576,-2.0576,-2.0576,-2.0576,-2.0576,-2.0576,-2.0576,-2.0576,-2.0566,-2.0528,-2.081,-2.1033,-2.1179,-2.15,-2.2002,-2.2402,-2.2461,-2.2764,-2.2734,-2.2529,-2.29,-2.3374,-2.3912,-2.4998,-2.6057,-2.6932,-2.8032,-2.9213,-3.019,-3.097,-3.2478,-3.4192,-3.5279,-3.5489,-3.5489,-3.607,-1.709,-1.5876,-1.5394,-1.5228,-1.5228,-1.5228,-1.5228,-1.5235,-1.5521,-1.5514,-1.5228,-1.4935,-1.5025,-1.5228,-1.5228,-1.6041,-1.7172,-1.6601,-1.6273,-1.6191,-1.5553,-1.5228,-1.5311,-1.5951,-1.6273,-1.6355,-1.6927,-1.7342,-1.7342,-1.7342,-1.7342,-1.7342,-1.7342,-1.7342,-1.7342,-1.7342,-1.7342,-1.7261,-1.7342,-1.7496,-1.7819,-1.7908,-1.8141,-1.8461,-1.9186,-1.9599,-1.9608,-1.9608,-1.9599,-1.9608,-2.0245,-2.0576,-2.0576,-2.0576,-2.0576,-2.0576,-2.0576,-2.0576,-2.0576,-2.0576,-2.0576,-2.0576,-2.0576,-2.0576,-2.0576,-2.0576,-2.0576,-2.0576,-2.0576,-2.0576,-2.0576,-2.0576,-2.0576,-2.0576,-2.0576,-2.0576,-2.0576,-2.0576,-2.0576,-2.0576,-2.0576,-2.0576,-2.0576,-2.0576,-2.0576,-2.0576,-2.0576,-2.0323,-1.9854,-2.0241,-2.0661,-2.0491,-2.0862,-2.1621,-2.2051,-2.2187,-2.2305,-2.2314,-2.2305,-2.2451,-2.2834,-2.376,-2.4841,-2.5984,-2.7278,-2.8615,-2.9601,-3.097,-3.1769,-3.2975,-3.4758,-3.5344,-3.5489,-3.5718,-3.6352,-1.6041,-1.425,-1.4088,-1.4088,-1.4088,-1.4088,-1.4088,-1.4088,-1.4088,-1.4088,-1.4088,-1.4088,-1.4088,-1.4088,-1.4088,-1.4817,-1.6116,-1.5545,-1.522,-1.5137,-1.4412,-1.4088,-1.425,-1.4817,-1.522,-1.5296,-1.5876,-1.6288,-1.6288,-1.6288,-1.6288,-1.6288,-1.6288,-1.6288,-1.6288,-1.6288,-1.6281,-1.6288,-1.6288,-1.6363,-1.6683,-1.6756,-1.7017,-1.7261,-1.7738,-1.8141,-1.847,-1.8798,-1.9045,-1.9125,-2.001,-2.0576,-2.0576,-2.0576,-2.0576,-2.0576,-2.0576,-2.0576,-2.0576,-2.0576,-2.0576,-2.0576,-2.0576,-2.0576,-2.0576,-2.0576,-2.0576,-2.0576,-2.0576,-2.0576,-2.0576,-2.0576,-2.0576,-2.0576,-2.0576,-2.0576,-2.0576,-2.0576,-2.0576,-2.0576,-2.0576,-2.0576,-2.0566,-2.0576,-2.0576,-2.0576,-2.0323,-1.9844,-1.9756,-1.9687,-2.0156,-2.0024,-2.0579,-2.1033,-2.1328,-2.1426,-2.1816,-2.1894,-2.1934,-2.206,-2.2472,-2.3536,-2.4654,-2.5923,-2.7275,-2.8717,-3.0126,-3.1569,-3.2749,-3.3822,-3.4691,-3.5424,-3.5718,-3.6117,-3.6753,-1.6034,-1.425,-1.4088,-1.4088,-1.4088,-1.4088,-1.4088,-1.4088,-1.4088,-1.4088,-1.4088,-1.4088,-1.4088,-1.4088,-1.4088,-1.4166,-1.4334,-1.4328,-1.425,-1.425,-1.4166,-1.4088,-1.4088,-1.4166,-1.425,-1.425,-1.4166,-1.425,-1.4419,-1.4412,-1.4412,-1.425,-1.4412,-1.4496,-1.425,-1.4419,-1.425,-1.4334,-1.4412,-1.4817,-1.5538,-1.5703,-1.6108,-1.6854,-1.6281,-1.6273,-1.718,-1.831,-1.8807,-1.8975,-2.0001,-2.0566,-2.0489,-2.0323,-2.0479,-2.0401,-2.0489,-2.0566,-2.0576,-2.0576,-2.0576,-2.0576,-2.0576,-2.0576,-2.0576,-2.0576,-2.0576,-2.0576,-2.0576,-2.0576,-2.0576,-2.0576,-2.0576,-2.0576,-2.0576,-2.0576,-2.0576,-2.0566,-2.0566,-2.0489,-2.0401,-2.0566,-2.0557,-2.0401,-2.0323,-2.0245,-1.9599,-1.9204,-1.9678,-1.9441,-1.9608,-2.0117,-2.0517,-2.0801,-2.0703,-2.0644,-2.1152,-2.1562,-2.1631,-2.1801,-2.2341,-2.3213,-2.4407,-2.5622,-2.7496,-2.8948,-3.0642,-3.2031,-3.3003,-3.4041,-3.4839,-3.5489,-3.5718,-3.6117,-3.6919,-1.5379,-1.4173,-1.4088,-1.4088,-1.4088,-1.4088,-1.4088,-1.4088,-1.4088,-1.4088,-1.4088,-1.4088,-1.4088,-1.4088,-1.4088,-1.4088,-1.4088,-1.4088,-1.4088,-1.3997,-1.4088,-1.4088,-1.4088,-1.4088,-1.4088,-1.4088,-1.4088,-1.4088,-1.4088,-1.4088,-1.4088,-1.4088,-1.4088,-1.4088,-1.4088,-1.4088,-1.4088,-1.4088,-1.4088,-1.4328,-1.4573,-1.4566,-1.4817,-1.4977,-1.4734,-1.4817,-1.5144,-1.6846,-1.7781,-1.7857,-1.9566,-2.0245,-1.952,-1.8789,-1.8709,-1.9362,-1.952,-1.9923,-2.0479,-2.0576,-2.0576,-2.0576,-2.0576,-2.0576,-2.0576,-2.0576,-2.0576,-2.0576,-2.0576,-2.0576,-2.0576,-2.0576,-2.0566,-2.0576,-2.0576,-2.0566,-2.0411,-1.9932,-1.952,-1.952,-1.952,-1.952,-1.952,-1.9511,-1.9599,-1.9353,-1.855,-1.806,-1.831,-1.8877,-1.9045,-1.9441,-1.9932,-2.0576,-2.0576,-2.0576,-2.082,-2.1103,-2.1191,-2.1299,-2.193,-2.2993,-2.4161,-2.5673,-2.7539,-2.9234,-3.0927,-3.215,-3.303,-3.4216,-3.5169,-3.5524,-3.5604,-3.6243,-3.7175,-1.5333,-1.4249,-1.4249,-1.4188,-1.4095,-1.4088,-1.4088,-1.4088,-1.4088,-1.4088,-1.3997,-1.3639,-1.347,-1.3294,-1.3033,-1.2784,-1.2784,-1.2778,-1.2778,-1.3039,-1.3828,-1.4088,-1.4088,-1.4088,-1.4088,-1.4088,-1.4088,-1.4088,-1.4088,-1.4088,-1.4088,-1.4088,-1.4088,-1.4088,-1.4088,-1.4088,-1.4088,-1.4088,-1.4088,-1.4088,-1.4088,-1.4088,-1.4088,-1.4088,-1.4088,-1.4088,-1.4257,-1.5794,-1.6714,-1.6984,-1.8443,-1.8973,-1.8381,-1.7738,-1.7827,-1.8718,-1.9125,-1.9529,-2.0411,-2.0576,-2.0576,-2.0576,-2.0576,-2.0576,-2.0576,-2.0576,-2.0576,-2.0576,-2.0576,-2.0489,-2.0157,-2.0401,-2.0401,-2.0001,-2.0401,-2.0401,-2.0079,-1.9441,-1.8789,-1.863,-1.8709,-1.8709,-1.855,-1.8877,-1.8718,-1.839,-1.7415,-1.7253,-1.7577,-1.823,-1.863,-1.9204,-2.0167,-2.0566,-2.0576,-2.0576,-2.0576,-2.0644,-2.0703,-2.083,-2.1174,-2.2785,-2.4138,-2.582,-2.7569,-2.8872,-3.0481,-3.1611,-3.2638,-3.3941,-3.5265,-3.5524,-3.5733,-3.6768,-3.7632,-1.5725,-1.4556,-1.4543,-1.4402,-1.4188,-1.4155,-1.4148,-1.4122,-1.3913,-1.3906,-1.3646,-1.2681,-1.2242,-1.198,-1.1381,-1.0961,-1.0697,-1.0869,-1.0956,-1.1477,-1.2607,-1.3561,-1.3476,-1.3646,-1.373,-1.3822,-1.3997,-1.4088,-1.4088,-1.4088,-1.4088,-1.4088,-1.4088,-1.4088,-1.4088,-1.4088,-1.4088,-1.4088,-1.4088,-1.4088,-1.4088,-1.4088,-1.4088,-1.4088,-1.4088,-1.4088,-1.425,-1.5054,-1.5681,-1.5957,-1.692,-1.7357,-1.7236,-1.7172,-1.7415,-1.8399,-1.8718,-1.9195,-1.9991,-2.0079,-2.0079,-2.0079,-2.0079,-2.0401,-2.0079,-2.0001,-2.0001,-2.0001,-2.0079,-1.9835,-1.9274,-1.9599,-1.9668,-1.9204,-1.9756,-1.9844,-1.9036,-1.8798,-1.806,-1.7577,-1.8069,-1.8399,-1.7334,-1.8069,-1.798,-1.7334,-1.6355,-1.6601,-1.7819,-1.8221,-1.8621,-1.9432,-2.0411,-2.0566,-2.0576,-2.0576,-2.0576,-2.0576,-2.0566,-2.0615,-2.0976,-2.2552,-2.405,-2.5769,-2.7335,-2.8643,-2.9915,-3.1021,-3.2348,-3.3809,-3.4678,-3.525,-3.5993,-3.6958,-3.7831,-1.5178,-1.4843,-1.485,-1.4803,-1.4703,-1.4509,-1.4402,-1.4196,-1.3199,-1.2869,-1.251,-1.1552,-1.1042,-1.1037,-1.0697,-1.0611,-1.0438,-1.0524,-1.0611,-1.0697,-1.1133,-1.1483,-1.1735,-1.2425,-1.2766,-1.2851,-1.3561,-1.4088,-1.4088,-1.4088,-1.4088,-1.4088,-1.4088,-1.4088,-1.4088,-1.4088,-1.4088,-1.4088,-1.4088,-1.4088,-1.4088,-1.4088,-1.4088,-1.4088,-1.4088,-1.4088,-1.4088,-1.4328,-1.5379,-1.6675,-1.6299,-1.6133,-1.6041,-1.5462,-1.5636,-1.6519,-1.6683,-1.709,-1.798,-1.823,-1.8221,-1.8141,-1.8381,-1.8141,-1.8149,-1.823,-1.8149,-1.8149,-1.8149,-1.8141,-1.79,-1.806,-1.798,-1.7989,-1.8709,-1.8877,-1.79,-1.7009,-1.6429,-1.6191,-1.6429,-1.6429,-1.6355,-1.6437,-1.6593,-1.6116,-1.5462,-1.5379,-1.709,-1.7827,-1.806,-1.959,-2.0566,-2.0566,-2.0576,-2.0576,-2.0576,-2.0576,-2.0566,-2.0654,-2.1272,-2.2381,-2.3728,-2.5206,-2.6689,-2.7996,-2.9362,-3.0618,-3.2141,-3.3336,-3.417,-3.4775,-3.5723,-3.6699,-3.7753,-1.5257,-1.5144,-1.5144,-1.5077,-1.4957,-1.4776,-1.4432,-1.3736,-1.2958,-1.214,-1.1516,-1.0386,-0.9923,-0.9836,-0.9314,-0.9139,-0.9139,-0.9139,-0.9139,-0.9139,-0.9139,-0.9657,-1.0524,-1.1386,-1.1552,-1.1724,-1.2766,-1.3288,-1.3464,-1.3822,-1.4088,-1.4088,-1.4088,-1.4088,-1.4088,-1.4088,-1.4088,-1.4088,-1.4088,-1.4088,-1.4088,-1.4088,-1.4088,-1.4088,-1.4088,-1.4088,-1.4088,-1.4088,-1.4901,-1.5974,-1.5634,-1.5,-1.4992,-1.4496,-1.4573,-1.5621,-1.5696,-1.6191,-1.7009,-1.7342,-1.7342,-1.7342,-1.7342,-1.7342,-1.7342,-1.7342,-1.7342,-1.7423,-1.7342,-1.709,-1.6683,-1.6601,-1.6601,-1.6683,-1.7245,-1.7334,-1.6683,-1.6191,-1.5538,-1.5296,-1.5379,-1.5462,-1.5137,-1.5372,-1.5372,-1.5054,-1.4657,-1.547,-1.6846,-1.718,-1.7827,-1.9353,-1.9835,-1.9678,-1.9599,-1.9599,-2.0089,-2.0167,-2.0576,-2.0644,-2.1308,-2.2264,-2.3537,-2.4861,-2.6122,-2.7385,-2.8812,-3.0011,-3.1041,-3.2179,-3.3258,-3.4194,-3.5002,-3.6173,-3.7254,-1.5678,-1.5438,-1.5438,-1.5199,-1.4903,-1.4837,-1.3985,-1.2916,-1.2327,-1.1572,-1.0538,-0.9336,-0.8748,-0.8627,-0.7929,-0.7228,-0.7228,-0.7489,-0.7312,-0.7401,-0.7577,-0.8273,-0.9744,-1.0265,-1.0438,-1.0611,-1.1552,-1.2066,-1.2413,-1.3294,-1.3822,-1.3822,-1.3913,-1.4088,-1.4088,-1.4088,-1.4088,-1.4088,-1.4088,-1.4088,-1.4088,-1.4088,-1.4088,-1.4088,-1.4088,-1.4088,-1.4088,-1.4166,-1.4573,-1.5462,-1.4566,-1.4257,-1.4173,-1.4088,-1.4489,-1.522,-1.5379,-1.5786,-1.669,-1.669,-1.6854,-1.669,-1.6772,-1.6927,-1.6683,-1.6609,-1.6609,-1.6527,-1.6935,-1.6281,-1.5703,-1.5538,-1.5538,-1.5538,-1.5621,-1.5538,-1.5538,-1.5538,-1.513,-1.4328,-1.4977,-1.4894,-1.4734,-1.4727,-1.522,-1.4734,-1.4496,-1.5636,-1.669,-1.718,-1.7908,-1.8957,-1.8957,-1.847,-1.839,-1.839,-1.9116,-1.9678,-2.0333,-2.0722,-2.1308,-2.2264,-2.3452,-2.4634,-2.548,-2.6741,-2.8199,-2.9265,-3.0199,-3.1353,-3.2718,-3.3215,-3.3789,-3.5214,-3.6469,-1.5798,-1.5738,-1.5738,-1.5119,-1.4163,-1.3882,-1.3031,-1.1791,-1.056,-1.0026,-0.9264,-0.8227,-0.7696,-0.7496,-0.7234,-0.7139,-0.7139,-0.7139,-0.7139,-0.7139,-0.7139,-0.7316,-0.8097,-0.8794,-0.9235,-0.9492,-1.0433,-1.095,-1.1209,-1.2072,-1.2674,-1.2766,-1.3385,-1.4088,-1.3997,-1.3906,-1.4088,-1.4088,-1.4088,-1.4088,-1.4088,-1.4088,-1.4088,-1.4088,-1.4088,-1.4088,-1.4088,-1.4088,-1.425,-1.4328,-1.425,-1.4088,-1.4088,-1.4088,-1.425,-1.4412,-1.4489,-1.4657,-1.4824,-1.4985,-1.4817,-1.4985,-1.5068,-1.4817,-1.4817,-1.4901,-1.4901,-1.4824,-1.4824,-1.4817,-1.4657,-1.4489,-1.4573,-1.4573,-1.4573,-1.4489,-1.4489,-1.4489,-1.4419,-1.425,-1.4334,-1.4328,-1.4166,-1.4243,-1.4412,-1.425,-1.4901,-1.5876,-1.6527,-1.709,-1.7577,-1.823,-1.79,-1.7496,-1.7649,-1.806,-1.9116,-1.9687,-2.0245,-2.0644,-2.1231,-2.1886,-2.2999,-2.3818,-2.4647,-2.6064,-2.7776,-2.8712,-2.9715,-3.091,-3.205,-3.2719,-3.3462,-3.4634,-3.5657,-1.5825,-1.573,-1.5146,-1.4561,-1.3855,-1.3059,-1.1955,-1.0861,-0.9931,-0.9141,-0.847,-0.7625,-0.7326,-0.7241,-0.7177,-0.7139,-0.7139,-0.7139,-0.7139,-0.7139,-0.7139,-0.7139,-0.7139,-0.7665,-0.8105,-0.8277,-0.9231,-0.9749,-1.0091,-1.0869,-1.1552,-1.1552,-1.2169,-1.2687,-1.3203,-1.3288,-1.3555,-1.3997,-1.4088,-1.4088,-1.4088,-1.4088,-1.4088,-1.4088,-1.4088,-1.4088,-1.4088,-1.4088,-1.4088,-1.4088,-1.4088,-1.4088,-1.4088,-1.4088,-1.4088,-1.4088,-1.4088,-1.4088,-1.4088,-1.4088,-1.4166,-1.4088,-1.4088,-1.4088,-1.4088,-1.4088,-1.4088,-1.4088,-1.4173,-1.4088,-1.4088,-1.4088,-1.4088,-1.4088,-1.4088,-1.4088,-1.4088,-1.4088,-1.4088,-1.4088,-1.4173,-1.4166,-1.4088,-1.4088,-1.4088,-1.4166,-1.425,-1.5144,-1.5869,-1.6355,-1.6519,-1.6846,-1.6683,-1.6683,-1.6919,-1.773,-1.9362,-1.9923,-2.0411,-2.0576,-2.0789,-2.1593,-2.2403,-2.3368,-2.4409,-2.5869,-2.7432,-2.8336,-2.9317,-3.0441,-3.1486,-3.2234,-3.3131,-3.4085,-3.5048,-1.573,-1.5439,-1.4364,-1.368,-1.3199,-1.2037,-1.0863,-0.9768,-0.9542,-0.8775,-0.7959,-0.7536,-0.7441,-0.7346,-0.7241,-0.7173,-0.7143,-0.7139,-0.7139,-0.7139,-0.7139,-0.7139,-0.7139,-0.7228,-0.7316,-0.7228,-0.8101,-0.8623,-0.8882,-0.9662,-1.0351,-1.0351,-1.0611,-1.13,-1.1901,-1.206,-1.2577,-1.3464,-1.362,-1.3893,-1.4082,-1.4088,-1.4088,-1.4088,-1.4088,-1.4088,-1.4088,-1.4088,-1.4088,-1.4088,-1.4088,-1.4088,-1.4088,-1.4088,-1.4088,-1.4088,-1.4088,-1.4088,-1.4088,-1.4088,-1.4088,-1.4088,-1.4088,-1.4088,-1.4088,-1.4088,-1.4088,-1.4088,-1.4088,-1.4088,-1.4088,-1.4088,-1.4088,-1.4088,-1.4088,-1.4088,-1.4088,-1.4088,-1.4088,-1.4088,-1.4088,-1.4088,-1.4088,-1.4088,-1.4088,-1.4173,-1.425,-1.4489,-1.5213,-1.5696,-1.5944,-1.5869,-1.5711,-1.6445,-1.6846,-1.7811,-1.9362,-2.0089,-2.0576,-2.0576,-2.0644,-2.1451,-2.2328,-2.3294,-2.4457,-2.5926,-2.7232,-2.8349,-2.9254,-3.0147,-3.094,-3.1877,-3.268,-3.352,-3.4386,-1.514,-1.4172,-1.3974,-1.2711,-1.0774,-1.0386,-0.9604,-0.8432,-0.8393,-0.8119,-0.7814,-0.7753,-0.758,-0.7424,-0.7356,-0.7265,-0.7166,-0.7139,-0.7139,-0.7139,-0.7139,-0.7139,-0.7139,-0.7139,-0.7139,-0.7139,-0.7489,-0.7577,-0.7837,-0.8536,-0.9148,-0.9405,-1.0009,-1.0611,-1.0773,-1.0919,-1.1519,-1.2662,-1.288,-1.314,-1.3899,-1.4088,-1.4088,-1.4088,-1.4088,-1.4088,-1.4088,-1.4088,-1.4088,-1.4088,-1.4088,-1.4088,-1.4088,-1.4088,-1.4088,-1.4088,-1.4088,-1.4088,-1.4088,-1.4088,-1.4088,-1.4088,-1.4088,-1.4082,-1.3997,-1.3997,-1.3906,-1.3906,-1.3997,-1.4004,-1.4088,-1.4088,-1.4088,-1.4088,-1.4088,-1.4088,-1.4088,-1.4088,-1.4088,-1.4088,-1.4088,-1.4088,-1.4088,-1.4088,-1.4088,-1.425,-1.4489,-1.4657,-1.5137,-1.5462,-1.5621,-1.5304,-1.4901,-1.5876,-1.6854,-1.8149,-1.9441,-2.0167,-2.0576,-2.0576,-2.0867,-2.1451,-2.2328,-2.3294,-2.4469,-2.5742,-2.7031,-2.8233,-2.9254,-3.0086,-3.0837,-3.1524,-3.2313,-3.3084,-3.3472,-1.4459,-1.3776,-1.2517,-1.1161,-0.9998,-0.9213,-0.8627,-0.8038,-0.8038,-0.8001,-0.7923,-0.7841,-0.7695,-0.7512,-0.7397,-0.7285,-0.7173,-0.7139,-0.7139,-0.7139,-0.7139,-0.7139,-0.7139,-0.7139,-0.7139,-0.7139,-0.7139,-0.7139,-0.7139,-0.7661,-0.8017,-0.8101,-0.8619,-0.9052,-0.9566,-0.9716,-1.0747,-1.1781,-1.2342,-1.2856,-1.399,-1.4088,-1.4088,-1.4088,-1.4088,-1.4088,-1.4088,-1.4088,-1.4088,-1.4088,-1.4088,-1.4088,-1.4082,-1.3997,-1.4082,-1.3997,-1.4082,-1.4082,-1.4088,-1.4088,-1.4088,-1.4088,-1.4082,-1.373,-1.3379,-1.3118,-1.3203,-1.3203,-1.3203,-1.347,-1.3997,-1.4088,-1.4088,-1.4088,-1.4088,-1.4088,-1.4088,-1.4088,-1.4088,-1.4088,-1.4088,-1.4088,-1.4088,-1.4088,-1.4088,-1.4328,-1.465,-1.4817,-1.4977,-1.5061,-1.5137,-1.5304,-1.5228,-1.6527,-1.7504,-1.855,-1.952,-2.0245,-2.0576,-2.0576,-2.0934,-2.1593,-2.2403,-2.3294,-2.4457,-2.5767,-2.6841,-2.8117,-2.9066,-2.995,-3.0524,-3.1131,-3.1879,-3.2492,-3.3039,-1.3392,-1.2909,-1.0867,-0.9899,-0.941,-0.8531,-0.8038,-0.8038,-0.8038,-0.8038,-0.8021,-0.7913,-0.7767,-0.7587,-0.7407,-0.7251,-0.7143,-0.7139,-0.7139,-0.7139,-0.7139,-0.7139,-0.7139,-0.7139,-0.7139,-0.7139,-0.7139,-0.7139,-0.7139,-0.7228,-0.7139,-0.7316,-0.7139,-0.7492,-0.836,-0.8515,-0.9986,-1.1,-1.1974,-1.2578,-1.3711,-1.4088,-1.4088,-1.4088,-1.4088,-1.4088,-1.4088,-1.4088,-1.3822,-1.373,-1.3646,-1.3561,-1.3385,-1.3385,-1.3392,-1.3476,-1.3822,-1.399,-1.373,-1.3646,-1.3385,-1.3039,-1.3288,-1.276,-1.2334,-1.1986,-1.2072,-1.2237,-1.2413,-1.2942,-1.3822,-1.4088,-1.4088,-1.4088,-1.4088,-1.4088,-1.4088,-1.4088,-1.4088,-1.4088,-1.4088,-1.4088,-1.4088,-1.4088,-1.4088,-1.4088,-1.4412,-1.4412,-1.4489,-1.4412,-1.4573,-1.5228,-1.5876,-1.7342,-1.839,-1.9036,-1.9844,-2.0401,-2.0566,-2.0576,-2.1088,-2.1669,-2.2563,-2.3441,-2.4838,-2.6057,-2.7002,-2.7855,-2.8812,-2.9642,-3.0194,-3.0807,-3.1652,-3.2382,-3.2949,-1.1458,-1.0485,-1.0194,-0.9312,-0.8333,-0.8038,-0.8038,-0.8038,-0.8038,-0.8038,-0.8038,-0.7994,-0.7838,-0.7577,-0.7295,-0.7173,-0.7058,-0.6962,-0.6962,-0.7051,-0.6962,-0.6962,-0.7139,-0.7139,-0.7139,-0.7139,-0.7139,-0.7139,-0.7139,-0.7139,-0.7139,-0.7139,-0.7139,-0.7228,-0.7489,-0.757,-0.8009,-0.9296,-1.0394,-1.1843,-1.3529,-1.3828,-1.3828,-1.3913,-1.3828,-1.3737,-1.3652,-1.3561,-1.3385,-1.2595,-1.2504,-1.1986,-1.1214,-1.1042,-1.1042,-1.1649,-1.2601,-1.3646,-1.2766,-1.251,-1.2163,-1.1643,-1.1359,-1.1005,-1.0854,-1.0692,-1.0945,-1.2237,-1.2151,-1.2504,-1.3385,-1.3906,-1.3997,-1.3822,-1.3561,-1.373,-1.3906,-1.3215,-1.33,-1.3906,-1.3822,-1.3997,-1.4082,-1.4088,-1.4088,-1.4088,-1.4088,-1.4088,-1.4088,-1.4088,-1.4489,-1.522,-1.5876,-1.7253,-1.8559,-1.9283,-1.9923,-2.0489,-2.0566,-2.0644,-2.1011,-2.1593,-2.2713,-2.3818,-2.5063,-2.6013,-2.6688,-2.7537,-2.8556,-2.9442,-3.0208,-3.0837,-3.1452,-3.216,-3.2895,-0.9801,-0.9899,-0.9213,-0.8531,-0.8038,-0.8038,-0.8038,-0.8038,-0.8038,-0.8038,-0.8021,-0.794,-0.7746,-0.7376,-0.7227,-0.7143,-0.6962,-0.6428,-0.6517,-0.6694,-0.6514,-0.6425,-0.6962,-0.7139,-0.7139,-0.7051,-0.7139,-0.7139,-0.7139,-0.7139,-0.7139,-0.7139,-0.7139,-0.7139,-0.7139,-0.7139,-0.7841,-0.896,-1.0043,-1.1064,-1.1895,-1.2174,-1.2169,-1.2174,-1.2174,-1.226,-1.226,-1.2083,-1.1912,-1.1386,-1.13,-1.1123,-1.0697,-1.0611,-1.0611,-1.0697,-1.1477,-1.1821,-1.1386,-1.13,-1.0956,-1.0778,-1.0504,-1.0423,-0.9749,-0.9139,-0.9226,-1.0265,-1.0351,-1.0956,-1.1912,-1.2083,-1.2083,-1.2169,-1.251,-1.2832,-1.2832,-1.2339,-1.2169,-1.2948,-1.3639,-1.3646,-1.3822,-1.4088,-1.4088,-1.4088,-1.4088,-1.4088,-1.4088,-1.4088,-1.465,-1.5538,-1.6108,-1.6838,-1.8149,-1.9204,-1.9766,-2.0245,-2.0566,-2.0644,-2.0857,-2.1603,-2.2776,-2.3745,-2.4707,-2.5569,-2.6358,-2.7417,-2.8492,-2.938,-3.0343,-3.0896,-3.1452,-3.216,-3.2949,-0.863,-0.941,-0.8432,-0.8038,-0.8038,-0.8038,-0.8038,-0.8038,-0.8038,-0.8038,-0.7987,-0.7748,-0.7325,-0.6645,-0.6499,-0.6334,-0.6065,-0.5354,-0.5534,-0.5711,-0.5534,-0.5445,-0.5888,-0.6245,-0.6605,-0.6694,-0.6959,-0.7051,-0.7139,-0.7139,-0.7139,-0.7139,-0.7139,-0.7139,-0.7139,-0.7228,-0.7669,-0.8915,-0.9666,-1.026,-1.0702,-1.0788,-1.0697,-1.0697,-1.0611,-1.0611,-1.0611,-1.0697,-1.0697,-1.0183,-1.0183,-1.0009,-0.9575,-0.9396,-0.9401,-0.9396,-0.9657,-0.9657,-0.9744,-0.9831,-0.9923,-0.9831,-0.9657,-0.9135,-0.8536,-0.758,-0.7665,-0.9056,-0.9148,-0.9666,-1.0269,-1.0697,-1.0869,-1.095,-1.0935,-1.1252,-1.1577,-1.1182,-1.116,-1.1824,-1.2502,-1.3027,-1.3294,-1.3828,-1.4088,-1.4088,-1.4088,-1.4088,-1.4173,-1.4166,-1.481,-1.5613,-1.5861,-1.6675,-1.8141,-1.9125,-1.9687,-2.0089,-2.0489,-2.0867,-2.1155,-2.1886,-2.3073,-2.3891,-2.4564,-2.5755,-2.696,-2.767,-2.8363,-2.9254,-3.0133,-3.0837,-3.1495,-3.2201,-3.3093,-0.8038,-0.8134,-0.8038,-0.8038,-0.8038,-0.8038,-0.8038,-0.8038,-0.8038,-0.7925,-0.7756,-0.7548,-0.6103,-0.4872,-0.5051,-0.4999,-0.3926,-0.3749,-0.4016,-0.4016,-0.3838,-0.3926,-0.4461,-0.5087,-0.5534,-0.5714,-0.6337,-0.6871,-0.7051,-0.7051,-0.7051,-0.7139,-0.7139,-0.7139,-0.7139,-0.7139,-0.7595,-0.8488,-0.8903,-0.9492,-1.0009,-1.0265,-1.0265,-1.0351,-1.0438,-1.0611,-1.0524,-1.0265,-0.9836,-0.9061,-0.8973,-0.8623,-0.8097,-0.7921,-0.8009,-0.7921,-0.7921,-0.7921,-0.8097,-0.8536,-0.8364,-0.7749,-0.7573,-0.7749,-0.7577,-0.7316,-0.7753,-0.8536,-0.854,-0.9061,-0.9923,-1.0524,-1.0005,-0.9913,-0.9735,-1.0082,-1.0322,-1.0302,-1.0371,-1.0917,-1.1516,-1.2198,-1.3118,-1.3822,-1.4088,-1.4088,-1.4088,-1.4088,-1.4334,-1.4412,-1.5054,-1.5613,-1.5696,-1.6593,-1.839,-1.9116,-1.9283,-1.9923,-2.0489,-2.1011,-2.1527,-2.2478,-2.3368,-2.4253,-2.5063,-2.6239,-2.7404,-2.8038,-2.8734,-2.924,-2.9997,-3.0999,-3.1766,-3.2422,-3.3339,-0.8038,-0.8038,-0.8038,-0.8038,-0.8038,-0.8038,-0.8038,-0.8038,-0.8038,-0.7426,-0.6588,-0.5657,-0.4697,-0.3984,-0.3954,-0.4105,-0.3481,-0.2769,-0.2948,-0.3126,-0.3037,-0.3035,-0.3482,-0.3927,-0.4285,-0.4641,-0.5442,-0.6071,-0.6071,-0.6782,-0.7051,-0.7139,-0.7139,-0.7139,-0.7139,-0.7139,-0.7415,-0.7595,-0.7852,-0.8101,-0.8273,-0.8444,-0.8444,-0.8444,-0.8444,-0.8444,-0.8444,-0.8444,-0.8185,-0.7925,-0.7841,-0.7489,-0.7228,-0.7139,-0.7139,-0.7139,-0.7139,-0.7139,-0.7139,-0.758,-0.7489,-0.7404,-0.7139,-0.7139,-0.7139,-0.7139,-0.7224,-0.7661,-0.7837,-0.836,-0.8273,-0.8444,-0.8269,-0.844,-0.8703,-0.9061,-0.9144,-0.9122,-0.9653,-1.0183,-1.1034,-1.1746,-1.2863,-1.3828,-1.3997,-1.4088,-1.4088,-1.4173,-1.4334,-1.4496,-1.5054,-1.553,-1.5696,-1.6756,-1.847,-1.8798,-1.8868,-1.9756,-2.0576,-2.1011,-2.1593,-2.2713,-2.3588,-2.4541,-2.5487,-2.6595,-2.7604,-2.8427,-2.9115,-2.969,-3.0495,-3.1495,-3.216,-3.268,-3.3479,-0.8038,-0.8038,-0.8038,-0.8038,-0.8038,-0.8038,-0.7739,-0.7428,-0.7387,-0.6341,-0.4701,-0.3981,-0.3188,-0.2872,-0.2948,-0.2681,-0.2236,-0.1701,-0.1879,-0.1879,-0.17,-0.1879,-0.2503,-0.3215,-0.3838,-0.3926,-0.5176,-0.6071,-0.616,-0.6786,-0.7051,-0.7139,-0.7139,-0.7139,-0.7139,-0.7139,-0.7139,-0.7139,-0.7139,-0.7139,-0.7228,-0.7228,-0.7228,-0.7312,-0.7312,-0.7312,-0.7401,-0.7489,-0.7401,-0.7316,-0.7228,-0.7139,-0.7139,-0.7139,-0.7139,-0.7139,-0.7139,-0.7051,-0.7051,-0.7139,-0.7139,-0.7139,-0.7139,-0.7139,-0.7139,-0.7139,-0.7228,-0.7139,-0.7139,-0.7139,-0.7139,-0.7401,-0.7489,-0.7658,-0.7658,-0.7929,-0.8021,-0.8101,-0.8894,-0.9538,-1.0284,-1.0788,-1.2169,-1.313,-1.3913,-1.3997,-1.4088,-1.4088,-1.4166,-1.4412,-1.4734,-1.5296,-1.5696,-1.7082,-1.855,-1.8798,-1.9036,-1.9923,-2.0644,-2.0934,-2.1603,-2.2713,-2.3818,-2.4624,-2.5697,-2.6812,-2.7802,-2.8748,-2.9442,-3.0147,-3.0955,-3.1697,-3.2367,-3.2879,-3.3531,-0.8038,-0.8038,-0.7939,-0.7935,-0.7826,-0.7939,-0.7232,-0.6291,-0.5892,-0.4591,-0.2691,-0.3129,-0.2279,-0.0989,-0.1522,-0.1343,0.0,0.0,0.0,0.0,0.0,0.0,-0.0986,-0.2057,-0.286,-0.4014,-0.4907,-0.5802,-0.6602,-0.6694,-0.6871,-0.7139,-0.7139,-0.7139,-0.7139,-0.7139,-0.7139,-0.7139,-0.7139,-0.7139,-0.7139,-0.7139,-0.7139,-0.7139,-0.7139,-0.7139,-0.7139,-0.7139,-0.7139,-0.7139,-0.7139,-0.7139,-0.7139,-0.7139,-0.7139,-0.7139,-0.6962,-0.6962,-0.6962,-0.7051,-0.6871,-0.7051,-0.7139,-0.7139,-0.7139,-0.7139,-0.7139,-0.7139,-0.7139,-0.7139,-0.7139,-0.7139,-0.7139,-0.7139,-0.7139,-0.7139,-0.7323,-0.7415,-0.8204,-0.9007,-0.9165,-0.9497,-1.1047,-1.2345,-1.3476,-1.3913,-1.4082,-1.4088,-1.4088,-1.425,-1.4573,-1.522,-1.5779,-1.7001,-1.831,-1.8798,-1.9283,-2.0167,-2.0722,-2.0934,-2.1669,-2.2776,-2.3818,-2.4707,-2.5849,-2.696,-2.8065,-2.9066,-2.9704,-3.0343,-3.097,-3.1697,-3.2422,-3.3039,-3.3582,-0.8038,-0.7939,-0.7033,-0.6685,-0.6724,-0.6697,-0.6388,-0.5694,-0.4203,-0.2801,-0.203,-0.1641,-0.0995,-0.036,0.0,0.0,0.0,0.0,0.0,0.0,0.0,0.0,0.0,-0.0897,-0.1433,-0.1701,-0.295,-0.4463,-0.4639,-0.5531,-0.6514,-0.6871,-0.6782,-0.7139,-0.7139,-0.7139,-0.7139,-0.7139,-0.7139,-0.7139,-0.7139,-0.7139,-0.7139,-0.7139,-0.7139,-0.7139,-0.7139,-0.7139,-0.7139,-0.7051,-0.7051,-0.6962,-0.6962,-0.6962,-0.6962,-0.6782,-0.6517,-0.5534,-0.5087,-0.4816,-0.562,-0.6334,-0.6871,-0.6871,-0.7051,-0.7139,-0.7139,-0.7051,-0.6962,-0.6962,-0.7139,-0.7139,-0.7139,-0.7139,-0.7139,-0.7139,-0.7143,-0.7231,-0.7584,-0.8576,-0.8928,-0.9501,-1.0611,-1.1906,-1.3033,-1.3737,-1.3822,-1.4082,-1.4088,-1.425,-1.4496,-1.522,-1.5944,-1.7082,-1.806,-1.8718,-1.945,-2.0333,-2.0789,-2.1011,-2.1821,-2.285,-2.3818,-2.4779,-2.5918,-2.7108,-2.8247,-2.9317,-2.9889,-3.0524,-3.1102,-3.1739,-3.2422,-3.2879,-3.3287,-0.7192,-0.7095,-0.5814,-0.5285,-0.534,-0.5333,-0.5103,-0.4305,-0.2333,-0.1289,-0.1096,0.0,0.0,0.0,0.0,0.0,0.0,0.0,0.0,0.0,0.0,0.0,0.0,-0.0359,-0.1076,-0.0987,-0.179,-0.3037,-0.3838,-0.4463,-0.5087,-0.5531,-0.5888,-0.562,-0.5885,-0.6334,-0.7139,-0.7139,-0.7139,-0.7139,-0.7139,-0.7139,-0.7139,-0.7139,-0.7139,-0.7139,-0.7139,-0.7051,-0.7051,-0.6959,-0.6779,-0.6517,-0.6428,-0.6157,-0.5977,-0.5622,-0.5265,-0.4374,-0.3927,-0.3748,-0.4641,-0.5447,-0.5891,-0.6157,-0.6245,-0.5977,-0.6157,-0.6248,-0.6428,-0.6517,-0.6514,-0.6517,-0.6871,-0.6871,-0.6962,-0.6962,-0.7048,-0.7051,-0.7231,-0.8132,-0.8488,-0.924,-1.0351,-1.1472,-1.2681,-1.3209,-1.3646,-1.3906,-1.4088,-1.4166,-1.4412,-1.5137,-1.5861,-1.6919,-1.798,-1.8798,-1.9608,-2.0489,-2.0789,-2.0934,-2.1897,-2.285,-2.3818,-2.4921,-2.6239,-2.7471,-2.8684,-2.9566,-3.0329,-3.0837,-3.1219,-3.1838,-3.2477,-3.2986,-3.3443,-0.5693,-0.5596,-0.4462,-0.3896,-0.3903,-0.3764,-0.3052,-0.1942,-0.0647,0.0,0.0,0.0,0.0,0.0,0.0,0.0,0.0,0.0,0.0,0.0,0.0,0.0,0.0,-0.0897,-0.0987,-0.179,-0.2324,-0.2503,-0.3393,-0.3838,-0.3927,-0.3927,-0.4194,-0.4192,-0.4727,-0.544,-0.6425,-0.6602,-0.6425,-0.6425,-0.6602,-0.6602,-0.6422,-0.6334,-0.6334,-0.6422,-0.6422,-0.6422,-0.6511,-0.6331,-0.5888,-0.5536,-0.5003,-0.4194,-0.3838,-0.357,-0.357,-0.3392,-0.3037,-0.2948,-0.3038,-0.3487,-0.3484,-0.4196,-0.473,-0.473,-0.4816,-0.5087,-0.5356,-0.5356,-0.5356,-0.5891,-0.6514,-0.6602,-0.6691,-0.6779,-0.6868,-0.6959,-0.7051,-0.7323,-0.7411,-0.8185,-0.9918,-1.1214,-1.2163,-1.3033,-1.3561,-1.3913,-1.4088,-1.4088,-1.4412,-1.4977,-1.5786,-1.6756,-1.7658,-1.8638,-1.9599,-2.0401,-2.0634,-2.0934,-2.1897,-2.2776,-2.3672,-2.4815,-2.6501,-2.7776,-2.8556,-2.969,-3.097,-3.1292,-3.1336,-3.2145,-3.2841,-3.3479,-3.4037,-0.4555,-0.4368,-0.3137,-0.2547,-0.2419,-0.1571,-0.0922,-0.0554,0.0,0.0,0.0,0.0,0.0,0.0,0.0,0.0,0.0,0.0,0.0,0.0,0.0,0.0,0.0,0.0,0.0,0.0,0.0,-0.1701,-0.2325,-0.2948,-0.3481,-0.3659,-0.3213,-0.3303,-0.366,-0.4283,-0.4996,-0.5442,-0.5176,-0.5354,-0.5442,-0.5265,-0.5085,-0.4905,-0.4905,-0.4996,-0.4905,-0.4905,-0.49,-0.4621,-0.4366,-0.4111,-0.4045,-0.3669,-0.3392,-0.2415,-0.2236,-0.1969,-0.1254,0.0,0.0,0.0,0.0,0.0,-0.3218,-0.3751,-0.357,-0.3927,-0.4107,-0.4107,-0.4196,-0.473,-0.5174,-0.5351,-0.5528,-0.5877,-0.5968,-0.6239,-0.6419,-0.6874,-0.6874,-0.7749,-0.9488,-1.0524,-1.1563,-1.2601,-1.3385,-1.3822,-1.4088,-1.4088,-1.4489,-1.5061,-1.5621,-1.6511,-1.7488,-1.847,-1.9432,-2.0313,-2.0479,-2.0857,-2.1745,-2.2627,-2.3441,-2.472,-2.6463,-2.7445,-2.8051,-2.9393,-3.1087,-3.1233,-3.1334,-3.2321,-3.3198,-3.3786,-3.4479,-0.3154,-0.297,-0.1767,-0.1201,-0.1096,0.0,0.0,0.0,0.0,0.0,0.0,0.0,0.0,0.0,0.0,0.0,0.0,0.0,0.0,0.0,0.0,0.0,0.0,0.0,0.0,0.0,0.0,-0.0538,0.0,0.0,-0.2057,-0.2058,0.0,0.0,-0.2148,-0.2147,-0.2771,-0.3484,-0.384,-0.4107,-0.4016,-0.3927,-0.3748,-0.3481,-0.3481,-0.3481,-0.3481,-0.3481,-0.3565,-0.3379,-0.3301,-0.2865,-0.2698,-0.242,-0.2057,-0.1165,-0.1076,-0.0807,0.0,0.0,0.0,0.0,0.0,0.0,-0.1434,-0.188,-0.2325,-0.2681,-0.286,-0.2949,-0.3126,-0.3303,-0.3481,-0.3659,-0.4188,-0.4625,-0.4984,-0.5343,-0.5794,-0.6337,-0.6959,-0.7749,-0.8794,-0.9836,-1.1042,-1.2248,-1.3294,-1.3913,-1.4088,-1.4088,-1.4573,-1.5213,-1.5703,-1.6265,-1.7326,-1.855,-1.9432,-2.0245,-2.0489,-2.1011,-2.1669,-2.2403,-2.3147,-2.4625,-2.6438,-2.7272,-2.7973,-2.9628,-3.1073,-3.116,-3.1477,-3.2431,-3.3287,-3.3937,-3.464,-0.1702,-0.1615,0.0,0.0,0.0,0.0,0.0,0.0,0.0,0.0,0.0,0.0,0.0,0.0,0.0,0.0,0.0,0.0,0.0,0.0,0.0,0.0,0.0,0.0,0.0,0.0,0.0,0.0,0.0,0.0,0.0,0.0,0.0,0.0,0.0,0.0,0.0,-0.179,-0.2504,-0.2949,-0.3215,-0.3304,-0.3303,-0.3126,-0.3126,-0.3126,-0.3126,-0.3215,-0.3304,-0.2858,-0.2415,-0.1704,-0.1346,-0.0899,-0.0359,0.0,0.0,0.0,0.0,0.0,0.0,0.0,0.0,0.0,0.0,0.0,0.0,0.0,-0.1612,-0.1701,-0.179,-0.2057,-0.2236,-0.2504,-0.2949,-0.3568,-0.4188,-0.4903,-0.5974,-0.6428,-0.6874,-0.7665,-0.8627,-0.9753,-1.0697,-1.1986,-1.2851,-1.3561,-1.4088,-1.4088,-1.465,-1.5372,-1.6429,-1.7082,-1.806,-1.9116,-1.9687,-2.0167,-2.0489,-2.0789,-2.1298,-2.2038,-2.285,-2.4399,-2.6027,-2.7246,-2.8258,-2.9799,-3.0822,-3.1058,-3.1549,-3.2555,-3.3287,-3.3887,-3.4814,-0.0449,-0.0449,-0.009,0.0,0.0,0.0,0.0,0.0,0.0,0.0,0.0,0.0,0.0,0.0,0.0,0.0,0.0,0.0,0.0,0.0,0.0,0.0,0.0,0.0,0.0,0.0,0.0,0.0,0.0,0.0,0.0,0.0,0.0,0.0,0.0,0.0,0.0,0.0,0.0,0.0,-0.2148,-0.1344,-0.0807,0.0,0.0,0.0,0.0,0.0,0.0,-0.0718,-0.0628,-0.0449,-0.0359,-0.009,0.0,0.0,0.0,0.0,0.0,0.0,0.0,0.0,0.0,0.0,0.0,0.0,0.0,0.0,0.0,0.0,0.0,0.0,0.0,0.0,-0.1704,-0.2594,-0.3392,-0.4639,-0.5977,-0.6517,-0.6874,-0.7665,-0.854,-0.9492,-1.0443,-1.13,-1.2157,-1.2942,-1.373,-1.4166,-1.481,-1.5703,-1.7488,-1.8381,-1.9036,-1.9441,-1.9844,-2.0245,-2.0566,-2.0789,-2.1001,-2.1886,-2.2925,-2.4135,-2.5542,-2.6966,-2.8309,-2.9614,-3.045,-3.0822,-3.1522,-3.2461,-3.3039,-3.3582,-3.4733,0.0,0.0,0.0,0.0,0.0,0.0,0.0,0.0,0.0,0.0,0.0,0.0,0.0,0.0,0.0,0.0,0.0,0.0,0.0,0.0,0.0,0.0,0.0,0.0,0.0,0.0,0.0,0.0,0.0,0.0,0.0,0.0,0.0,0.0,0.0,0.0,0.0,0.0,0.0,0.0,-0.0896,-0.0359,0.0,0.0,0.0,0.0,0.0,0.0,0.0,0.0896,0.1342,0.161,0.17,0.179,0.17,0.0,0.0,0.1612,0.1522,0.1433,0.1433,0.1344,0.0,0.0,0.0,0.0,0.0,0.0,0.0,0.0,0.0,0.0,0.0,0.0,0.0,-0.1344,-0.2502,-0.3744,-0.4905,-0.5891,-0.6428,-0.7228,-0.8105,-0.8803,-0.9662,-1.0183,-1.1042,-1.2242,-1.3118,-1.4159,-1.481,-1.5545,-1.7009,-1.839,-1.8957,-1.9362,-1.9766,-2.0167,-2.0489,-2.1011,-2.1364,-2.2113,-2.3062,-2.4494,-2.582,-2.7154,-2.8488,-2.9614,-3.0208,-3.0584,-3.145,-3.2367,-3.2826,-3.3427,-3.4638,0.0,0.0,0.0,0.0,0.0,0.0,0.0,0.0,0.0,0.0,0.0,0.0,0.0,0.0,0.0,0.0,0.0,0.0,0.0,0.0,0.0,0.0,0.0,0.0,0.0,0.0,0.0,0.0,0.0,0.0,0.0,0.0,0.009,0.0,0.009,0.0,0.0,0.0,0.0,0.0,0.0449,0.0,0.0,0.0,0.0359,0.0449,0.0,0.0,0.0,0.1788,0.2767,0.2943,0.3124,0.3037,0.3126,0.3126,0.3037,0.3126,0.3215,0.3126,0.3215,0.3393,0.3659,0.3659,0.3571,0.3038,0.2148,0.0,0.0,0.0,0.0,0.0,0.0,0.0,0.0,-0.0538,-0.1698,-0.2942,-0.4101,-0.5267,-0.6071,-0.6786,-0.7489,-0.8189,-0.8711,-0.9231,-1.0183,-1.1386,-1.2589,-1.3717,-1.465,-1.4894,-1.5553,-1.6935,-1.8399,-1.9125,-1.9441,-1.9932,-2.0245,-2.1068,-2.1811,-2.2478,-2.3503,-2.5004,-2.6314,-2.7326,-2.8373,-2.949,-3.0011,-3.0464,-3.1248,-3.2104,-3.2879,-3.3531,-3.4591,0.0,0.0,0.0,0.0,0.0,0.0,0.0,0.0,0.0,0.0,0.0,0.0,0.0,0.0,0.0,0.0,0.0,0.0,0.0,0.0,0.0,0.0,0.0,0.0,0.0,0.0,0.0,0.0,0.0,0.0,0.0,0.0,0.1254,0.1076,0.0449,0.1165,0.2236,0.1969,0.2147,0.2503,0.2415,0.2058,0.1522,0.1791,0.2415,0.2681,0.0,0.0,0.3038,0.3304,0.3568,0.3833,0.4013,0.4014,0.4105,0.4192,0.4103,0.4105,0.4194,0.4192,0.4192,0.4103,0.4192,0.4105,0.4016,0.3926,0.3304,0.3038,0.0,0.0,0.0,0.0,0.0,0.0,0.0,-0.0179,-0.1429,-0.2586,-0.3655,-0.4641,-0.5536,-0.6248,-0.6959,-0.7573,-0.8017,-0.8711,-0.9753,-1.0956,-1.1986,-1.319,-1.4489,-1.4573,-1.4657,-1.5718,-1.7261,-1.847,-1.9036,-1.952,-2.0079,-2.0991,-2.1886,-2.2776,-2.394,-2.5157,-2.6146,-2.7178,-2.822,-2.9504,-2.995,-3.0464,-3.1087,-3.1838,-3.2664,-3.3531,-3.4495]}]]